GFSCGP_con_mucape_000.txt.gz
CAPE
0 0 0 0 0 0 3 28 43 38 229 364 281 240 337 878 812 767 1005 1146 976 819 905 1102 1374 1495 1585 1791 2214 2531 2404 2499 2770 2717 1700 1770 1565 1692 2022 1698 2403 2264 2110 2002
0 0 0 0 0 0 0 4 39 87 159 228 177 239 269 416 901 715 722 1066 1287 1029 882 1244 1506 1465 1519 1897 2353 2709 2797 2764 2850 2203 2455 2011 2302 1637 1853 2000 2133 2225 2172 2225
0 0 0 0 0 0 0 0 24 94 158 209 150 246 192 152 598 698 621 653 1103 1197 1003 1109 1289 1478 1509 1799 2391 2711 3051 3125 3074 2937 2392 2563 2432 2432 2066 2162 2422 2735 2589 2518
0 0 0 0 0 0 0 0 7 56 108 139 181 151 67 128 476 643 817 698 612 1136 1145 1134 1116 1339 1441 1650 2042 2751 3175 3423 3242 3210 2972 3586 2291 1787 1374 1730 1392 2066 2650 2451
0 0 0 0 0 0 0 0 0 9 88 123 154 160 53 74 114 449 813 839 584 463 917 1095 1105 1068 1384 1511 1821 2351 3201 3734 3739 3377 3616 3150 3030 1792 1436 1512 1999 2359 2313 2490
0 0 0 0 0 0 0 0 0 13 40 92 101 76 6 15 80 69 273 681 752 388 429 785 935 975 1190 1371 1620 1952 3177 4089 3741 3649 3587 3540 2895 2635 1537 2020 1643 1139 1138 1795
0 0 0 0 0 0 0 0 6 28 38 45 65 64 1 1 2 13 8 165 748 540 399 540 828 969 1161 1369 1554 1877 2763 3653 3554 3555 3414 3484 3487 3195 2942 2632 1877 1083 763 807
0 0 0 0 0 0 0 0 6 0 0 25 11 7 0 7 12 0 0 44 469 703 377 468 697 911 1221 1316 1583 1885 2503 3566 3371 3320 3724 4274 4043 3270 3059 2946 1892 1295 795 386
0 0 0 0 0 0 0 0 0 26 39 22 1 1 0 0 15 0 32 91 204 637 576 359 633 864 1136 1381 1895 2553 3278 3059 3142 3067 3414 3770 3982 3634 2993 2841 2783 1785 1467 432
0 0 0 0 0 0 0 0 0 2 67 0 4 12 0 7 0 0 25 115 236 573 662 418 549 774 1043 1312 1606 2027 2541 3149 2886 2865 3048 3152 3331 3535 3331 3158 3231 2256 1888 1403
0 0 0 0 0 0 0 0 0 1 4 12 22 1 0 0 0 0 3 124 159 448 762 705 518 618 1031 1135 1396 1873 2296 2623 2859 2836 3425 3246 2941 3050 3370 3304 3428 3017 2210 1396
0 0 0 0 0 0 0 0 0 2 1 10 9 0 0 0 0 0 0 8 10 260 733 909 808 791 912 1251 1216 1541 1939 2382 2695 3304 3540 2997 2913 2889 3140 3390 3058 2317 1729 973
0 0 4 0 0 0 0 0 0 0 2 96 14 0 0 0 0 0 49 84 99 442 767 1079 1076 1174 1208 1242 1862 1606 1984 2181 2361 2767 2902 2891 2837 2930 3067 2819 1762 1671 863 649
0 0 0 0 0 0 0 0 0 0 3 1 5 26 6 0 0 0 0 96 210 691 903 1224 1254 1514 1578 1941 2671 2728 2039 2192 2382 2483 2869 3034 2839 2752 2734 2004 651 492 240 325
91 97 33 0 0 0 0 0 0 0 0 3 0 8 11 1 0 0 0 4 238 865 967 1321 1500 2493 2777 2740 2870 2583 2360 2402 2460 2670 2713 3018 3048 2663 1991 1267 772 332 152 438
0 130 57 35 8 7 4 0 0 0 0 0 0 0 0 0 0 0 0 0 289 1017 1103 1419 1670 1938 2312 2362 2491 2564 2594 2495 2641 2819 2892 3026 3421 2400 1477 1133 867 897 745 429
14 161 387 216 111 66 63 11 3 0 0 0 0 0 0 0 0 0 1 123 332 960 1135 1298 1635 1849 2315 2444 2685 2635 2645 2599 2681 2893 3024 3223 3019 1968 1297 1216 1243 1147 791 539
79 482 437 342 289 247 1 1 0 0 0 0 0 0 0 0 0 15 153 81 349 966 1149 1281 1389 1751 2013 1974 2102 2180 2333 2541 2734 2980 2999 3004 2649 1727 1612 1240 1160 1089 1033 969
16 192 374 204 290 134 31 196 28 3 0 0 0 0 0 0 3 294 192 181 516 1033 1355 1392 1329 1605 1842 1565 1804 1903 2096 2360 2557 2764 2824 2508 2075 1479 1216 1242 1165 1169 935 783
83 162 308 298 197 174 566 323 222 315 80 0 0 0 0 9 42 1 361 125 246 755 984 1177 1086 1399 1362 1377 1506 1874 2058 2385 2624 2728 2656 2085 1747 1680 1534 1427 1312 1146 1160 826
315 447 116 271 310 301 444 265 400 352 51 4 44 117 160 243 406 538 417 490 691 1052 1164 1246 1161 1102 1333 1373 1626 1856 2080 2341 2514 2695 2494 1929 1905 2116 2034 1818 1347 1108 959 855
496 415 159 303 362 331 166 440 665 658 457 448 455 522 528 495 737 849 873 1058 1126 1058 896 820 1307 1703 1716 1748 2005 2283 2430 2671 2805 2776 2134 2073 1880 1787 1831 1631 1180 948 1081 1069
384 226 210 284 208 218 100 275 457 589 615 600 605 564 577 534 632 720 734 735 767 728 742 870 1433 1904 2162 2370 2381 2698 3294 3053 2911 2274 2245 1986 1810 1549 1528 1469 949 815 913 871
454 420 479 510 243 70 38 66 185 323 374 360 374 330 384 366 413 473 580 819 1125 1291 1141 1137 1312 1791 2409 2530 2653 3047 2568 2637 2721 2174 2059 1673 1902 1623 1477 1289 1140 1346 1327 1077
252 353 438 280 105 17 9 8 14 86 114 206 253 275 313 617 833 1116 1288 1270 1295 1391 1323 1247 1437 2031 2337 2405 2426 2318 2245 2191 2190 1987 1767 2172 1753 1296 1677 1298 1022 1289 579 400
100 322 488 137 123 46 0 15 2 6 44 41 75 63 76 163 264 516 960 1295 1478 1765 1802 1869 1966 2300 2401 2416 2400 2419 2133 2181 2108 2143 1717 1481 1526 1682 1513 830 634 391 224 24

GFSCGP_con_mucape_003.txt.gz
CAPE
0 0 0 0 0 0 14 61 44 46 27 81 174 145 266 455 413 257 90 131 400 572 718 761 948 943 924 1107 1546 2155 2546 3669 2715 2157 2656 2243 1745 1969 1740 1475 2738 2717 2363 2288
0 0 0 0 0 0 0 24 66 46 42 29 114 203 222 773 536 380 231 123 153 337 489 780 998 1012 939 1304 1888 2892 3182 3927 3341 2353 2828 2629 2276 1535 1328 1319 2334 2256 2843 2684
0 0 0 0 0 0 0 8 43 71 145 115 134 130 155 214 668 588 305 263 198 200 229 690 891 1063 1124 1521 2272 3227 4144 4352 3957 3775 2998 3071 2752 2206 2411 1826 2020 2385 2435 2398
0 0 0 0 0 0 0 0 16 66 49 131 41 171 162 120 206 640 609 432 305 255 287 450 931 1195 1160 1567 1901 3340 4289 4423 4328 4312 3119 3649 2151 1484 924 1173 1152 2037 2721 2501
0 0 0 0 0 0 0 0 15 46 140 135 72 117 99 59 133 259 619 618 433 268 388 452 794 1112 1136 1321 1658 2658 4348 4651 4548 4309 3888 2512 2768 1362 1312 885 3074 1768 3025 1927
0 0 0 0 0 0 0 0 18 40 83 112 156 117 214 52 116 170 284 633 712 550 375 750 677 918 1084 1248 1532 2456 4356 4776 4841 4501 4093 4090 3861 3036 1431 1550 1805 1602 1242 1772
0 0 0 0 0 0 0 0 8 44 66 42 89 152 204 221 70 73 75 124 557 823 510 622 989 1003 1331 1802 2123 2640 4183 4853 4790 4193 4376 4227 3909 4169 3324 2723 2042 1594 680 861
0 0 0 0 0 0 0 0 0 14 39 41 50 66 86 95 41 55 69 33 122 644 747 418 783 1276 1846 1819 2627 2859 3753 4680 4831 4568 4725 4750 4714 2860 2494 2989 2162 1363 964 741
0 0 0 0 0 0 0 0 0 24 67 57 53 54 23 32 75 62 28 9 27 285 679 609 494 861 1530 1655 2436 2919 3787 4357 4577 3631 4870 4859 4729 4552 2696 3704 3685 2136 2437 846
0 0 0 0 0 0 0 0 0 7 74 71 75 68 62 53 8 5 31 14 12 51 657 662 485 625 1252 1245 1881 2780 3557 4249 4017 4185 4459 4275 4420 4611 4279 4372 4080 3445 2808 1857
0 0 0 0 0 0 0 0 0 1 29 37 70 74 53 59 38 0 3 5 37 58 491 786 567 551 845 918 1472 1980 2745 3842 4045 4184 4125 4303 3928 4058 4307 4090 3913 3729 2947 2798
0 0 0 0 0 0 0 0 0 25 35 21 72 71 29 8 3 4 14 18 31 77 290 652 726 522 650 1262 1077 1293 1712 2069 3138 3961 4437 4421 4420 4100 3974 4155 4101 3984 3537 2901
0 0 0 0 0 0 0 0 0 0 12 132 44 4 23 11 12 43 17 0 6 82 119 589 660 892 888 1054 1305 1056 1623 1503 2028 3433 3525 4142 3912 4201 4041 4123 4123 3926 3778 2884
0 0 0 0 0 0 0 0 0 0 0 7 11 47 87 65 10 1 0 0 8 58 493 535 832 1285 1350 1521 1763 1695 1565 1289 1724 2408 2764 3939 4234 4034 3825 4120 3908 3373 3141 2492
0 0 0 0 0 3 0 0 0 0 0 1 4 40 37 83 70 15 3 0 0 1 369 968 1201 2285 2469 2198 2452 2362 1978 2363 2186 3204 3068 4028 4453 4081 3903 3977 3938 3153 2614 2010
0 15 18 0 0 0 2 3 0 0 0 0 0 1 18 17 86 34 0 0 0 0 15 937 1442 1821 3052 2824 3157 3048 2942 3022 3070 3899 3782 4362 4646 4294 3901 3835 3346 2302 2179 1548
38 70 328 161 66 93 72 0 0 1 1 0 0 0 0 15 64 97 16 0 2 64 94 478 1373 1834 2511 2507 3440 3417 3635 3390 3787 4306 4408 4780 4821 4254 3346 3105 2694 2159 1819 1510
38 66 65 143 330 239 0 99 58 30 22 13 8 0 0 15 33 50 13 1 66 174 171 229 1086 1823 2730 2288 2308 2919 3085 4095 4370 4529 4541 4758 4618 3683 2685 2346 2057 1955 2025 1846
18 54 79 281 406 273 221 541 440 500 195 29 24 1 0 1 2 16 0 0 2 27 224 432 1392 1839 3427 3038 3569 3734 3439 3895 4181 4002 4551 4685 4048 3286 2498 1846 1785 2185 2130 2330
1 14 207 450 266 326 171 700 508 402 211 15 45 49 0 3 65 11 1 30 408 462 246 860 1648 2098 2744 3289 2763 3344 2911 3469 3936 4035 4265 4573 3732 2984 2198 1835 1891 2193 2286 1915
0 3 0 78 216 179 845 502 547 429 417 1114 844 628 308 20 61 685 640 432 523 565 1380 2020 2028 2883 3243 3132 2538 3197 3071 3062 3100 3221 3339 3536 2930 2608 1943 2056 2288 2019 1886 1455
0 15 24 90 142 183 549 556 575 1070 886 1008 993 864 1062 48 631 747 858 939 1010 1215 1600 1712 2228 2590 2520 2879 3082 3368 3566 3724 3908 3752 3447 2907 2458 2165 2157 2361 1828 1552 1575 1410
111 18 38 101 268 916 714 891 840 831 892 1002 1071 962 895 1028 938 1059 1290 1534 1626 1624 1671 1537 1503 2454 2458 3096 3318 3693 4535 4370 4062 3919 3065 2549 2480 2395 2533 2292 2048 1733 1558 1211
173 147 324 552 662 586 672 599 591 621 705 759 1003 1079 1138 1215 1152 1050 931 891 844 965 1290 1339 1598 2156 2697 3180 2822 3591 3528 3599 3661 2900 2466 2360 2322 2212 2173 2145 1437 1145 885 1051
13 372 481 767 533 331 182 231 230 309 432 419 650 830 1245 1144 1104 1195 1517 1596 1197 1141 1161 1419 1705 2136 2440 2832 3240 2973 3261 3388 2756 2429 2373 2740 2339 2127 2020 1391 1228 1622 1569 1407
2 130 468 521 560 298 0 0 8 39 55 140 166 398 633 852 937 1125 1378 1399 1370 1375 1458 1773 1733 2224 2559 2762 2890 2829 2892 3005 3071 2670 2560 2299 2029 2250 1595 931 957 936 587 561

GFSCGP_con_mucape_009.txt.gz
CAPE
0 0 0 0 0 0 0 0 0 0 10 13 35 9 21 17 0 0 103 18 66 117 155 565 621 576 739 1311 1210 1105 1221 1663 1494 1458 1644 1626 1728 1690 1275 1114 1637 1295 1307 1418
0 0 0 0 0 0 0 0 0 0 7 19 39 47 0 0 0 0 31 63 41 88 86 324 453 527 695 1044 1143 1080 864 2098 1669 1776 1675 1508 1614 1383 1367 1319 1235 1207 1789 1609
0 0 0 0 0 0 0 0 0 0 0 15 74 49 42 7 17 39 21 20 64 82 112 187 267 385 451 795 1317 1247 1014 1626 2041 1976 1653 1780 1439 1485 1459 1502 1802 1863 1893 1747
0 0 0 0 0 0 0 0 0 0 0 1 54 33 24 43 305 176 60 25 15 92 128 156 275 339 386 833 1048 1305 1419 1729 1827 1945 1770 1839 1557 1281 1288 1464 1296 1633 2145 2001
0 0 0 0 0 0 0 0 0 0 0 31 0 2 1 127 55 3 67 26 3 0 65 172 385 333 434 598 1001 1657 1586 1566 1998 1778 1813 1569 1353 1103 1313 1611 1386 1772 2240 1859
0 0 0 0 0 0 0 0 0 0 0 0 2 0 0 49 17 20 72 95 21 16 12 184 331 461 416 796 1181 1479 1967 2017 2216 1767 2098 1823 1652 1534 1242 1022 1667 1828 1692 1492
0 0 0 0 0 0 0 0 0 0 0 0 0 1 0 48 53 51 144 223 68 30 63 57 343 555 538 861 1050 1778 1987 2101 2332 2158 1634 2233 1804 1630 1275 1027 1726 1725 1447 1899
0 0 0 0 0 0 0 0 0 0 0 0 0 0 0 12 55 92 240 279 121 117 82 90 353 503 705 760 1272 1749 2161 2087 2526 2478 2457 1752 2223 1497 1174 1733 1735 1511 1405 1611
0 0 0 0 0 0 0 0 0 0 0 0 0 0 0 1 28 96 67 201 178 41 153 182 190 461 708 775 1504 1543 2482 2521 2607 2796 2684 2294 2059 2032 1754 1867 2087 1671 1459 1708
0 0 0 0 0 0 0 0 0 0 0 0 0 0 0 0 25 61 59 63 53 6 49 186 233 462 717 851 1296 1638 2216 2696 2893 2567 2966 2650 2392 1820 1781 1942 1923 2262 1219 1280
0 0 0 0 0 0 0 0 0 0 0 0 0 0 0 0 36 148 90 41 53 25 73 255 250 423 823 986 1254 1604 2169 2750 2977 3073 2949 2832 2704 2297 1945 2330 1980 1980 1595 1411
0 0 0 0 0 0 0 0 0 0 0 0 0 0 0 0 132 181 151 86 48 5 46 222 364 484 978 1144 1124 1575 2623 2755 3040 3196 3122 3055 3011 2816 2433 2034 2308 2154 1691 1570
0 0 0 0 0 0 0 0 0 0 0 0 0 0 0 0 0 12 30 36 18 14 436 534 480 843 1115 1190 1161 1578 2194 3041 3236 3359 3255 3236 3010 3122 2989 2412 2729 2799 1867 1780
1 0 0 0 0 0 0 0 0 0 0 0 0 0 0 0 20 21 39 22 9 28 244 638 692 1001 1108 1358 1320 1312 1917 2793 3248 3499 3376 3161 3091 3086 3170 3022 2379 2980 2851 2264
0 0 0 0 0 0 0 0 0 0 0 0 0 0 0 0 101 66 98 95 54 140 463 713 798 730 1197 1353 1421 1450 1650 1991 2940 3228 3330 3128 3097 3103 3168 3129 3134 2454 2867 2707
0 0 0 0 0 0 0 0 0 0 0 0 0 0 0 0 0 303 173 54 7 424 887 672 995 768 826 1144 1366 1498 1632 1934 2288 2962 3132 3003 3029 3072 3182 3248 3221 3255 2657 2817
0 0 0 0 0 0 0 0 0 0 0 0 0 0 0 0 0 41 82 164 24 20 601 715 854 1507 848 957 1153 1368 1587 1705 2100 2571 2952 2977 2845 3077 3052 3193 3121 3201 3235 3065
0 0 0 0 0 0 0 0 0 0 0 0 0 0 0 0 0 7 0 73 14 3 27 351 700 1085 1924 1121 1110 1296 1446 1743 1941 2109 2709 2839 2991 2889 3184 3157 3172 3257 3273 3288
0 0 0 0 0 0 0 0 0 3 0 36 286 158 2 0 0 0 0 0 0 0 15 0 361 1030 1480 1818 1333 1181 1301 1565 1736 1809 2075 2624 2769 3143 3305 3329 3291 3339 3331 3303
0 0 0 0 0 0 0 52 239 148 206 730 560 487 372 264 82 24 433 984 73 6 0 0 47 39 1577 1927 2005 1683 1378 1322 1390 1500 1895 2407 2598 3052 3551 3455 3431 3375 3245 2592
1 16 0 27 0 0 78 257 208 162 468 489 398 439 545 460 479 466 476 1084 1221 936 526 69 247 626 1659 2020 2156 2021 1755 1522 1637 1402 2782 3153 3625 3789 3677 3524 3440 3012 2753 2597
0 0 6 86 91 53 436 353 413 658 961 1193 1184 1408 654 497 392 518 841 1022 1226 991 882 3042 1358 1945 2357 2445 2479 2347 1895 1867 3109 3429 4164 4248 4276 4036 3763 3480 2977 2898 2609 2430
0 0 5 13 127 366 441 614 483 543 951 1004 1136 1559 1289 1379 1654 1824 1422 1362 1585 2108 3051 3236 3632 3892 3769 3031 3015 3591 3909 3786 3816 4293 4288 4208 4146 4227 4085 2857 2419 2379 1668 1640
35 93 46 127 0 186 146 181 859 670 331 554 1003 1144 1200 1269 1463 1607 1873 2298 2404 2607 3031 3069 3159 3418 3652 3671 3754 3866 3866 3873 4021 4008 4125 4076 3977 3611 3130 2520 1632 1527 1337 1192
303 73 116 142 561 680 609 501 518 398 236 514 836 1105 1285 1402 1288 1354 1494 1706 2111 2543 2916 3028 3172 3612 3576 3493 3542 3550 3645 3733 3830 3798 3485 3365 3276 3156 2630 1462 1392 1296 1226 1269
2 137 59 151 308 371 380 162 172 205 201 389 654 885 1072 1059 998 913 937 878 1133 1088 1551 3086 3361 3368 3475 3654 3602 3438 3338 3334 3265 2678 2807 2841 2721 1876 1726 1483 1365 1177 1009 939

GFSCGP_con_mucape_012.txt.gz
CAPE
0 0 0 0 0 0 0 0 0 0 0 0 0 12 24 339 608 646 662 591 515 557 679 613 557 452 493 791 1127 1203 1219 892 1023 1198 1170 1065 1097 997 901 1355 848 1302 1325 1215
0 0 0 0 0 0 0 0 0 0 0 0 10 4 5 45 170 334 409 465 512 462 417 478 509 394 516 768 1069 1214 1173 905 938 958 947 1138 1152 1177 1104 1391 1065 975 903 820
0 0 0 0 0 0 0 0 0 0 0 1 7 37 10 0 18 60 124 167 292 280 351 390 475 399 490 710 872 911 1129 1114 1104 1119 1077 1225 1134 1110 1332 1232 1045 1138 1122 1007
0 0 0 0 0 0 0 0 0 1 0 0 9 1 46 0 7 1 44 84 123 116 93 175 409 421 442 621 725 754 987 1370 1266 1233 1174 1161 1053 1079 1282 1131 1221 1399 1323 1279
0 0 0 0 0 0 0 0 0 0 0 0 0 0 0 22 0 0 0 42 128 72 61 31 263 377 417 484 712 679 672 1539 1503 1424 1312 1221 1217 988 1008 1041 1196 1302 1606 1514
0 0 0 0 0 0 0 0 0 0 0 0 0 0 0 0 1 0 3 32 51 83 50 6 93 230 338 401 696 777 661 825 1551 1575 1497 1476 1384 1163 978 963 1058 1333 1533 1589
0 0 0 0 0 0 0 0 0 0 0 0 0 0 0 0 0 0 27 38 92 108 89 9 12 105 173 305 589 932 874 762 1137 1635 1603 1504 1380 1324 1046 903 1047 1406 1487 1617
0 0 0 0 0 0 0 0 0 0 0 0 0 0 0 0 0 8 23 24 16 113 94 41 22 86 100 246 610 941 1092 981 1198 1315 1502 1490 1434 1222 1096 961 1099 1199 1399 1630
0 0 0 0 0 0 0 0 0 0 0 0 0 0 0 0 0 0 8 32 22 124 116 67 50 78 160 257 582 910 1342 1240 1374 1573 1274 1502 1578 1360 1263 1227 1315 1261 1325 1320
0 0 0 0 0 0 0 0 0 0 0 0 0 0 0 0 0 0 13 17 39 114 200 101 31 126 279 256 633 1049 1420 1454 1656 1821 1651 1450 1494 1668 1556 1390 1413 1652 1462 1285
0 0 0 0 0 0 0 0 0 0 0 0 0 0 0 0 0 0 11 31 36 147 225 141 99 125 310 391 810 1203 1449 1449 1754 1976 1894 1880 1672 1448 1802 1760 1538 1570 1497 1288
0 0 0 0 0 0 0 0 0 0 0 0 0 0 0 0 0 0 0 23 207 284 207 153 158 125 291 572 953 1157 1668 1676 1772 2108 2111 2034 2070 1873 1607 1564 1575 1661 1665 1639
0 0 0 0 0 0 0 0 0 0 0 0 0 0 0 0 0 0 0 19 80 209 236 186 86 241 345 619 828 1282 1640 1950 2093 2182 2228 2415 2285 2214 1986 1735 1639 1645 1572 1495
0 0 0 0 0 0 0 0 0 0 0 0 0 0 0 0 0 0 0 39 101 95 71 9 109 167 470 703 864 1334 1533 2163 2240 2454 2428 2465 2512 2382 2318 1988 1763 1670 1771 1558
0 0 0 0 0 0 0 0 0 0 0 0 0 0 0 0 0 0 0 36 154 145 2 18 96 283 596 874 924 1256 1708 1989 2331 2497 2677 2626 2629 2605 2586 2386 2111 1860 2093 1832
0 0 0 0 0 0 0 0 0 0 0 0 0 0 0 0 0 0 0 0 11 62 17 127 169 383 642 939 1013 1137 1580 2257 2372 2620 2705 2735 2806 2764 2751 2778 2630 2265 2188 2489
0 0 0 0 0 0 0 0 0 0 0 0 0 0 0 0 0 0 0 0 1 28 152 312 418 564 668 966 1094 1107 1552 2117 2564 2713 2881 2915 2819 2823 2799 2833 2878 2822 2571 2370
0 0 0 0 0 0 0 0 0 0 0 0 0 0 0 0 0 0 0 0 0 0 23 474 568 597 788 999 1186 1263 1372 1866 2490 2635 2864 3061 2979 2837 2797 2842 2895 2898 2958 2880
0 0 0 0 0 0 0 0 0 0 0 0 0 0 0 0 0 0 0 0 0 0 0 264 682 797 828 940 1163 1349 1415 1651 1948 2383 2629 2854 2918 2756 2820 2818 2929 2931 2968 3029
0 0 0 0 0 0 0 0 7 0 227 307 3 0 0 0 0 0 0 564 0 0 0 0 114 486 1206 780 936 1166 1376 1591 1744 1990 2324 2692 2782 2703 2696 2843 2860 2951 2995 3049
0 0 0 0 0 0 22 33 98 53 108 274 88 17 0 9 33 35 77 667 578 316 42 0 0 14 367 1278 992 901 1060 1314 1609 1864 2063 2284 2690 2729 2715 2873 2948 3003 3064 3151
0 0 0 0 3 153 23 130 80 400 1000 930 985 578 851 1053 1126 1087 598 649 811 480 505 1580 256 0 0 608 1257 1069 917 1044 1370 1595 1817 1895 2441 2655 2836 2996 3045 3076 3052 3097
0 14 0 0 29 31 75 245 993 962 863 845 834 761 877 1073 1288 1531 1903 2146 2309 2299 2006 2389 2266 1012 2197 932 1338 1266 1274 1193 1171 1345 1576 1996 2468 2753 2926 2994 3155 3077 3039 2671
71 90 31 0 4 91 540 690 704 593 754 795 693 633 721 1099 1414 1721 1908 2039 2205 2430 2816 2920 2950 3016 2808 2447 1779 1449 1325 1384 1571 2567 3021 2799 2611 2648 3025 3128 3029 2638 2681 2442
134 100 122 0 0 122 588 562 559 415 662 885 977 938 917 924 1089 1403 1743 1971 2140 2287 2347 2453 2409 2669 2886 2886 3166 3045 2839 3201 3069 2730 2566 2566 2463 2859 3216 3222 2502 2192 1825 1723
65 158 189 107 0 28 220 553 499 346 381 485 642 630 740 934 992 1092 1250 1302 1455 1532 1585 1410 1172 1075 924 1309 1913 3572 3427 2980 2582 2440 2607 3093 3391 3357 2890 2207 1172 814 987 902

GFSCGP_con_mucape_015.txt.gz
CAPE
0 0 0 0 0 0 0 0 0 0 0 0 0 0 527 636 715 838 774 754 820 728 592 690 630 501 398 530 572 615 713 860 919 887 1032 1024 1291 1062 773 938 1025 1084 1027 1098
0 0 0 0 0 0 0 0 0 0 0 0 0 0 403 548 649 762 824 809 855 802 713 768 699 610 429 485 685 701 696 773 833 878 898 919 1022 937 798 733 1101 932 1045 1139
0 0 0 0 0 0 0 0 0 0 0 0 0 0 0 486 550 599 590 620 722 693 714 704 695 670 448 377 743 811 801 796 700 685 738 851 784 765 820 768 1008 1054 1077 1178
0 0 0 0 0 0 0 0 0 0 0 0 0 0 0 46 528 541 542 501 480 440 414 567 694 741 487 351 624 815 879 861 712 590 602 746 754 627 741 861 1004 1269 971 888
0 0 0 0 0 0 0 0 0 0 0 0 0 0 0 0 2 214 305 372 418 365 291 368 501 565 554 355 569 825 899 896 830 547 653 698 674 609 632 906 1074 1096 1051 993
0 0 0 0 0 0 0 0 0 0 0 0 0 0 0 0 0 0 35 65 134 200 243 258 300 442 493 414 496 701 784 858 842 671 759 781 782 720 740 758 961 1110 1057 1233
0 0 0 0 0 0 0 0 0 0 0 0 0 0 0 0 0 0 0 2 4 17 102 128 169 230 392 425 576 623 596 853 929 903 879 893 950 831 815 781 893 902 991 1217
0 0 0 0 0 0 0 0 0 0 0 0 0 0 0 0 0 0 0 1 1 0 13 28 69 89 238 359 491 561 595 679 1053 1123 1062 998 1014 941 894 1017 881 803 978 1181
0 0 0 0 0 0 0 0 0 0 0 0 0 0 0 0 0 0 0 0 0 0 1 29 69 65 89 201 303 576 582 551 907 1165 1166 1093 1070 1059 1060 1085 1032 900 874 1230
0 0 0 0 0 0 0 0 0 0 0 0 0 0 0 0 0 0 0 0 0 0 2 15 74 91 70 103 194 421 640 601 564 919 1143 1153 1114 1135 1117 1056 1072 946 873 1059
0 0 0 0 0 0 0 0 0 0 0 0 0 0 0 0 0 0 0 0 0 0 0 11 66 130 122 67 86 334 671 701 655 732 944 1029 1162 1140 1119 1131 1067 1026 1076 1148
0 0 0 0 0 0 0 0 0 0 0 0 0 0 0 0 0 0 0 0 0 0 0 5 63 142 130 75 86 328 605 827 769 861 1026 995 994 1149 1259 1165 1174 1098 1239 1373
0 0 0 0 0 0 0 0 0 0 0 0 0 0 0 0 0 0 0 0 0 0 0 0 0 56 179 92 128 348 670 900 931 1053 1180 1230 1217 1150 1279 1353 1261 1208 1320 1420
0 0 0 0 0 0 0 0 0 0 0 0 0 0 0 0 0 0 0 0 0 0 1 2 0 111 196 127 206 459 782 976 1049 1220 1391 1448 1462 1506 1295 1308 1370 1380 1452 1554
0 0 0 0 0 0 0 0 0 0 0 0 0 0 0 0 0 0 0 0 0 0 1 38 83 85 265 160 284 582 800 1180 1178 1294 1552 1617 1620 1694 1680 1554 1425 1354 1392 1437
0 0 0 0 0 0 0 0 0 0 0 0 0 0 0 0 0 0 0 0 0 0 0 95 186 251 153 130 327 544 1011 1243 1460 1521 1640 1753 1868 1947 1951 1907 1765 1636 1525 1567
0 0 0 0 0 0 0 0 0 0 0 0 0 0 0 0 0 0 0 0 0 0 0 0 89 39 57 186 426 581 1090 1225 1768 1768 1866 1948 1946 2133 2178 2119 2047 1929 1804 1695
0 0 0 0 0 0 0 0 0 0 0 0 0 0 0 0 0 0 0 0 0 0 0 0 34 4 127 361 628 721 1043 1398 1755 1976 2005 2168 2230 2194 2297 2358 2298 2174 2042 1960
0 0 0 0 0 0 0 0 0 0 0 0 0 0 0 0 0 0 0 0 0 0 0 0 0 92 250 509 791 922 1004 1397 1895 2039 2173 2302 2442 2403 2468 2483 2527 2454 2302 2207
0 0 0 0 0 0 0 0 0 0 0 0 0 0 0 0 0 0 0 0 0 0 0 0 0 272 367 628 977 1082 1099 1410 1959 2240 2306 2464 2607 2551 2534 2577 2522 2567 2574 2371
0 0 0 0 0 0 0 0 35 1 0 0 0 0 0 0 0 0 0 40 194 43 210 98 0 322 647 802 1084 1214 1228 1252 1645 2095 2401 2453 2645 2734 2635 2555 2542 2642 2673 2641
44 0 0 0 0 0 21 71 117 173 110 230 88 168 166 260 457 685 1081 1206 1185 1130 1483 1980 2033 1726 1047 478 789 1110 1263 1371 1431 1691 1902 2326 2480 2760 2705 2604 2582 2661 2680 2888
50 62 12 0 0 17 28 154 406 669 606 508 565 784 791 940 966 1014 1301 1456 1717 1960 1949 1842 1888 1658 1708 2353 1174 761 949 1268 1445 1530 1645 1820 2217 2547 2626 2593 2614 2687 2792 3026
70 111 75 61 10 25 108 225 326 601 673 634 630 821 974 1113 1183 1174 1313 1390 1507 1859 2090 2098 1780 1492 1353 1043 2478 2419 1886 1462 1074 1300 1530 1624 1891 2370 2524 2618 2705 2690 2877 2855
3 124 51 96 36 20 83 294 267 405 773 599 634 934 1165 1260 1146 1069 1193 1442 1643 1664 1535 1718 1958 1669 1408 1365 1022 946 2084 2375 1583 1222 1259 1460 1802 2406 2600 2609 2693 2619 2591 2308
66 209 108 18 58 4 17 175 318 326 670 839 889 922 986 1040 1174 1280 1269 1287 1418 1436 1107 1028 1084 1035 1081 1144 1170 1041 933 754 2538 1782 2123 2137 2118 2259 2389 2609 2603 2650 2268 1535

GFSCGP_con_mucape_018.txt.gz
CAPE
0 0 0 0 0 0 0 0 0 0 0 0 0 0 343 471 576 615 567 532 505 468 402 394 405 433 397 517 605 631 579 677 584 469 612 693 909 967 556 942 598 697 763 826
0 0 0 0 0 0 0 0 0 0 0 0 0 0 256 466 538 548 558 573 570 587 526 482 460 388 346 378 453 549 634 643 738 594 576 733 828 854 1117 876 660 779 838 862
0 0 0 0 0 0 0 0 0 0 0 0 0 0 0 390 498 553 519 533 536 595 584 492 465 407 349 285 317 364 507 590 697 709 589 739 819 851 1085 924 711 836 819 903
0 0 0 0 0 0 0 0 0 0 0 0 0 0 0 48 459 493 577 606 566 603 628 494 387 380 390 282 228 306 399 469 551 700 645 633 708 748 763 889 741 640 856 776
0 0 0 0 0 0 0 0 0 0 0 0 0 0 0 2 372 433 486 582 654 620 647 619 464 423 487 428 195 380 456 474 494 573 634 570 599 615 551 576 611 609 776 866
0 0 0 0 0 0 0 0 0 0 0 0 0 0 0 0 88 366 404 481 491 513 527 577 520 462 470 523 481 308 516 533 548 525 593 606 457 433 474 506 539 623 772 1026
0 0 0 0 0 0 0 0 0 0 0 0 0 0 0 0 0 4 161 283 412 435 429 399 388 345 477 486 489 506 498 587 617 585 546 558 513 418 429 538 441 587 739 893
0 0 0 0 0 0 0 0 0 0 0 0 0 0 0 0 0 0 0 1 25 120 273 349 357 285 246 373 410 459 507 590 637 606 576 561 611 411 502 620 536 569 541 769
0 0 0 0 0 0 0 0 0 0 0 0 0 0 0 0 0 0 0 0 0 0 5 73 198 272 192 176 239 345 448 541 620 642 600 585 607 517 559 654 664 724 526 690
0 0 0 0 0 0 0 0 0 0 0 0 0 0 0 0 0 0 0 0 0 0 0 0 0 31 92 118 158 271 419 452 515 712 738 723 682 667 634 702 799 772 826 831
0 0 0 0 0 0 0 0 0 0 0 0 0 0 0 0 0 0 0 0 9 0 0 0 0 3 16 41 112 203 405 464 455 794 889 892 862 829 776 762 837 857 936 925
0 0 0 0 0 0 0 0 0 0 0 0 0 0 0 0 0 0 0 0 0 0 0 0 0 1 3 9 33 148 349 467 454 543 983 1007 988 962 904 859 842 873 975 978
0 0 0 0 0 0 0 0 0 0 0 0 0 0 0 0 0 0 0 0 0 0 0 0 0 0 0 0 0 60 184 475 523 495 696 979 1043 1017 972 901 879 921 954 967
0 0 0 0 0 0 0 0 0 0 0 0 0 0 0 0 0 0 0 0 0 0 0 0 0 0 0 0 0 43 151 361 586 610 610 809 945 1021 1099 1056 968 929 948 1004
0 0 0 0 0 0 0 0 0 0 0 0 0 0 0 0 0 0 0 0 0 0 0 0 0 0 0 0 52 103 199 377 629 735 771 892 992 962 1023 1222 1172 1048 1015 1039
0 0 0 0 0 0 0 0 0 0 0 0 0 0 0 0 0 0 0 0 0 0 0 0 0 0 34 126 161 268 296 546 733 910 956 1066 1193 1245 1205 1144 1244 1255 1189 1196
0 0 0 0 0 0 0 0 0 0 0 0 0 0 0 0 0 0 0 0 0 0 0 0 0 12 145 253 338 368 464 691 849 1004 1138 1304 1386 1454 1525 1426 1297 1253 1243 1268
0 0 0 0 0 0 0 0 0 0 0 0 0 0 0 0 0 0 0 0 0 0 0 0 0 0 83 314 422 481 453 757 1108 1142 1210 1448 1620 1647 1658 1709 1599 1488 1360 1304
0 0 0 0 0 0 0 0 0 0 0 0 0 0 0 0 0 0 0 0 0 0 0 0 0 0 1 110 324 318 565 912 1205 1422 1448 1593 1755 1825 1848 1915 1898 1802 1647 1475
0 0 0 0 0 0 0 0 0 0 0 0 0 0 0 0 0 0 0 0 0 0 0 0 0 0 0 0 105 397 653 1043 1207 1665 1727 1812 1906 1902 1926 2117 2107 2035 1926 1751
0 0 0 0 0 0 0 6 23 0 0 0 0 0 0 0 0 0 173 469 542 952 492 0 0 0 24 68 400 591 691 984 1342 1580 1835 1946 2083 2175 2097 2237 2337 2358 2295 2115
0 0 0 0 0 0 0 38 96 0 0 23 110 39 0 0 89 360 559 665 1080 1366 1320 1042 1482 1633 1195 304 533 785 882 896 1149 1530 1861 2013 2228 2324 2293 2450 2480 2548 2568 2569
0 0 0 0 0 0 4 2 79 44 111 237 175 321 66 228 255 584 896 1124 1116 1061 1068 846 582 798 1855 1952 566 714 1045 1150 1151 1192 1584 2134 2272 2513 2598 2611 2620 2637 2642 2592
17 32 26 24 20 6 64 61 116 86 269 359 499 617 567 626 781 1000 1196 1243 1223 1227 1237 1083 830 635 494 365 258 305 807 1500 1930 1036 1075 1558 2202 2449 2725 2681 2615 2713 2740 2717
0 5 1 1 0 78 191 65 116 125 429 511 681 878 944 930 927 918 895 810 682 579 582 617 524 402 358 390 468 545 516 513 579 1867 1826 1344 1601 2118 2560 2617 2667 2678 2796 2670
0 0 0 0 0 44 90 114 151 214 472 648 834 949 875 844 756 755 786 690 638 491 302 330 372 330 338 275 3 0 0 0 0 580 1603 1561 1420 1736 2359 2352 2445 2703 2773 2660

GFSCGP_con_mucape_021.txt.gz
CAPE
0 0 0 0 0 0 0 0 0 0 0 0 0 20 119 666 819 851 780 664 615 626 633 707 767 738 844 1006 1143 1203 1095 1356 1157 1026 791 750 697 662 1022 1148 1425 1828 1932 2090
0 0 0 0 0 0 0 0 0 0 0 0 0 0 0 356 797 905 895 763 724 756 720 722 737 772 792 1002 1154 1394 1467 1741 1481 1096 1203 942 1063 914 1481 1418 1612 1735 1866 2092
0 0 0 0 0 0 0 0 0 0 0 0 0 0 0 138 509 786 924 868 766 834 823 801 750 748 825 963 1358 1772 2030 2060 1740 1628 1228 1211 1414 1631 1629 1565 1781 1776 1966 2176
0 0 0 0 0 0 0 0 0 0 0 0 0 0 0 0 375 554 774 880 860 876 920 863 844 840 812 1268 1183 1790 1881 2135 1780 2124 1678 1882 1280 1281 1364 1608 1716 1778 2000 2131
0 0 0 0 0 0 0 0 0 0 0 0 0 0 0 0 164 537 697 823 844 925 984 962 947 976 930 923 984 1185 1806 2021 2139 2223 2191 1816 1883 1328 1361 1410 2132 2379 2146 2096
0 0 0 0 0 0 0 0 0 0 0 0 0 0 0 0 0 164 557 790 880 864 908 1011 1032 990 964 807 745 1081 1711 1884 2040 2089 2161 2348 2318 2046 1513 1548 1487 1560 1602 1680
0 0 0 0 0 0 0 0 0 0 0 0 0 0 0 0 0 0 258 664 791 950 957 994 1116 1103 1219 1307 1228 1156 1652 1834 1936 1956 2059 2221 2284 2470 2368 2041 1494 1669 1451 1467
0 0 0 0 0 0 0 0 0 0 0 0 0 0 0 0 0 0 9 245 604 795 928 1056 1427 1546 1587 1455 1449 1259 1408 1780 1920 1911 1998 2091 2244 1790 1941 2123 1479 1408 1411 1566
0 0 0 0 0 0 0 0 0 0 0 0 0 0 0 0 0 0 0 0 101 443 736 876 1258 1482 1543 1627 1549 1478 1445 1673 1881 1877 1959 2019 2094 2030 1928 2187 2214 1532 2075 1541
0 0 0 0 0 0 0 0 0 0 0 0 0 0 0 0 0 0 0 0 0 0 217 594 995 1229 1321 1294 1632 1470 1464 1677 1819 1897 1929 1867 1929 2010 2058 2182 2211 2130 2058 1880
0 0 0 0 0 0 0 0 0 0 0 0 0 0 0 0 0 0 0 0 0 7 7 132 566 996 1244 1087 1222 1419 1425 1701 1930 1995 2027 1971 1934 1945 2030 2096 2240 2287 2214 2196
0 0 0 0 0 0 0 0 0 0 0 0 0 0 0 0 0 0 0 0 0 22 86 77 144 356 687 1218 1099 1288 1348 1494 1759 1929 2093 2076 2119 2103 2089 2135 2211 2342 2374 2153
0 0 0 0 0 0 0 0 0 0 0 0 0 0 0 0 0 0 0 0 0 0 19 75 51 128 509 821 1170 1180 1165 1257 1343 1794 1945 2113 2201 2245 2209 2209 2286 2374 2404 2412
0 0 0 0 0 0 0 0 0 0 0 0 0 0 0 0 0 0 0 0 0 0 1 65 108 573 581 763 1007 1073 1213 1196 1326 1513 1818 2091 2253 2276 2294 2330 2401 2406 2454 2436
0 0 0 0 0 0 0 0 0 0 0 0 0 0 0 0 0 0 0 0 0 0 0 0 2 662 913 893 1035 1075 1084 1404 1502 1774 1741 2058 2327 2394 2447 2453 2452 2448 2486 2382
0 0 0 0 0 0 0 0 0 0 0 0 0 0 0 0 0 0 0 0 0 0 0 0 0 171 446 849 1122 1090 1158 1334 1590 1878 1873 1954 2312 2512 2518 2554 2567 2541 2497 2482
0 0 0 0 0 0 0 0 0 0 0 0 0 0 0 0 0 0 0 0 0 0 0 0 0 81 554 632 1108 1133 1260 1411 1656 1570 2019 2198 2280 2447 2512 2537 2602 2553 2534 2494
0 0 0 0 0 0 0 0 0 0 0 0 0 0 0 0 0 0 0 0 0 0 0 0 0 0 774 337 360 1010 1139 1584 1754 1956 2189 2325 2387 2423 2497 2462 2555 2678 2644 2576
0 0 0 0 0 0 0 0 0 0 0 0 0 0 0 0 0 0 0 0 0 0 0 0 0 0 333 598 1083 1398 1434 1685 1867 1983 2202 2366 2442 2456 2578 2615 2592 2623 2708 2768
0 0 0 0 0 0 0 0 0 0 0 0 0 2 0 0 0 0 0 0 0 0 0 0 0 0 29 182 279 1276 1292 1672 2060 2170 2248 2364 2652 2708 2754 2807 2891 2820 2738 2723
0 0 0 0 0 0 0 0 65 10 0 0 0 0 68 88 0 0 0 10 215 316 0 0 10 394 510 658 486 1517 1643 1986 1864 2024 2314 2825 2867 2910 2984 3082 3100 3120 3081 2828
0 0 0 0 0 0 0 0 0 91 62 38 25 0 0 56 256 0 375 1036 1589 1496 604 396 1133 1439 1310 987 1458 1582 1877 1882 2134 2345 2680 3179 3198 2880 2904 3362 3412 3380 3176 3034
0 0 0 0 0 0 0 0 11 117 87 65 26 57 47 82 356 311 1005 1076 933 595 690 1563 1479 1017 1093 1472 1890 2047 2042 1885 2159 2500 3096 3273 3306 3489 3488 3539 3519 3481 3333 2906
52 75 27 0 0 0 0 0 20 82 60 42 32 114 245 232 218 566 513 772 697 499 346 236 219 256 441 523 656 947 1167 2235 2314 2467 2908 3196 3294 3646 3767 3352 3420 3449 3247 2871
27 3 18 41 4 0 0 0 25 95 29 68 71 244 529 393 145 480 703 730 697 639 552 431 322 399 284 335 285 126 137 218 511 1564 2353 2344 2698 3067 3581 3806 3718 3601 3603 3224
0 2 18 0 24 30 0 25 100 93 133 76 46 332 766 715 779 909 853 609 317 366 380 605 818 792 482 89 91 114 179 153 212 344 426 803 1440 2041 2576 3253 3524 2917 2967 2882

GFSCGP_con_mucape_024.txt.gz
CAPE
0 0 0 0 0 0 0 0 0 0 0 0 0 0 0 97 574 634 1179 1289 1180 1083 910 832 933 989 1054 1213 1563 1645 1651 1893 1901 1626 1448 1055 674 705 625 587 1027 1679 2125 2431
0 0 0 0 0 0 0 0 0 0 0 0 0 0 0 26 491 634 1044 1239 1267 1196 1012 960 996 991 894 1225 1549 1873 1807 2099 2229 1739 1697 981 753 556 688 804 1310 1920 2290 2743
0 0 0 0 0 0 0 0 0 0 0 0 1 0 0 0 15 282 680 1071 1156 1207 1149 1054 1011 993 900 1174 1573 1828 2150 2084 2112 2058 1380 1117 936 900 919 1145 1585 1957 2406 2553
0 0 0 0 0 0 0 0 0 0 0 0 0 1 29 7 11 38 319 774 1049 1196 1244 1175 1015 962 931 1152 1471 1853 2147 2352 2247 2403 1982 2443 1285 1253 1193 1655 1290 1631 2372 2335
0 0 0 0 0 0 0 0 0 0 0 0 0 0 0 0 0 0 75 360 887 1056 1264 1319 1203 945 839 1101 1349 1722 2381 3056 3062 2482 2717 1946 2139 1498 1429 1333 2434 3056 2710 2546
0 0 0 0 0 0 0 0 0 0 0 0 0 0 0 0 0 0 95 404 830 1012 1183 1359 1395 1061 907 1076 1425 1672 2841 3852 3312 2894 2448 3445 3447 2610 1764 2079 1585 1696 1855 2047
0 0 0 0 0 0 0 0 0 0 0 0 0 0 0 0 0 0 0 30 759 1025 1169 1272 1512 1443 1088 1184 1409 1694 2632 3385 3019 2802 2768 2900 2986 3096 3304 2674 2051 2443 1518 1459
0 0 0 0 0 0 0 0 0 0 0 0 0 0 0 0 0 0 0 0 246 961 1170 1193 1482 1644 1561 1326 1833 1845 2613 3052 2903 2823 3576 3768 3690 2379 2392 2902 2187 2017 1591 1683
0 0 0 0 0 0 0 0 0 0 0 0 0 0 0 0 0 0 0 0 0 670 1120 1273 1270 1556 1746 1793 2305 2678 3055 3436 3036 2552 3487 3820 3675 3483 2524 3390 3203 2314 3012 1802
0 0 0 0 0 0 0 0 0 0 0 0 0 0 0 0 0 0 0 0 0 167 869 1087 1279 1376 1662 1848 1925 2252 2759 3295 3408 2986 3095 2907 3199 3653 3620 3761 3583 3526 2925 2876
0 0 0 0 0 0 0 0 0 0 0 0 0 0 0 0 0 0 0 0 0 33 265 722 973 1199 1342 1658 1986 2085 2261 2813 2683 3190 3390 3328 3078 3017 3152 3246 3779 3880 3181 3529
0 0 0 0 0 0 0 0 0 0 0 0 0 0 0 0 0 0 0 0 0 0 39 96 239 673 1151 1460 1745 2016 2152 2155 2492 2875 3552 3554 3562 3387 3061 3535 3561 3894 3768 3678
0 0 0 0 0 0 0 0 0 0 0 0 0 0 0 0 0 0 0 0 0 0 46 150 121 242 763 1213 1638 1584 1847 1968 1982 2772 2535 2750 3091 3176 3444 3747 3489 3773 3924 3946
0 0 0 0 0 0 0 0 0 0 0 0 0 0 0 0 0 0 0 0 0 0 0 0 31 140 461 1136 2027 2420 1570 1658 1757 1891 2274 3099 3525 3497 3551 3727 3761 3828 3998 4041
0 0 0 0 0 0 0 0 0 0 0 0 0 0 0 0 0 0 0 0 0 0 0 0 47 400 966 1112 1816 2448 1913 1976 1845 2559 2154 3165 3581 3817 3829 3836 3937 3869 4042 3965
0 0 0 0 0 0 0 0 0 0 0 0 0 0 0 0 0 0 0 0 0 0 0 0 0 57 349 914 1355 1446 2260 1893 2122 2885 2826 3153 3729 3999 3985 4071 4112 4102 4058 4102
0 0 0 0 0 0 0 0 0 0 0 0 0 0 0 0 0 0 0 0 0 0 0 0 0 0 58 136 857 1315 1720 1815 2554 2907 3275 3509 3859 3969 4129 4059 4184 4147 4154 4156
0 0 0 0 0 0 0 0 0 0 0 0 0 0 0 0 0 0 0 0 0 0 0 0 0 0 0 3 2 927 1388 2597 2791 3275 3401 3628 3560 3827 3815 4179 4179 4206 4134 4016
0 0 0 0 0 0 0 0 0 0 0 0 0 0 0 0 0 0 0 0 0 0 0 0 0 0 77 0 46 386 1449 1830 2207 3311 3425 3568 3482 3524 3769 4153 4213 4189 4073 4095
0 0 0 0 0 0 0 0 0 0 0 0 0 0 0 35 0 0 0 0 0 0 0 0 0 0 0 15 70 627 1188 1661 2424 3127 2921 3575 3826 3919 3879 4046 4280 4297 4238 3987
0 0 0 0 0 0 0 0 41 0 94 28 5 1 87 299 180 511 544 217 6 1 16 15 0 0 41 390 420 619 1310 1792 2263 2410 2453 3307 3898 4107 4100 4291 4390 4181 4078 3638
0 0 0 0 0 0 0 0 0 53 63 22 22 4 36 271 562 627 703 886 262 83 325 797 6 78 774 1443 1508 1402 2811 2191 2583 2836 2733 3625 4005 3385 3028 4475 4524 4221 4140 4221
0 0 0 0 0 0 0 0 0 0 0 0 0 0 0 1 320 794 1200 822 651 855 1283 1488 799 1623 1966 2277 2369 2469 2454 2427 2547 2759 3175 3162 3370 3398 3921 4378 4243 3663 4337 3465
71 52 0 0 0 0 0 0 0 0 0 0 0 0 0 0 188 923 1193 1082 1152 808 891 1103 1580 1601 2071 2834 3096 3317 3097 2920 3072 3267 3406 3425 3596 3582 3511 3290 3419 3453 3379 3552
70 67 19 0 36 19 12 0 0 0 9 1 0 2 1 4 28 993 1077 833 550 353 506 998 1128 1196 1295 1265 1139 1061 1198 1538 2956 3161 3181 3408 3402 3520 3571 3936 3400 3350 3883 3198
9 9 10 0 22 31 34 22 9 21 3 2 2 0 60 29 213 277 111 351 514 729 1018 1183 1146 1125 865 902 1185 1481 1474 1569 1359 1152 1041 1178 1624 1939 2663 2889 3468 2831 2695 2873

GFSCGP_con_mucape_027.txt.gz
CAPE
0 0 0 0 0 0 0 0 0 24 69 40 37 81 85 119 288 397 958 1166 1151 952 697 684 775 786 837 1170 1649 2330 2533 3426 2527 1956 1637 1429 998 961 500 559 898 1225 1547 2115
0 0 0 0 0 0 0 0 0 0 9 40 29 29 61 74 154 299 662 1060 1190 1126 882 677 756 771 847 1096 1997 3020 3169 3718 3232 2273 2411 1664 1663 582 550 541 1689 1412 1883 2383
0 0 0 0 0 0 0 0 0 0 3 7 13 29 33 50 94 310 565 990 1041 1163 1153 906 811 808 823 1199 2134 2952 3508 3665 3356 3240 2642 2471 1805 1540 803 908 827 1549 1978 2260
0 0 0 0 0 0 0 0 0 0 3 12 0 19 34 31 52 158 338 809 1045 1091 1221 1207 904 858 849 1306 1482 2961 3540 3698 3485 3698 2328 2516 1208 826 654 953 934 1509 2475 2165
0 0 0 0 0 0 0 0 0 0 0 1 3 19 67 29 29 41 55 301 925 904 1160 1259 1170 881 817 983 1174 2111 3702 3812 3571 3536 3381 2177 1998 782 825 890 2418 2331 3488 2655
0 0 0 0 0 0 0 0 0 0 0 0 0 0 10 57 64 71 59 69 322 626 965 1264 1326 974 790 759 984 1939 3641 4070 4014 3917 3502 3968 2677 2034 1250 1554 1524 1418 1400 2350
0 0 0 0 0 0 0 0 0 0 0 0 0 0 0 9 16 37 31 46 102 289 825 1208 1419 1184 988 1217 1524 2085 3584 4165 4197 4113 3597 3489 3770 3245 4213 3803 1492 1797 1296 1173
0 0 0 0 0 0 0 0 0 0 0 0 0 0 0 0 3 15 37 48 167 315 796 1151 1404 1455 1453 1493 2021 2284 3354 4154 4257 4066 4068 3850 4159 2668 2298 2899 1785 1554 1263 1324
0 0 0 0 0 0 0 0 0 0 0 0 0 0 0 0 0 0 0 4 44 249 613 1135 1348 1564 1805 1567 2275 2657 3347 3991 4148 3889 4147 4220 4072 3798 2812 3075 3540 2602 2878 1622
0 0 0 0 0 0 0 0 0 0 0 0 0 0 0 0 0 0 0 0 0 51 512 1029 1262 1548 2000 1569 1980 2636 3175 3902 4030 3846 4014 4042 4203 4227 3912 4062 4191 3164 3371 3768
0 0 0 0 0 0 0 0 0 0 0 0 0 0 0 0 0 0 0 0 0 0 331 935 1261 1418 1742 1770 1674 2103 2863 3658 3994 3889 3921 3903 3963 3977 4178 4005 4245 4148 4237 4479
0 0 0 0 0 0 0 0 0 0 0 0 0 0 0 0 0 0 0 0 0 0 150 776 1036 1166 1293 1694 1900 2032 2266 2423 3703 3735 4051 3968 4009 3926 4012 4114 4002 4316 4344 4300
1 0 0 1 0 0 0 0 0 0 0 0 0 0 0 0 0 0 0 0 0 0 56 311 800 965 1114 1326 2170 2021 2511 2221 2244 3341 3507 4100 4056 4042 3877 4092 4127 4230 4362 4408
0 0 0 0 0 0 0 0 0 0 0 0 0 0 0 0 0 0 0 0 0 2 32 132 156 187 717 1426 2395 2879 2280 2298 2352 2555 2825 3585 4100 4009 4076 4126 4294 4255 4414 4425
0 0 0 0 4 0 0 0 0 0 0 0 0 0 0 0 0 0 0 0 0 0 0 0 18 180 611 1795 2852 3022 2312 2731 2641 3274 3276 3466 4075 4280 4353 4339 4309 4348 4407 4411
0 0 0 0 0 0 0 0 0 0 0 0 0 0 0 0 0 0 0 0 0 0 0 0 0 0 476 848 2085 2558 3291 2740 2674 3536 3382 3734 4110 4402 4489 4520 4526 4632 4496 4550
0 0 21 5 0 0 0 0 0 0 0 0 0 0 0 0 0 0 0 0 0 0 0 0 0 0 47 443 810 1344 2903 3011 3016 3278 3948 3724 4198 4337 4558 4674 4698 4612 4628 4631
0 0 0 0 5 0 0 0 0 0 0 0 0 0 0 0 0 0 0 0 0 0 0 0 0 0 0 0 0 1042 1052 3411 3665 3845 3718 4127 4063 4403 4575 4672 4674 4719 4655 4594
0 0 0 0 0 0 0 0 0 0 0 0 0 0 0 0 0 0 0 0 0 0 0 0 0 0 49 0 0 0 962 2517 3614 3745 4143 3918 4196 4402 4563 4605 4630 4678 4648 4635
0 0 0 0 0 0 12 0 0 0 0 0 0 0 0 0 0 18 425 384 112 23 11 10 0 0 0 8 0 0 120 1393 3443 3843 4067 4257 4447 4460 4573 4618 4731 4720 4705 4654
0 0 0 0 0 0 19 29 12 0 312 180 11 7 11 25 298 674 694 791 703 710 583 258 347 348 84 67 46 978 1129 1539 2618 3011 3685 4483 4609 4724 4678 4693 4812 4855 4804 4512
0 0 0 0 0 0 0 0 55 26 84 36 25 21 10 49 144 228 405 863 1156 1034 661 102 352 828 417 230 789 2248 2740 2981 3726 3900 4010 4497 4657 4190 4002 4873 4854 4902 4877 4810
1 10 0 0 0 9 0 1 1 0 55 31 1 3 0 0 0 1 259 1114 1453 1149 1263 1216 1330 1113 1229 2193 2362 2572 4149 3558 4047 4421 4652 4712 4733 4641 4632 4854 4919 4471 4743 4000
66 37 7 0 0 0 0 0 0 0 0 0 0 0 0 0 0 6 369 1503 1467 1383 1379 1330 1707 1942 2432 3376 3110 3281 3674 3198 3057 3641 4194 4268 4311 4509 4511 3660 3951 3761 3608 3680
76 53 33 6 0 1 2 2 0 0 0 0 0 1 0 0 0 85 482 1747 1521 1278 1076 1662 1865 2230 2264 2304 2221 2200 2349 3354 3575 3778 3775 3926 3697 3899 4317 4346 3437 3536 4096 3331
81 73 13 2 41 30 5 1 0 0 0 0 0 0 0 0 0 113 403 1089 1566 1481 1696 1943 2052 1762 1633 1876 1951 2027 2053 2097 2215 3133 3449 3235 3273 3604 3648 3602 3990 3063 2919 3016

GFSCGP_con_mucape_030.txt.gz
CAPE
0 0 0 0 0 0 0 1 0 1 10 61 12 62 30 61 125 340 675 802 512 618 654 941 799 788 1021 1376 1642 1648 2064 2921 2106 2065 1848 1851 1245 1628 1525 1929 2589 2832 2760 3213
0 0 0 0 0 0 0 0 0 0 6 14 41 10 38 106 58 143 449 413 786 491 620 893 894 775 851 1298 1843 1904 2155 2920 2597 2211 2144 1803 1933 1637 1385 1536 2606 2480 2444 3022
0 0 0 0 0 0 0 0 0 0 0 15 13 22 41 75 99 43 401 374 706 796 696 807 925 848 795 1435 2027 2399 2510 3208 2596 2648 2774 2801 2937 2882 1444 1487 2124 2098 2676 2789
0 0 0 0 0 0 0 0 0 0 7 8 8 24 68 38 34 37 59 322 386 951 936 816 965 936 957 1374 2054 2719 2919 3166 2831 3112 2531 2601 1677 1251 1433 1429 1520 1661 2189 2954
0 0 0 0 0 0 0 0 0 0 0 2 9 19 19 65 42 46 149 408 502 939 1004 946 898 1000 1050 1261 2051 2739 3034 3185 3190 2584 3257 2409 1942 1633 1236 1542 2446 2204 2525 2705
0 0 0 0 0 0 0 0 0 0 0 0 0 6 14 28 81 57 87 111 709 578 1138 1297 1067 1109 1061 1349 1835 2528 3090 3048 3173 3077 2580 3223 2204 1958 1344 1391 1592 2249 2579 2634
0 0 0 0 0 0 0 0 0 0 0 0 0 0 0 9 82 33 50 62 309 881 1131 1551 1443 1253 1152 1355 1766 2094 3133 3036 2915 3148 2468 2668 2997 1998 3057 2772 1765 1971 1515 2345
0 0 0 0 0 0 0 0 0 0 0 0 0 0 0 0 5 24 62 52 158 473 869 1402 1654 1490 1279 1286 1558 1959 3001 3088 3063 2957 3079 2506 3456 2323 1688 3251 1727 1872 1806 1644
0 0 0 0 0 0 0 0 0 0 0 0 0 0 0 0 0 0 25 128 118 218 467 1184 1704 1709 1497 1292 1529 1895 2714 3133 3287 2884 3274 3055 2534 3221 1824 2213 2871 2485 2409 2316
0 0 0 0 0 0 0 0 0 0 0 0 0 0 0 0 0 0 6 17 86 225 457 1110 1579 1878 1631 1329 1516 1746 2485 3122 3408 3403 3170 3258 2722 2968 2943 2048 2846 2331 2873 2544
0 0 0 0 0 0 0 0 0 0 0 0 0 0 0 0 0 0 0 0 53 391 588 943 1632 1891 1910 1504 1571 1709 1972 3022 3460 3499 3417 3341 3443 2777 2737 2882 2612 3500 2564 4129
0 0 0 0 0 0 0 0 0 0 0 0 0 13 0 13 0 0 0 0 24 188 796 886 1334 1817 2105 1843 1646 1802 2064 2646 3305 3699 3697 3477 3495 3648 3254 2546 2862 3135 3921 2935
1 0 0 0 4 0 0 0 0 0 0 0 0 0 0 1 21 17 0 109 157 473 549 873 1324 1587 1990 2103 1970 1949 2081 2257 3170 3663 3742 3678 3585 3489 3603 3535 2659 3309 3198 3931
0 0 0 0 0 0 0 0 0 0 0 0 0 0 0 0 0 0 69 114 118 655 606 1029 1216 1636 1847 2188 2375 2268 2138 2322 2542 3430 3690 3659 3757 3562 3525 3484 3570 2961 3502 3276
0 0 0 0 0 7 0 0 0 0 0 0 0 0 0 0 2 0 6 215 309 592 842 1207 1264 1670 1931 2291 2535 2677 2484 2444 2505 2620 3393 3519 3624 3915 3700 3645 3678 3786 3394 3481
0 0 0 6 1 1 4 0 0 0 0 0 0 2 0 0 26 5 33 22 38 71 117 238 494 661 1453 2926 3005 2762 2776 2913 2815 2856 2923 3217 3521 3713 4075 3933 3857 3941 3884 3771
0 0 0 0 1 0 2 2 0 0 0 0 0 11 8 4 22 2 0 0 0 0 0 3 99 588 1014 1441 3500 3232 3052 3090 3470 3296 3377 3355 3583 3736 3932 4094 4111 3970 4049 4023
2 0 0 0 33 6 0 3 1 0 0 0 0 43 200 103 51 0 0 0 0 0 0 68 0 13 496 162 478 1999 3242 3699 3480 4006 3837 4189 4077 3856 4021 4085 4181 4212 4180 4216
0 0 0 0 30 0 9 0 0 0 1 5 4 12 1 0 0 0 0 0 0 0 14 35 0 0 882 435 687 1139 1448 3423 3518 3292 3752 3689 4328 4192 4157 4236 4245 4299 4357 4288
0 0 0 0 45 4 0 0 0 0 1 402 40 0 0 0 0 641 897 763 757 749 991 1329 971 858 455 1589 492 1504 1564 2778 3301 3327 3498 3976 3759 4187 4207 4309 4399 4413 4467 4442
0 0 0 0 0 0 0 0 0 10 121 85 97 113 89 268 839 632 223 446 841 1165 1278 1301 1348 1315 2392 2410 1692 2935 2489 2116 3228 3455 3777 4181 4460 4157 4249 4444 4552 4550 4572 4530
0 0 0 0 0 0 0 0 26 62 83 8 0 0 0 0 0 55 64 291 902 1462 1347 982 1414 1474 2031 1850 2288 2773 3552 4227 4239 4593 4149 4479 4705 4231 4280 4578 4752 4632 4558 4545
0 24 0 0 1 62 0 0 0 0 87 55 0 0 0 0 0 0 277 594 1697 2084 1896 1679 2169 2780 3437 3167 4420 4355 4951 4848 4729 5226 4998 4712 4951 4628 4407 4710 4640 4584 4624 4557
0 3 0 0 0 0 0 0 0 0 0 66 12 0 0 0 0 0 216 475 1434 2315 2031 1510 2116 2816 4430 4845 4804 4775 4964 4386 4626 5171 5377 5159 5109 4847 4702 4555 4590 4536 4459 4452
2 0 2 0 0 0 0 0 0 0 0 27 44 16 0 0 0 0 7 385 930 1769 2463 3102 3361 2996 2888 2878 3368 3540 3488 4160 4356 4562 4849 5083 4746 4748 4802 4663 3992 4532 4386 4025
0 0 0 1 20 49 18 0 0 0 0 0 12 4 0 0 0 0 99 552 733 1106 1526 2364 2724 2215 2400 2309 2241 2574 2555 3146 4330 4902 4560 4356 4096 4431 4137 4403 4407 3799 3230 3189

GFSCGP_con_mucape_033.txt.gz
CAPE
0 0 0 0 0 0 0 0 0 0 0 43 34 16 194 204 369 516 313 364 488 447 387 281 414 301 311 468 224 424 520 423 403 903 1016 712 452 760 789 457 781 1014 1429 1663
0 0 0 0 0 0 0 0 0 0 0 30 40 22 218 248 269 123 64 156 362 448 421 404 258 264 250 536 540 378 836 648 408 854 457 1013 1024 741 701 327 1245 1338 1624 1885
0 0 0 0 0 0 0 0 0 0 0 5 14 31 136 235 133 69 92 196 348 386 372 412 293 293 361 648 480 735 637 924 578 949 857 940 1085 922 818 473 1022 1592 1576 1892
0 0 0 0 0 0 0 0 0 0 0 0 0 23 33 132 85 188 297 433 323 240 291 389 287 307 441 743 605 707 810 1651 1047 1256 1188 967 717 991 971 446 478 1392 1218 1655
0 0 0 0 0 0 0 0 0 0 0 0 0 2 0 35 96 248 493 368 244 306 375 335 350 402 406 800 834 664 964 1702 1361 1379 1323 1348 1146 1150 819 594 599 914 1219 1754
0 0 0 0 0 0 0 0 0 0 0 0 0 0 0 4 26 78 226 374 342 594 313 321 457 406 365 767 1151 1211 1121 1795 1428 1473 1609 1479 1381 953 953 690 507 1110 1073 1262
0 0 0 0 0 0 0 0 0 0 0 0 0 0 0 0 22 63 184 318 510 370 169 579 513 421 450 917 1255 1621 1624 1868 1712 1303 1398 1990 1369 1214 824 662 751 1249 1570 1368
0 0 0 0 0 0 0 0 0 0 0 0 0 0 0 0 0 23 94 268 378 392 657 643 453 558 579 630 1213 1946 1796 1785 2084 1824 1262 1111 2180 1420 847 1455 731 1139 1385 1559
0 0 0 0 0 0 0 0 0 0 0 0 0 0 0 0 0 0 3 76 224 757 896 552 523 677 702 707 1109 1621 1966 1751 1949 2017 1767 1198 1264 2357 1254 572 1373 1279 1337 1095
0 0 0 0 0 0 0 0 0 0 0 0 0 0 0 0 0 0 0 1 103 860 809 832 723 793 791 793 1009 1235 2095 1868 1859 1790 1959 1729 1269 1465 2188 1116 659 1937 979 1274
0 0 0 0 0 0 0 0 0 0 0 0 0 0 0 0 0 0 0 0 0 223 910 1096 896 841 893 880 991 1200 1694 2067 2034 1927 1780 1962 1620 1265 1891 2071 1064 1249 1829 1588
0 0 0 0 0 0 0 0 0 0 0 0 0 0 0 0 0 0 0 0 6 55 844 1317 1182 1084 985 952 943 1137 1382 2115 2172 2216 1908 2018 2023 1796 1335 2055 2031 639 1799 1716
0 0 0 0 0 0 0 0 0 0 0 0 0 0 0 0 0 0 0 0 0 65 872 1269 1384 1310 1181 1029 969 979 1261 1865 2229 2379 2433 2157 2187 2305 2005 1587 1681 2337 1115 2196
0 0 0 0 0 0 0 0 0 0 0 0 0 0 0 0 0 0 0 4 0 363 718 1125 1348 1483 1385 1166 1069 1033 1065 1460 2230 2452 2594 2672 2509 2505 2548 2225 1801 1485 2264 1927
0 0 0 0 0 0 6 0 0 0 0 0 0 0 0 1 6 17 25 24 96 179 572 1098 1307 1522 1579 1368 1214 1157 1126 1284 1583 2465 2716 2739 2807 2723 2684 2637 2687 2366 1550 2174
0 0 0 0 0 4 4 0 0 0 0 0 0 0 0 2 8 0 0 0 48 271 671 918 1174 1499 1649 1656 1433 1305 1247 1371 1503 2183 2598 2864 2903 2868 2808 2832 2682 2875 2819 2167
0 0 0 0 12 26 1 0 0 0 0 0 0 0 4 14 1 0 0 0 37 59 176 433 692 1255 1617 1734 1791 1657 1590 1510 1655 1773 2303 2726 2898 2938 2975 2907 2928 2803 2840 2929
1 0 0 8 23 2 0 5 6 0 0 0 0 9 0 48 184 32 0 0 5 58 106 270 315 572 947 1590 2041 2002 1967 1969 1797 1881 2000 2171 2839 3030 3034 3160 3006 3094 2989 3072
0 0 0 33 18 0 3 4 8 4 13 19 325 196 101 590 591 432 597 687 647 502 504 531 357 575 296 429 1021 2385 2440 2462 2547 2192 2346 2315 2709 2890 3065 3120 3365 3291 3313 3246
0 0 0 7 8 13 42 0 0 0 19 66 390 354 92 476 411 275 370 577 769 904 911 707 542 277 972 702 407 2028 2668 2581 2643 2897 3125 3275 2837 3071 3052 3201 3294 3429 3497 3513
0 0 3 1 9 11 22 0 0 7 14 80 408 328 414 178 70 79 268 666 1310 1290 1134 658 620 484 556 947 325 365 1195 2278 2792 2627 2562 3184 3606 3510 3616 3378 3403 3584 3667 3732
0 0 12 10 7 35 29 1 5 0 1 43 195 428 176 39 29 145 244 936 1575 1846 1491 1293 1184 1430 1054 715 476 808 2006 2211 2296 2686 2861 3098 3334 3289 3652 3850 3846 3904 4002 4017
0 0 4 21 19 0 0 0 0 0 8 32 40 98 40 1 19 146 198 1275 1276 1358 1780 2152 2360 2383 4001 3514 3410 2813 3308 3468 3086 3764 3213 3274 3479 3918 3476 3867 4257 4182 4154 4144
1 0 0 1 0 0 0 0 0 0 16 35 0 0 0 0 0 5 147 1292 1137 1215 1321 1569 2034 2690 3040 3607 3334 3203 3410 3456 3819 3190 4562 3956 4244 4296 3890 4220 4188 4440 4386 4243
0 0 0 0 0 0 0 0 0 0 0 37 0 0 0 0 0 0 0 55 875 1019 697 864 1431 1920 2264 2422 2717 3272 3433 3507 3436 3832 4672 4483 4476 4321 4330 4027 4301 4082 4014 4020
0 0 0 0 0 0 0 0 0 0 0 17 0 0 0 0 0 0 0 20 178 163 78 137 508 1606 1891 1740 1682 1393 1941 2866 3283 3698 3911 4036 4088 4257 4295 4074 3716 3529 4070 4014

GFSCGP_con_mucape_036.txt.gz
CAPE
0 0 0 0 0 0 0 0 0 0 0 3 18 133 484 571 364 440 386 376 377 382 291 281 180 149 92 116 184 69 31 198 486 489 364 245 176 86 324 645 457 494 815 1151
0 0 0 0 0 0 0 0 0 0 0 0 56 109 444 529 365 432 449 419 434 495 393 325 278 198 160 97 210 133 82 61 440 278 373 194 111 44 176 548 427 325 833 1128
0 0 0 0 0 0 0 0 0 0 0 17 40 107 133 281 396 421 450 376 433 443 437 379 327 261 178 121 189 217 116 0 187 317 397 616 417 279 292 512 721 480 949 1283
0 0 0 0 0 0 0 0 0 0 0 0 0 39 109 175 225 160 231 113 299 401 352 363 315 369 318 197 202 196 179 103 129 419 220 426 447 631 562 425 401 798 1054 1298
0 0 0 0 0 0 0 0 0 0 0 0 0 0 91 128 76 36 66 57 101 303 368 284 271 247 363 241 269 207 440 287 268 562 295 285 405 695 887 711 509 789 995 1343
0 0 0 0 0 0 0 0 0 0 0 0 0 0 0 56 38 112 142 70 56 222 378 332 293 237 194 211 226 262 686 424 346 652 535 413 363 388 561 835 723 467 909 1065
0 0 0 0 0 0 0 0 0 0 2 0 0 0 0 20 40 91 103 69 73 242 361 377 307 309 265 358 293 358 452 995 702 674 797 687 620 629 617 730 697 527 691 832
0 0 0 0 0 0 0 0 0 0 0 0 0 0 0 0 9 52 29 113 189 319 364 365 339 340 311 467 483 357 518 817 1026 913 832 881 859 762 679 837 781 485 741 682
0 0 0 0 0 0 0 0 0 0 0 0 0 0 0 0 0 0 22 109 330 289 270 204 337 356 311 477 680 572 524 627 1136 1025 1095 1177 1077 989 949 961 659 643 727 1013
0 0 0 0 4 0 0 0 0 0 0 0 0 0 0 0 0 0 0 116 418 460 353 329 462 415 346 513 747 862 815 720 1174 1205 1005 1004 1305 1534 1076 999 937 1135 902 982
0 0 0 0 3 0 0 0 0 0 0 0 0 0 0 0 0 0 1 26 328 522 468 485 364 456 465 473 733 1256 1196 1065 1325 1499 1433 1148 913 927 1817 1431 1058 717 1124 1383
2 0 0 0 0 0 0 0 0 0 0 0 0 0 0 0 0 0 0 131 181 262 443 626 529 485 541 541 749 1185 1599 1394 1389 1677 1685 1585 1379 987 929 1814 1811 1215 682 1071
3 0 0 0 0 0 6 0 0 0 0 0 0 0 0 0 0 0 0 0 46 192 354 585 713 562 620 630 729 1055 1598 1679 1559 1586 1608 1629 1629 1458 1110 1042 1729 1956 1508 980
0 0 0 0 0 0 0 0 0 0 0 0 0 0 0 0 0 0 0 0 0 156 729 783 856 748 711 725 806 921 1147 1846 1729 1720 1710 1568 1696 1743 1538 1242 1055 1714 2030 1595
0 0 0 0 0 0 0 0 0 0 0 0 0 0 0 0 0 0 0 0 0 491 793 800 899 808 801 865 895 959 1103 1524 1900 1924 1939 1847 1674 1861 1969 1841 1527 1200 1419 1933
0 0 0 0 0 0 0 0 0 0 0 0 0 0 0 0 3 5 0 0 0 486 946 1092 1055 1002 1047 1037 991 972 1062 1355 1878 2032 2076 2106 2139 1957 2060 2188 2187 1925 1557 1346
0 0 0 0 0 0 0 0 0 0 0 0 0 0 0 8 84 32 40 118 158 567 1055 1307 1298 1203 1260 1207 1141 1062 1022 1159 1797 2058 2125 2288 2303 2449 2342 2306 2362 2399 2294 2049
1 0 0 0 5 0 0 3 0 0 0 0 0 41 202 533 637 603 448 10 162 368 834 1189 1382 1391 1427 1341 1273 1167 1128 1166 1275 1722 2211 2332 2560 2553 2635 2617 2521 2526 2525 2659
0 0 0 0 11 0 2 5 0 0 0 0 11 355 509 432 413 813 850 717 279 187 518 962 1311 1430 1620 1672 1622 1473 1368 1375 1325 1402 1570 2373 2554 2836 2811 2764 2786 2732 2761 2663
2 0 0 21 15 0 4 20 16 0 0 120 289 513 261 63 355 867 1128 1251 1151 433 211 413 722 1054 1231 1442 1866 1868 1892 1764 1656 1625 1705 1747 2438 2692 2847 2887 2879 2946 2869 2863
48 0 9 24 22 7 14 37 6 48 3 191 383 280 95 127 266 945 1082 1196 1340 1487 1225 1578 2004 1322 770 1076 1116 1997 2076 2109 2019 1903 1800 1865 1955 2262 2676 2823 2951 2967 3096 2975
43 8 0 0 31 50 0 15 14 8 77 73 175 174 14 32 402 953 971 971 1130 1365 2138 3066 2771 2736 2686 1589 1314 2289 2366 2413 2321 2368 2454 2448 2546 2301 2498 2694 2831 2985 2988 3178
12 13 2 0 21 4 0 7 0 8 11 89 119 52 0 24 241 1038 1161 1133 1175 1201 1854 2700 2744 3024 2981 2616 2473 2560 2768 3001 2720 2384 2472 2537 2847 3139 3119 3034 2985 3002 3181 3184
0 0 8 0 1 10 0 0 0 0 82 23 29 22 0 41 58 679 1122 1238 1231 1190 1042 1742 1994 2191 2414 2645 2894 2700 2907 3042 3103 2931 2945 2907 2565 2831 3009 3245 3404 3432 3510 3617
0 0 0 0 0 0 0 1 0 0 1 9 0 0 0 1 102 89 878 1007 987 681 617 683 1629 1545 1782 1738 1795 2057 2183 2574 3160 3040 3755 4158 3558 3296 3275 3470 3681 3864 3881 3887
0 0 0 2 0 0 0 0 0 0 8 32 0 0 0 0 7 61 100 256 539 146 4 300 677 1159 1456 1482 1327 1099 1316 1623 1799 2752 3328 4037 4048 3843 3697 3768 3637 4086 4134 4181

GFSCGP_con_mucape_039.txt.gz
CAPE
0 0 0 0 0 0 0 0 0 10 23 4 13 12 423 381 367 259 206 168 120 94 122 169 175 89 61 90 5 0 0 16 172 130 107 270 348 244 551 580 565 433 998 1295
0 0 0 0 0 0 0 0 0 35 56 0 0 3 439 328 389 299 200 173 151 108 104 113 155 160 31 131 95 16 0 0 195 107 182 360 201 36 118 523 571 416 832 1103
0 0 0 0 0 0 0 0 0 23 38 10 2 43 14 336 323 319 261 183 142 118 114 110 81 100 114 30 56 46 0 0 119 137 168 205 72 25 54 215 495 421 431 787
0 0 0 0 0 0 0 0 0 0 73 18 14 33 353 321 288 312 368 258 217 165 140 170 197 106 95 0 0 30 0 0 19 194 189 124 37 32 3 17 351 417 444 794
0 0 0 0 0 0 0 0 0 0 77 49 2 0 47 361 288 317 356 378 361 298 225 234 247 239 185 75 3 0 14 20 35 81 79 51 8 0 58 92 243 447 530 788
0 0 0 0 0 0 0 0 0 0 55 28 4 0 0 2 284 343 379 367 371 393 366 333 282 274 312 173 98 25 23 88 83 109 20 2 26 70 327 409 339 411 618 706
0 0 0 0 0 0 0 0 0 0 20 0 0 0 0 0 17 194 300 291 241 278 354 349 268 294 304 354 221 173 87 75 142 122 37 4 28 48 195 456 499 541 500 718
0 0 0 0 0 0 0 0 0 0 0 0 0 0 0 0 3 47 109 128 129 129 118 285 331 318 292 336 324 276 196 106 160 65 124 76 79 26 64 201 482 667 654 582
0 0 0 0 0 0 0 0 0 0 0 0 0 0 0 0 0 0 51 60 47 104 113 189 347 375 322 308 295 318 296 225 214 126 228 250 178 201 197 226 201 299 673 649
0 0 0 0 0 0 0 0 0 0 0 0 0 0 0 0 0 0 37 45 46 65 100 123 264 348 383 337 287 269 235 307 344 283 326 409 420 416 436 424 418 372 694 697
0 0 0 0 0 0 0 0 0 0 0 0 0 0 0 0 0 0 0 2 71 65 105 136 255 361 369 374 306 270 257 247 479 538 501 544 639 648 614 657 606 548 631 648
0 0 0 0 0 0 2 0 13 0 0 0 0 0 0 0 0 0 0 0 20 123 194 218 221 350 371 355 360 424 298 311 394 696 644 699 838 984 1013 802 813 784 779 845
0 0 0 0 0 0 8 0 0 0 0 0 0 0 0 0 0 0 0 0 0 153 266 300 250 236 330 334 324 617 561 476 409 716 808 765 766 824 1027 1414 1247 1009 968 934
0 0 0 0 0 0 0 0 0 0 0 0 0 0 0 0 0 0 0 0 0 16 300 389 353 275 345 405 426 555 871 828 685 816 1027 1110 1104 1008 869 840 1221 1497 1430 1245
0 0 0 0 0 0 0 0 0 0 0 0 0 0 0 0 0 0 0 0 0 0 182 321 353 355 352 435 480 636 1002 1247 1083 1059 1263 1337 1381 1338 1239 1103 1046 1202 1457 1334
0 5 0 0 0 0 0 0 0 0 0 0 0 0 0 0 10 25 0 0 0 0 81 180 330 350 382 466 553 518 1002 1510 1469 1365 1349 1372 1365 1457 1477 1421 1326 1234 1201 1510
0 0 0 0 0 5 5 0 1 0 0 0 0 0 0 56 163 197 169 0 0 0 69 159 287 446 511 548 634 607 885 1310 1669 1601 1566 1539 1468 1418 1538 1615 1585 1514 1362 1256
0 0 0 0 0 18 1 0 0 0 0 0 0 14 117 418 527 419 495 407 0 0 59 316 495 619 647 626 730 737 936 1075 1631 1771 1801 1807 1812 1700 1604 1727 1886 1896 1779 1606
0 0 0 5 32 0 1 2 0 0 0 0 168 325 592 703 512 670 452 681 96 191 518 617 686 769 784 836 950 882 977 1152 1363 1747 1920 1988 2016 2036 2079 2020 1975 2107 2160 2172
0 10 11 40 48 12 5 9 0 2 0 38 408 456 352 375 417 602 829 1005 1227 1284 942 1079 1127 1089 1093 1136 1083 1066 1098 1140 1206 1573 1900 2049 2173 2246 2268 2395 2411 2308 2362 2371
4 27 57 83 45 10 21 27 54 74 0 54 279 329 361 331 413 827 1129 1703 1902 1914 1971 1614 1446 1421 1458 1507 1464 1401 1354 1338 1361 1282 1343 1745 2198 2315 2484 2498 2519 2593 2625 2644
14 49 84 101 30 23 29 17 32 2 14 37 126 286 346 563 962 959 1320 1820 2007 2023 1928 1780 1771 1728 1768 1680 1805 1862 1916 2204 1847 1815 1861 1841 1764 2266 2393 2657 2715 2731 2783 2820
4 18 75 78 58 16 29 49 45 42 16 10 103 343 371 588 732 782 996 1715 2094 2300 2430 2358 2249 2235 2232 2240 2344 2416 2676 2895 2125 2161 2197 2153 2157 2113 2080 2509 2608 2807 2860 2877
0 0 42 18 61 20 5 42 41 80 32 5 52 133 273 480 864 597 663 787 1449 1953 2182 2290 2202 2136 2144 2115 2103 2356 2767 2848 2750 2579 2527 2416 2437 2476 2447 2480 2598 2638 2727 2849
0 0 0 15 19 24 2 19 24 92 75 48 18 79 134 313 518 394 529 514 515 650 1340 1433 1510 1642 1663 1698 1736 1737 1821 2058 2825 2911 2904 3638 3234 2483 2679 2997 3093 3070 3087 3046
0 0 22 15 4 3 10 2 17 18 56 9 3 7 80 173 442 436 369 421 401 377 304 404 820 968 922 952 893 1172 1258 1233 1304 1848 2798 3229 3879 3580 3138 2847 2754 3240 3543 3565

GFSCGP_con_mucape_042.txt.gz
CAPE
0 0 0 0 0 0 0 0 0 9 21 0 25 58 444 334 273 175 157 35 0 11 19 70 96 95 92 136 31 0 0 0 50 57 0 0 0 65 234 267 376 330 501 968
0 0 0 0 0 0 0 0 0 0 42 15 3 13 383 366 279 215 210 117 28 20 29 62 94 106 105 85 59 13 0 0 18 0 0 0 40 168 307 461 477 433 542 1006
0 0 0 0 0 0 0 0 0 0 33 61 18 19 143 292 289 232 166 81 49 50 39 57 59 85 57 40 35 29 11 0 0 0 0 0 27 230 66 202 441 493 440 740
0 0 0 0 0 0 0 0 0 0 6 37 35 4 19 252 242 229 193 141 69 79 63 49 43 47 58 36 32 34 0 0 0 0 0 26 65 210 136 0 302 364 303 582
0 0 0 0 0 0 0 0 0 0 0 45 54 23 0 133 159 273 268 269 161 85 77 74 50 35 99 20 15 37 68 1 0 0 0 15 50 107 42 0 0 319 292 408
0 0 0 0 0 0 0 0 0 0 0 5 5 22 0 34 219 283 286 277 252 158 89 88 65 35 7 14 3 0 3 89 15 0 0 0 5 33 8 0 0 57 306 385
0 0 0 0 0 0 0 0 0 0 0 0 0 24 0 0 223 261 256 270 264 312 125 113 82 68 44 0 0 0 15 23 41 20 0 0 11 9 15 0 0 0 183 381
0 0 0 0 0 0 0 0 0 0 0 0 0 0 0 0 0 276 304 264 227 265 276 163 127 120 90 84 55 0 0 0 12 49 20 0 74 0 0 0 0 0 64 327
0 0 0 0 0 0 0 0 0 0 0 0 0 0 0 0 0 0 144 218 211 266 283 262 252 214 196 161 180 174 79 42 63 27 36 32 65 95 5 0 10 24 76 261
0 0 0 0 0 0 0 0 0 0 0 0 0 0 0 0 0 0 0 48 144 205 249 244 224 246 232 240 238 203 265 195 152 136 76 106 115 121 77 39 10 45 125 368
0 0 0 0 0 0 0 0 0 0 0 0 0 0 0 0 0 0 0 23 84 122 121 116 130 161 184 158 206 224 231 288 245 220 165 130 168 126 117 120 58 65 120 155
1 0 0 0 0 0 0 0 0 0 0 0 0 0 0 0 0 0 0 2 70 95 95 76 66 108 170 182 180 207 207 244 293 298 279 213 244 266 267 264 183 176 241 259
0 0 0 0 0 0 0 0 0 0 0 0 0 0 0 0 0 0 0 0 0 68 95 80 74 56 131 170 175 176 204 236 236 283 290 258 331 430 445 450 353 342 372 400
63 12 0 0 0 0 0 1 1 0 0 0 0 0 0 0 0 0 0 0 0 6 46 66 77 106 172 216 220 218 258 248 246 397 431 417 482 583 679 682 641 552 569 582
0 0 0 0 0 0 0 0 3 0 1 0 0 0 0 0 0 0 0 0 0 0 2 38 70 122 178 237 270 374 358 308 274 357 612 602 606 636 697 905 1136 868 770 728
24 0 0 0 0 0 0 0 0 0 0 0 0 0 0 0 0 0 0 1 0 0 0 7 88 160 172 211 318 388 578 520 428 405 671 758 773 749 710 633 684 1189 1122 1069
8 0 0 0 8 0 0 0 0 0 0 0 0 0 0 0 114 55 20 57 132 0 0 0 57 184 188 246 305 373 652 809 765 681 796 993 1069 1116 1050 931 778 779 1011 1252
2 0 0 0 18 0 0 0 0 0 0 0 0 0 83 25 358 271 133 71 238 191 0 0 91 199 199 273 349 343 723 1184 1148 1069 1100 1235 1295 1299 1308 1288 1192 1114 1099 1103
0 0 1 0 13 0 20 4 3 9 3 0 12 271 660 466 198 371 614 361 835 924 0 15 104 217 228 276 380 425 854 1386 1479 1447 1442 1454 1452 1371 1369 1462 1506 1458 1419 1359
0 0 8 37 56 5 1 3 1 0 4 5 60 328 425 261 161 362 1252 1005 746 837 638 14 120 270 363 415 457 575 822 1211 1599 1647 1669 1697 1693 1653 1563 1544 1599 1747 1829 1856
0 6 11 79 33 48 5 1 1 30 0 14 64 187 256 34 118 1140 1468 1183 1033 1182 1191 528 572 593 594 592 609 647 814 983 1148 1482 1761 1835 1901 1927 1943 1935 1913 1910 2053 2155
13 64 73 82 47 75 67 18 8 0 8 28 133 238 203 251 1112 1358 1531 1627 1338 1062 1020 1152 1116 998 908 884 878 879 870 914 969 1229 1610 1885 1995 2128 2201 2225 2322 2404 2364 2405
3 11 26 55 56 25 91 45 12 1 39 80 221 290 244 397 1011 1249 1728 1724 1859 1613 1672 1662 1432 1428 1432 1410 1438 1588 1940 2000 1309 1301 1390 1483 1926 2157 2374 2493 2512 2553 2623 2684
0 0 72 18 13 126 112 99 19 40 33 108 172 302 425 450 440 507 979 1521 2006 1743 1705 1657 1815 1892 1901 1845 2001 2218 2505 2217 1828 1816 1797 1826 1998 2051 2238 2426 2641 2771 2732 2740
0 0 0 5 28 79 96 88 52 74 114 148 167 299 336 470 371 267 417 754 1123 1413 1764 1609 1533 1511 1644 1895 2059 2178 2425 2586 2536 2768 2812 2275 2287 2315 2347 2340 2346 2446 2656 2776
0 0 0 86 36 52 56 34 72 62 65 172 223 323 360 343 392 274 228 335 368 702 1123 1174 1118 1102 1107 1107 1161 1276 1310 1406 1705 2424 2785 3362 3096 2479 2372 2424 2423 2552 2591 2645

GFSCGP_con_mucape_045.txt.gz
CAPE
0 0 0 0 0 0 0 0 0 72 84 84 116 126 522 623 389 116 91 99 3 0 0 27 95 188 404 482 421 425 449 683 518 385 364 248 79 193 512 828 1154 1343 1361 1638
0 0 0 0 0 0 0 0 0 35 67 59 66 99 137 630 598 423 87 84 100 1 1 35 121 151 281 471 440 458 429 681 684 428 674 234 468 639 911 1250 1399 1468 1423 1901
0 0 0 0 0 0 0 0 0 3 53 35 39 37 0 531 582 531 415 98 99 19 16 29 122 235 200 355 420 454 556 671 754 762 581 608 742 747 835 1147 1464 1489 1479 1864
0 0 0 0 0 0 0 0 0 0 16 44 33 8 14 38 605 582 528 447 230 112 12 16 113 223 213 267 303 600 632 633 681 930 794 1192 578 607 777 1004 1215 1565 1561 1638
0 0 0 0 0 0 0 0 0 0 0 0 0 1 6 83 177 493 611 552 462 310 142 92 95 206 196 240 219 196 684 975 1086 1172 1192 936 1017 657 858 806 1243 1728 1690 1629
0 0 0 0 0 0 0 0 0 0 0 0 0 0 0 0 131 421 555 602 591 451 366 281 184 206 219 213 225 208 648 933 1059 1009 1012 1513 1674 1231 810 944 814 958 1310 1431
0 0 0 0 0 0 0 0 0 0 0 0 0 0 0 0 15 148 441 620 624 569 465 396 296 256 306 528 378 489 591 720 811 957 1125 1245 1592 1797 1449 1265 835 957 748 1191
0 0 0 0 0 0 0 0 0 0 0 0 0 0 0 0 0 25 224 455 594 673 549 489 380 533 567 654 802 423 694 771 791 856 1183 1374 1575 779 757 1244 722 691 534 768
0 0 0 0 0 0 0 0 0 0 0 0 0 0 0 0 0 0 32 279 587 733 662 581 491 527 713 683 735 786 840 811 771 543 1077 1279 1408 1365 990 1538 1246 747 1192 600
0 0 0 0 0 0 0 0 0 0 0 0 0 0 0 0 0 0 0 88 406 624 768 691 640 606 748 633 686 748 773 864 867 760 882 936 1221 1322 1374 1376 1444 1406 903 991
0 0 0 0 0 0 0 0 0 0 0 0 0 0 0 0 0 0 0 0 107 471 703 765 902 910 777 553 685 772 667 908 835 847 882 1011 981 1012 1143 994 1094 1594 1159 1319
0 0 0 0 0 0 0 0 0 43 0 0 0 0 0 0 0 0 0 0 5 189 495 755 816 799 818 999 892 766 840 634 821 869 968 975 964 1021 875 1264 997 1387 1669 1389
0 0 0 0 0 0 0 0 0 0 0 0 0 0 0 0 0 0 0 0 12 135 307 510 468 750 1095 1075 1097 987 915 651 582 922 636 851 986 909 1311 1427 1385 1450 1605 1718
3 0 0 0 0 0 0 0 0 0 1 0 0 0 0 0 0 0 0 0 0 12 182 333 222 582 925 1056 1197 1207 1018 764 770 738 835 1135 1267 1343 1304 1647 1783 1341 1857 1816
30 0 0 0 0 0 0 0 0 0 0 10 1 5 0 0 0 0 0 0 0 0 3 264 352 540 874 1188 1149 1237 1160 1205 1034 1297 1210 1335 1479 1609 1765 1940 2011 1762 1741 1976
17 0 10 0 0 0 0 0 0 0 0 0 0 0 0 0 0 0 0 4 24 50 1 26 296 654 781 1092 1143 1144 1235 1300 1359 1509 1498 1623 1737 1855 1941 2108 2182 2040 1971 1953
81 35 23 0 12 0 0 0 0 0 0 0 0 0 0 0 244 160 124 132 141 209 446 250 3 682 910 1092 1292 1218 1327 1417 1472 1594 1780 1939 2022 2040 2139 2246 2401 2534 2298 2061
64 55 60 0 23 0 3 15 0 6 0 0 0 0 0 77 503 315 24 6 30 118 318 604 314 36 1001 790 881 1246 1277 1571 1595 1726 1892 2128 2198 2173 2260 2320 2382 2575 2514 2608
92 87 0 9 23 39 130 12 5 31 0 0 0 0 83 274 853 672 442 717 306 330 303 922 890 0 849 1049 1360 1520 1703 1732 1747 1837 1961 2215 2324 2357 2427 2402 2402 2197 2084 2151
57 81 0 3 12 61 57 13 2 0 3 0 0 0 363 460 771 198 711 425 750 1005 1111 772 180 5 817 1220 1234 1630 1694 2004 2018 2071 2133 2379 2531 2611 2690 2809 2824 2820 2466 2136
0 1 0 10 12 21 108 85 35 55 5 54 5 28 299 281 206 408 833 1095 1080 891 879 726 493 1038 1222 1450 1471 1814 2099 2312 2170 2078 2183 2717 2819 2899 3000 3114 3202 2839 2631 2832
0 0 1 5 3 4 83 108 85 27 69 68 71 90 258 330 678 1100 1166 1173 1008 801 573 1205 946 1092 1336 1591 1766 2029 2344 2713 2950 3037 2941 3118 3159 2587 2569 3165 3028 2937 3163 3000
0 0 1 0 1 0 29 103 73 54 71 73 57 145 276 554 836 1031 1073 1568 1226 921 769 848 1357 1547 1500 1284 1848 1997 2184 2723 2936 3202 3315 3159 3136 2929 3356 3169 3201 2857 3061 2919
0 0 0 0 0 36 88 70 80 76 65 59 101 187 301 655 714 1062 1324 1709 1644 1410 1181 993 1040 1281 1545 1891 2122 2286 2479 1972 2390 2995 3261 3299 3268 3058 3269 2930 3001 3016 3088 3125
0 0 13 76 7 1 41 29 27 27 40 104 95 221 331 587 931 1031 1140 1157 1158 1318 1834 1404 1324 1337 1437 1647 1829 1989 1971 2630 2300 2231 2503 2646 2704 2815 3181 3287 2802 3191 3497 3150
0 0 0 8 4 39 90 91 18 32 65 68 196 240 319 465 679 686 934 640 849 1035 1170 1409 1564 1630 1743 1800 1923 2076 2112 2175 2445 3255 2691 2139 2068 2194 2730 2073 2208 2519 2798 2760

GFSCGP_con_mucape_048.txt.gz
CAPE
0 0 0 0 0 0 0 0 0 4 18 195 373 364 518 878 714 688 658 518 291 167 62 47 48 42 94 176 425 440 562 744 706 397 183 371 604 683 901 973 1370 1914 1794 1971
0 0 0 0 0 0 0 0 0 0 75 32 315 359 310 994 851 697 603 470 288 121 75 41 56 112 158 321 502 637 665 893 975 273 439 338 553 511 770 1234 1837 2006 1957 2198
0 0 0 0 0 0 0 0 0 0 1 76 80 290 293 410 917 843 637 464 302 131 138 109 108 164 219 468 620 776 906 943 1039 707 222 556 640 916 1199 1529 1541 1857 2027 2167
0 0 0 0 0 0 0 0 0 0 0 2 20 140 202 229 712 831 946 649 382 231 137 189 234 311 268 450 664 826 1088 1101 989 879 796 1619 754 687 496 1046 1049 1642 2084 2062
0 0 0 0 0 0 0 0 0 0 0 20 1 14 121 216 254 797 858 904 584 358 251 238 326 428 354 338 602 857 1161 1594 1695 1298 1435 756 1000 101 304 719 1313 1832 2356 2136
0 0 0 0 0 0 0 0 0 0 0 0 0 9 36 125 225 290 669 685 806 697 434 338 355 481 524 426 509 751 1638 1795 1564 1265 986 1739 1444 859 521 1118 898 978 1180 1839
0 0 0 0 0 0 0 0 0 0 0 0 0 0 1 23 82 189 332 595 733 831 851 577 441 476 629 639 522 555 1409 2193 1792 1137 1295 1128 1517 1801 1513 1331 1053 1410 572 819
0 0 0 0 0 0 0 0 0 0 0 0 0 0 0 0 0 7 176 294 621 800 892 940 796 543 653 717 653 631 1173 1817 1837 1575 2257 2422 2191 967 978 1494 1062 834 541 546
0 0 0 0 0 0 0 0 0 0 0 0 0 0 0 0 0 0 0 98 212 672 896 1044 1062 867 690 813 1241 1360 1688 1749 1532 1136 2209 2423 2344 2152 1370 2390 1474 1063 1541 642
0 0 0 0 0 0 0 0 8 3 0 0 0 0 0 0 0 0 0 3 111 581 905 1044 1107 1086 870 824 882 900 968 1559 1342 1144 1292 1429 1461 2092 1981 1753 2192 1843 1234 1471
0 0 0 0 0 0 0 0 4 25 4 0 0 0 0 0 0 0 0 0 26 395 869 1063 1116 1135 1074 870 862 970 1047 1205 1362 1469 1710 1711 1429 1377 1615 1517 1629 1792 1766 1660
0 0 0 0 0 0 0 0 7 13 19 2 4 9 0 0 0 0 0 0 24 124 577 887 952 1032 1111 1095 941 953 1026 1083 1236 1862 2306 1683 1770 1762 1350 1712 1629 1883 1967 1939
0 0 0 0 0 0 0 0 0 0 4 25 15 2 0 0 0 0 0 0 7 58 229 682 725 932 1068 1198 1219 996 991 987 1063 1443 1257 1224 1330 1349 1827 2022 1901 2143 2003 2151
0 0 0 0 0 0 0 0 0 21 2 0 1 13 37 0 0 0 0 0 0 3 54 171 563 743 1150 1414 2168 2022 1230 994 956 1163 1172 1775 1623 1701 1582 2437 2457 1906 2442 2265
12 0 0 0 0 0 0 0 0 0 2 0 1 36 3 15 0 0 0 0 0 0 12 149 293 734 1627 2038 2512 2154 1441 1699 1418 2055 1288 1994 2458 2441 2509 2778 2746 2336 2708 2456
38 0 0 0 0 0 0 0 0 0 0 0 0 0 0 5 0 0 0 0 0 0 0 0 70 329 806 1362 2230 2536 2532 1956 1922 2548 2185 2482 3012 3033 3057 3239 3339 3164 2898 2840
86 81 68 0 0 0 0 0 0 0 0 0 0 0 13 16 4 0 0 0 37 88 123 236 130 79 448 941 1765 2157 2664 2259 2377 2795 2727 2952 3216 3288 3357 3383 3586 3478 3420 3005
146 160 163 39 7 0 0 0 0 0 0 0 0 0 19 22 24 824 526 397 364 334 357 471 548 657 137 544 857 1489 1699 2769 2813 2997 3027 3188 3404 3253 3539 3631 3702 3858 3273 3453
139 194 104 149 0 0 0 0 9 0 0 0 2 0 0 1 102 1076 499 259 333 430 568 774 862 924 1124 289 723 1500 1444 2019 2626 2992 3226 3308 3405 3333 3362 3484 3638 3428 3243 3312
105 261 275 153 0 0 12 17 38 38 63 95 58 114 40 20 210 375 237 238 213 271 526 876 1398 1639 1392 1397 525 1044 1532 1896 2736 2909 3154 3460 3571 3572 3592 3673 3728 3798 3347 3204
165 215 33 0 0 0 12 0 58 58 106 5 0 0 197 332 58 45 269 385 339 452 462 1205 1626 1727 1543 1177 629 2064 2110 2299 2636 2214 2318 3058 3437 3822 3680 4051 4039 3914 3382 3378
0 0 0 0 0 0 0 4 15 64 19 89 79 20 14 132 300 533 628 716 928 770 813 1682 1224 841 699 562 1774 2847 2827 2782 3047 3111 3070 3566 3839 2883 2856 4149 3936 3781 3737 3843
0 0 1 0 0 0 0 1 0 78 153 144 126 16 131 249 365 349 711 891 935 1150 983 1515 1589 1150 1151 1470 1846 2265 3089 3177 3055 3139 3654 3438 3445 3355 3975 3969 3998 3463 3803 3320
0 0 0 0 0 0 0 0 0 36 167 184 183 122 254 374 331 603 804 1003 1078 1005 957 1211 1495 1922 2028 1773 1815 2094 2538 3586 3205 3305 3579 3326 3350 3280 3314 3331 3380 3261 3239 3238
0 0 0 0 0 0 0 0 0 54 167 266 199 295 445 489 546 767 857 1058 1096 1060 939 1056 1046 1226 1533 1687 1793 2267 2655 2698 2984 3164 3240 3366 3382 3293 3390 3290 2923 3181 3667 3055
0 0 0 0 0 0 0 0 0 19 63 246 247 132 541 562 477 612 792 1002 1215 1298 1109 948 951 1152 948 902 979 1135 1943 2709 2447 2530 2735 2927 2939 3255 3293 3445 2494 2587 2804 2814

GFSCGP_con_mucape_051.txt.gz
CAPE
0 0 0 0 0 0 0 0 0 0 10 135 168 272 194 706 823 942 933 812 552 474 312 277 176 114 71 55 79 501 959 2144 1078 674 698 720 735 861 1141 2040 1633 1841 1555 1618
0 0 0 0 0 0 0 0 0 0 7 184 296 239 398 672 700 951 933 921 599 499 357 322 238 154 66 64 169 1040 1528 2454 1494 716 1255 1061 1316 673 691 747 1819 1846 1786 1878
0 0 0 0 0 0 0 0 0 0 0 0 92 206 359 680 699 893 882 844 756 507 446 348 262 188 115 167 328 1145 1975 2405 1942 1425 982 1092 1300 1060 666 1751 1522 1894 1924 1961
0 0 0 0 0 0 0 0 0 0 1 9 0 91 262 392 744 852 852 769 779 517 494 387 292 251 164 230 340 1428 1669 2426 2003 2190 690 1703 906 535 359 965 991 1679 1860 1969
0 0 0 0 0 0 0 0 0 0 0 0 0 50 99 393 388 758 948 810 663 660 396 408 336 334 285 281 473 623 2127 2486 2333 2246 1710 1056 1409 423 387 281 2998 2150 3072 1981
0 0 0 0 0 0 0 0 0 0 0 0 0 24 68 140 265 528 698 924 776 619 524 404 423 378 381 358 498 1001 2252 2799 2724 2508 2016 2354 1605 1508 212 635 1230 1077 1420 1692
0 0 0 0 0 0 0 0 0 0 0 0 0 0 6 74 192 210 551 769 895 650 613 536 476 488 740 945 922 1361 2287 2857 2726 2458 1834 2039 2418 2256 2535 2160 646 1042 518 701
0 0 0 0 0 0 0 0 0 0 0 0 0 0 0 0 74 14 71 542 720 765 617 601 625 600 1107 1236 1386 1456 2285 2868 2901 2315 2256 2073 2413 662 194 1373 777 519 336 506
0 0 0 0 0 0 0 5 0 0 2 0 0 0 0 0 0 9 1 276 314 713 829 776 683 708 1098 1287 1619 1617 2264 2767 2768 1498 2390 2653 2397 1627 540 1169 2406 1517 1865 634
0 0 0 0 0 0 0 0 8 2 2 0 22 3 0 0 0 0 0 21 270 430 769 872 948 845 817 927 1244 1463 1796 2570 2651 2123 2406 2427 2591 2774 2210 2527 3129 2310 2347 2502
0 0 0 0 0 0 0 0 0 16 22 5 21 12 5 0 0 0 0 0 57 185 603 842 1017 1122 977 915 1028 1150 1487 2011 2153 2347 2348 2005 1994 2142 2524 2859 3057 3072 2771 3157
0 0 0 0 0 0 0 0 0 9 12 16 0 21 10 15 0 0 0 0 0 61 434 842 941 1199 1270 1145 1031 1192 1127 1158 1735 2041 2692 2326 2195 2141 2092 2457 2875 3291 3450 2907
0 0 0 0 0 0 0 0 0 2 6 48 23 2 2 6 1 0 0 0 0 12 169 724 880 1081 1263 1352 1578 1113 1165 1016 1084 1970 1926 2295 2079 2342 2095 2737 2721 3223 3449 3601
0 0 0 0 2 0 0 0 0 4 57 27 20 47 30 32 12 20 0 0 0 29 251 394 796 831 1145 1776 2251 2114 1383 1050 937 1278 1389 2189 2407 2444 2233 2556 3061 3126 3537 3717
0 0 0 0 0 0 0 0 0 0 0 6 11 11 22 27 26 55 9 0 0 0 80 235 573 1427 2261 2289 2718 2621 1750 1961 1413 1795 1665 2160 2647 2528 2676 2586 3199 3256 3579 3629
34 0 0 0 0 0 0 0 0 0 0 0 0 0 0 0 0 0 13 30 0 0 0 33 164 430 1319 2423 2816 2886 2535 2340 1938 2258 1966 2160 2715 2756 2765 2826 3277 3643 3760 3838
99 80 87 0 0 0 0 0 0 0 0 0 0 0 0 0 0 1 11 38 16 21 0 22 0 190 372 906 2405 2488 2939 2418 2639 2836 2491 2717 3146 3153 3179 3211 3544 3763 3865 4080
190 251 293 94 49 0 8 0 0 0 0 0 0 0 0 0 0 6 92 804 745 516 154 223 240 191 110 429 810 1800 2148 3205 3170 2949 3471 3000 3496 3449 3616 3706 3741 3914 3955 4008
187 402 344 250 132 36 4 8 0 10 0 0 0 0 0 0 4 68 0 970 799 830 827 812 808 720 778 332 408 1834 1910 3356 3179 3554 3548 3480 3582 3743 3927 3968 3992 4080 4111 4138
162 357 323 287 134 56 22 18 65 2 0 0 0 0 0 0 0 10 774 1072 885 751 746 898 1020 1057 1130 1254 868 668 1645 2391 3322 3632 3526 3751 3725 3956 4004 4079 4207 4353 4268 4250
105 347 194 372 207 154 47 70 7 0 0 4 18 7 0 0 0 46 166 310 220 533 807 1022 1402 1454 1684 1791 1459 1633 1782 2409 3104 3374 3695 4015 3965 4135 4187 4331 4378 4417 4381 3702
0 72 142 52 58 65 47 47 26 33 0 11 97 49 101 264 501 65 27 127 211 451 531 665 2126 2244 2229 2223 2653 2735 2327 2741 3370 3622 3712 4061 4235 3789 3599 4467 4458 4488 4489 4468
0 104 0 99 6 79 12 0 1 0 0 41 42 376 620 335 221 0 116 244 414 649 873 1041 1950 2547 1508 2331 2797 3160 2416 3887 3725 3907 3935 4135 4282 4269 4213 4405 4555 4065 4443 3358
0 0 0 0 0 0 0 0 0 0 0 0 61 5 23 5 58 92 298 542 641 710 983 1189 1573 2722 2708 2671 2161 2648 4450 4035 4188 4149 4092 4254 4222 4268 4206 3681 3740 3253 3162 3215
0 0 0 0 0 0 0 0 0 0 0 0 42 21 8 2 9 230 413 785 917 1048 1074 1093 1415 1509 1710 1743 2131 2388 3221 3887 3525 4077 4137 3934 3618 3404 3952 3968 3116 3337 2418 2499
0 0 0 0 0 0 0 0 0 0 5 3 43 84 31 42 62 47 402 639 824 1017 1068 1033 1058 1172 1224 1798 1961 2024 2168 3651 3524 3696 3336 3481 3036 3404 3548 2749 2535 2491 2512 2490

GFSCGP_con_mucape_054.txt.gz
CAPE
0 0 0 0 0 0 0 0 0 0 0 132 169 101 58 53 395 525 727 537 395 163 143 195 91 66 138 92 563 1203 1479 2134 1481 1339 1386 1154 1256 414 573 1500 1726 2931 2810 2198
0 0 0 0 0 0 0 0 0 0 0 54 390 168 98 0 225 420 678 469 357 269 244 265 134 70 94 163 504 1287 1504 1931 1408 1468 1683 1931 844 1485 1213 368 2733 2719 2168 2876
0 0 0 0 0 0 0 0 0 0 0 12 35 123 63 4 53 230 438 382 388 455 409 417 170 108 136 258 487 1055 1667 1789 1435 1830 1453 2680 2850 2110 1394 2433 2406 2707 2240 2781
0 0 0 0 0 0 0 0 0 0 0 3 3 26 83 203 127 6 241 482 402 481 481 512 310 234 101 352 450 1000 1600 2087 1427 2081 1197 1908 1518 1563 973 1643 1614 2521 3103 2521
0 0 0 0 0 0 0 0 0 0 0 0 1 5 0 608 144 5 123 839 543 545 459 518 364 384 149 389 435 705 1378 2157 1507 1517 1683 1354 1703 1416 2347 1572 2453 2698 3473 3457
0 0 0 0 0 0 0 0 0 0 0 0 0 0 0 133 212 107 111 389 575 512 533 518 530 460 317 414 387 826 1151 1675 1967 1535 1737 1803 1375 2176 1621 1623 2021 2240 2554 2818
0 0 0 0 0 0 0 0 0 0 0 0 0 0 0 0 520 278 102 0 288 812 583 614 609 559 511 354 521 836 1213 1249 1712 1816 1248 2210 1438 1505 2613 2759 1980 1751 1955 1749
0 0 0 0 0 0 0 0 0 0 0 0 0 0 0 0 28 304 207 97 168 723 620 604 585 616 567 473 632 762 1417 1445 1507 2029 1329 1464 2130 983 1259 2149 1395 2169 1929 1830
0 0 0 0 0 0 0 1 0 0 0 0 0 0 0 0 0 153 104 159 103 124 456 598 714 681 715 722 714 1073 1431 1685 1808 1462 1878 1168 1967 1786 757 1615 2109 2256 2074 1772
0 0 0 0 0 0 0 0 2 0 0 0 0 0 0 0 0 0 63 9 8 91 138 345 776 822 1007 872 1026 1056 1552 1737 1959 1688 1740 1488 991 1543 1617 601 1661 1628 2803 2596
0 0 0 0 0 0 0 0 0 0 2 0 0 0 2 69 0 0 146 95 2 104 155 154 378 1012 1063 1091 1297 1119 1400 1866 2135 2123 1659 1501 1263 1185 998 1587 538 2529 1910 3855
0 0 0 0 0 0 0 0 0 0 0 1 0 0 0 29 1 0 0 6 280 467 328 111 387 399 1083 1184 1218 1315 1268 1882 2069 2188 1804 1581 1615 1224 1139 644 2176 1973 3313 2782
0 0 0 0 0 0 0 0 0 0 0 0 2 0 0 1 46 9 3 0 55 570 379 124 49 452 1104 1105 1250 1424 1361 1300 1981 2277 1914 1863 1650 1748 1662 1189 1175 2358 2180 3048
0 0 0 0 0 0 1 0 0 0 0 0 0 0 0 1 14 35 60 85 10 156 272 263 637 646 1263 1284 1312 1360 1449 1385 1437 1953 2027 1992 1752 1659 1390 1862 1282 2126 2709 2522
0 0 0 0 0 0 0 0 0 0 0 0 0 0 0 0 3 1 6 28 66 102 68 192 346 419 1158 1799 1649 1516 1555 1379 1386 1682 1753 2001 2214 1902 1685 1705 1943 1549 2086 2545
26 0 0 0 0 0 0 0 0 0 0 0 0 0 0 0 0 0 0 0 0 0 149 197 25 1758 1548 2064 1888 1790 1680 1619 1498 1521 1664 1893 2166 2090 2106 1799 2045 2206 2128 2561
125 101 56 0 0 0 0 0 0 0 0 0 0 0 0 0 0 0 0 11 4 0 44 182 257 271 641 1589 2168 2072 1936 1831 1735 1803 1791 1901 2309 2451 2165 2374 1919 2436 2329 2526
116 209 231 42 58 0 0 0 0 0 0 0 0 0 0 0 0 0 0 0 3 54 315 1099 140 367 653 290 719 2562 2392 2202 2221 1977 2279 2047 2384 2385 2499 2294 2424 2131 2523 2550
77 220 163 159 132 20 1 1 0 22 5 0 0 0 0 0 0 0 0 0 6 56 318 905 615 659 1229 1172 1263 2358 2883 2484 2354 2372 2372 2304 2224 2420 2405 2376 2355 2335 2675 2848
68 163 374 260 97 2 0 0 0 0 0 0 0 0 0 0 0 3 0 0 29 940 941 792 689 688 853 1270 1232 1326 2195 3019 2364 2375 2543 2829 2210 2706 2564 2542 2575 2650 2837 2980
107 206 215 216 177 25 20 6 41 4 0 2 0 0 0 0 0 0 0 0 493 531 741 820 1008 1273 1527 1620 1660 1702 1644 2152 3102 2493 2780 2977 2880 2731 3071 3139 3107 3104 3238 3218
0 201 112 115 105 38 96 69 75 46 1 0 0 0 0 0 0 0 5 277 377 382 330 456 892 1158 2187 2540 1881 1847 2287 2431 2962 3323 2850 3679 3587 2973 3346 3522 3649 3570 3543 3678
0 0 0 9 16 6 8 20 7 4 2 0 0 0 0 0 0 0 577 377 131 33 169 431 606 1512 3364 2684 3210 2236 2616 2982 3897 3794 3215 3605 3701 3731 3423 3774 3781 3831 3852 3758
0 0 0 0 0 0 0 0 0 0 0 0 0 0 12 29 277 348 208 0 110 213 362 581 884 1128 1067 1468 1980 3623 3098 3370 3458 3567 3681 3589 3948 3792 3537 3840 3786 3880 3805 3834
0 0 0 0 0 0 0 0 0 0 0 2 0 22 22 123 216 166 65 154 264 308 359 646 679 818 993 1409 1624 1907 1887 3149 2842 3926 3705 3573 3695 3430 3814 3499 3727 3797 3668 3536
0 0 0 0 0 0 0 0 0 0 0 0 1 1 140 87 52 63 98 299 385 409 427 579 640 760 1054 1475 1802 1917 2238 2786 4105 3749 3693 3488 3568 3615 3744 3301 2971 3177 3300 2819

GFSCGP_con_mucape_057.txt.gz
CAPE
0 0 0 0 0 0 0 0 0 0 0 55 348 641 526 158 268 588 486 307 194 113 136 139 33 13 55 0 0 135 402 249 874 752 748 779 352 489 437 1027 1646 1344 1278 923
0 0 0 0 0 0 0 0 0 0 0 1 187 424 188 276 116 341 231 308 230 224 221 65 30 16 58 15 0 249 610 316 725 452 562 586 501 243 284 1005 1310 1314 1099 785
0 0 0 0 0 0 0 0 0 0 0 28 215 161 136 157 180 254 52 189 182 172 118 115 21 3 31 97 84 350 747 390 517 200 351 949 395 578 430 638 1086 1372 1470 1227
0 0 0 0 0 0 0 0 0 0 0 0 212 200 172 147 224 352 259 262 221 187 88 149 22 0 6 34 154 384 741 475 649 208 127 571 633 791 303 428 1028 1505 1233 1325
0 0 0 0 0 0 0 0 0 0 0 0 0 0 109 177 174 84 173 114 203 190 206 176 65 1 37 54 54 492 730 494 286 693 113 268 308 689 622 772 1097 1296 1588 1515
0 0 0 0 0 0 0 0 0 0 0 0 0 0 0 178 207 70 49 0 263 216 290 278 204 31 70 77 95 391 926 426 341 299 735 103 213 403 620 850 593 1512 1728 1869
0 0 0 0 0 0 0 0 0 0 0 0 0 0 0 194 332 218 138 103 150 609 359 314 258 164 64 106 125 280 631 794 296 280 458 834 112 203 424 902 1416 1315 1525 1775
0 0 0 0 0 0 0 0 0 0 0 0 0 0 0 0 507 333 275 141 349 332 378 318 326 260 185 181 127 247 331 681 724 250 170 533 794 85 372 954 1374 1235 1367 1228
0 0 0 0 0 0 0 0 0 0 0 0 0 0 0 0 122 208 147 318 567 366 366 313 418 313 273 228 195 223 317 322 852 658 99 264 1118 172 201 393 597 742 1283 1099
0 0 0 0 0 0 0 0 0 0 0 0 0 0 0 0 0 251 201 465 462 518 521 501 479 438 243 259 245 267 420 336 704 761 526 101 360 1070 141 208 395 643 279 649
0 0 0 0 0 0 0 0 0 0 0 0 0 0 0 0 2 292 282 310 526 395 419 291 350 478 444 212 225 332 698 524 561 547 825 325 124 741 816 271 61 528 430 1785
0 0 0 0 0 0 0 0 0 0 0 0 0 0 0 0 2 81 338 440 447 498 416 283 194 205 414 421 360 348 556 825 801 734 639 829 263 236 604 561 155 0 613 667
0 0 0 0 0 0 0 0 0 0 0 0 0 0 0 0 0 42 42 105 374 490 332 211 100 189 477 542 460 515 491 910 1001 1073 719 878 728 155 394 187 473 312 735 668
0 0 0 0 0 0 0 0 0 0 0 0 0 0 0 0 0 6 2 140 277 457 275 246 163 150 487 501 606 512 528 768 1012 1162 1203 924 797 689 93 138 12 865 439 1975
0 0 0 0 0 0 0 0 0 0 0 0 0 0 0 0 0 4 3 13 82 221 253 207 98 145 310 176 551 753 678 557 1031 1230 1332 1204 950 697 670 210 176 0 1199 554
1 0 0 0 0 0 0 0 0 0 0 0 0 0 0 0 0 1 0 6 12 104 147 82 46 8 198 79 509 704 791 759 659 1290 1440 1375 1155 945 798 807 866 488 107 1541
1 11 19 0 0 0 0 0 0 0 0 0 0 0 0 0 0 0 0 2 27 44 129 233 141 101 175 291 34 10 787 887 856 875 1383 1420 1300 1230 988 893 780 1091 782 476
10 21 32 0 4 0 0 0 0 0 0 0 0 0 0 0 0 0 0 0 3 32 205 185 278 431 412 304 358 398 466 886 982 987 1094 1382 1378 1347 1348 1141 1012 954 1119 847
18 23 21 0 0 0 0 0 0 0 0 0 0 0 0 0 0 0 0 0 13 1 104 114 115 207 438 419 142 285 195 579 948 1083 1086 1326 1318 1392 1507 1350 1229 1013 1209 1337
0 7 71 5 3 0 0 0 1 2 0 0 0 0 0 0 0 0 0 0 0 0 0 55 26 46 80 682 655 218 5 76 1007 1446 1324 1265 1265 1511 1516 1474 1275 1449 1090 1152
0 0 0 20 118 32 0 0 22 4 0 0 0 0 0 0 0 0 0 0 0 0 0 75 185 160 297 504 908 793 186 82 889 1335 1505 1656 1350 1507 1570 1621 1502 1406 1525 1324
0 0 0 0 0 0 0 0 8 0 0 0 0 0 0 0 0 0 0 0 0 0 0 81 64 64 140 736 1602 1740 1684 1308 1542 2069 1881 1675 1771 1485 1713 1599 1648 1536 1506 1554
0 0 0 0 0 0 0 0 0 0 0 0 0 0 0 0 0 0 0 0 0 4 0 23 6 10 117 445 1032 981 1816 2247 2142 2453 2348 2259 2325 1790 1853 1752 1711 1752 1777 1781
0 0 0 0 0 0 0 0 0 0 0 0 0 0 0 0 0 0 0 0 1 35 36 1 28 87 133 323 647 549 1061 2209 2276 2504 2916 2428 2570 2356 1896 2290 2054 2170 2215 2224
0 0 0 0 0 0 0 0 0 0 0 0 0 0 0 0 0 0 1 0 12 8 5 6 54 91 109 284 550 738 696 1182 1983 2237 2946 2750 2479 2715 2398 2452 2592 2521 2538 2499
1 0 0 0 0 0 0 0 0 0 0 0 0 0 0 34 26 8 0 35 39 26 17 9 76 158 210 331 486 724 1016 1166 1448 1586 2518 2923 2445 2875 2711 2535 2683 2888 2850 2858

GFSCGP_con_mucape_060.txt.gz
CAPE
0 0 0 0 0 0 0 0 0 0 0 0 396 594 784 614 505 301 181 75 13 64 41 19 36 140 136 116 98 78 70 355 505 408 115 455 499 636 835 910 996 772 570 126
0 0 0 0 0 0 0 0 0 0 0 0 394 465 601 350 454 471 271 127 69 97 71 21 24 95 32 7 26 112 141 290 289 312 374 546 423 362 553 995 1120 913 761 522
0 0 0 0 0 0 0 0 0 0 0 285 466 336 383 214 185 595 588 350 172 64 72 81 68 111 11 5 56 150 196 240 291 198 352 517 341 304 291 795 889 1094 1153 582
0 0 0 0 0 0 0 0 0 0 0 2 226 120 239 203 196 456 299 283 282 166 110 56 164 122 31 93 131 293 249 372 387 235 239 573 475 335 222 652 811 1103 929 777
0 0 0 0 0 0 0 0 0 0 0 0 0 0 23 223 209 436 94 69 17 129 171 99 218 134 33 0 23 408 281 361 444 290 90 345 651 350 246 437 757 957 1209 951
0 0 0 0 0 0 0 0 0 0 0 0 0 0 44 106 233 479 395 253 189 191 190 151 282 133 45 22 0 519 319 278 342 203 132 88 357 506 592 291 643 940 1284 1160
0 0 0 0 0 0 0 0 0 0 0 0 0 0 0 110 111 361 405 398 290 251 227 181 228 166 74 52 91 447 330 229 345 326 325 43 176 368 523 469 550 917 1327 1284
0 0 0 0 0 0 0 0 0 0 0 0 0 0 0 2 266 260 362 522 417 360 287 275 222 222 233 120 84 364 357 256 211 366 443 467 180 133 211 517 731 1022 1220 1319
0 0 0 0 0 0 0 0 0 0 0 0 0 0 0 0 0 323 271 238 204 194 414 363 343 277 279 178 155 134 390 239 182 126 134 351 697 165 121 661 1122 1090 1046 1103
0 0 0 0 0 0 0 0 0 0 0 0 0 0 0 0 20 69 192 251 218 388 420 431 482 414 377 325 251 87 176 356 310 153 63 28 334 755 282 63 559 1347 1205 1057
0 0 0 0 0 0 0 0 0 0 0 0 0 0 0 0 10 11 155 132 150 408 337 419 500 393 392 401 351 274 142 135 516 476 215 59 36 300 843 154 65 414 860 1129
0 0 0 0 0 0 0 0 0 0 0 0 0 0 0 0 0 1 58 130 199 268 387 426 469 451 349 392 367 306 198 165 117 549 479 241 26 64 544 764 62 35 293 651
0 0 0 0 0 0 0 0 0 0 0 0 0 0 0 0 0 0 0 147 401 418 511 481 400 320 159 229 330 393 328 286 219 275 479 463 213 12 103 486 638 210 23 218
0 0 0 0 0 0 0 0 0 0 0 0 0 0 0 0 0 0 1 192 361 342 332 396 176 62 14 12 314 410 410 525 368 275 401 477 582 217 5 115 350 465 341 1
0 0 0 0 0 0 0 0 0 0 0 0 0 0 0 0 0 0 1 24 49 195 187 173 115 37 27 2 4 404 479 456 620 543 549 415 586 643 335 102 116 132 317 281
0 0 0 0 0 0 0 0 0 0 0 0 0 0 0 0 0 0 0 14 28 81 139 108 55 324 324 154 99 320 522 462 806 831 814 792 524 703 698 533 345 56 0 368
0 0 0 0 0 0 0 0 0 0 0 0 0 0 0 0 0 0 0 2 4 18 84 81 57 191 233 220 60 110 411 375 613 936 968 1032 1015 791 727 703 646 522 268 0
0 0 0 0 0 0 0 0 0 0 0 0 0 0 0 0 0 0 0 0 0 0 4 73 45 165 267 271 119 178 154 143 679 700 1137 1276 1255 1182 1046 920 869 776 641 428
0 0 0 0 0 0 0 0 0 0 0 0 0 0 0 0 0 0 0 0 0 0 0 0 93 172 300 140 151 70 265 575 236 668 990 1222 1509 1386 1303 1209 1089 966 833 723
0 0 0 0 0 0 0 0 0 0 0 0 0 0 0 0 0 0 0 0 0 0 0 0 0 70 160 433 201 336 366 203 655 744 1025 1087 1001 1456 1405 1310 1253 1118 1020 868
0 0 0 0 0 0 0 0 1 5 0 0 0 0 0 0 0 0 0 0 0 0 0 0 0 0 164 145 575 707 611 393 84 117 725 1128 1167 1000 1385 1350 1287 1235 1128 1036
0 0 0 0 0 0 0 0 0 0 0 0 0 0 0 0 0 0 0 0 0 0 0 0 0 0 4 154 334 694 762 693 379 36 70 321 687 801 1164 1338 1347 1297 1231 1158
0 0 0 0 0 0 0 0 0 0 0 0 0 0 0 0 0 0 0 0 0 0 0 0 0 0 0 230 84 21 211 583 531 423 1006 585 1178 1347 1202 1273 1285 1325 1252 1344
0 0 0 0 0 0 0 0 0 0 0 0 0 0 0 0 0 0 0 0 0 0 0 0 0 0 0 0 6 0 59 260 244 146 382 1342 1651 1650 1473 1304 1298 1365 1335 1295
0 0 0 0 0 0 0 0 0 0 0 0 0 0 0 0 0 0 0 0 0 0 0 0 0 0 0 0 9 21 57 160 345 407 591 1136 1813 1797 1687 1637 1504 1510 1434 1400
0 0 0 0 0 0 0 0 0 0 0 0 0 0 0 0 0 0 0 0 0 0 3 13 2 0 0 1 38 13 44 184 254 613 713 947 1997 2063 2094 1913 1913 1804 1657 1621

GFSCGP_con_mucape_063.txt.gz
CAPE
0 0 0 0 0 0 0 0 0 0 0 0 190 197 512 489 558 419 214 114 46 27 0 26 12 11 29 43 36 78 175 301 303 241 201 343 439 481 468 335 785 781 717 503
0 0 0 0 0 0 0 0 0 0 5 0 0 140 504 513 529 360 253 215 98 13 0 10 4 96 79 15 6 15 85 193 446 234 175 324 525 477 470 525 806 800 534 171
0 0 0 0 0 0 0 0 0 0 0 232 345 350 547 426 401 438 278 219 153 53 5 13 25 100 68 12 5 0 50 238 463 312 173 369 397 424 453 712 887 933 765 557
0 0 0 0 0 0 0 0 0 0 0 0 237 46 477 291 283 491 467 297 142 54 30 83 50 65 92 17 23 0 0 221 396 383 200 331 398 299 357 501 790 1064 1158 996
0 0 0 0 0 0 0 0 0 0 0 0 0 11 0 192 171 323 518 483 286 110 90 87 87 2 0 17 24 0 7 78 197 212 150 270 313 235 254 327 738 1007 1096 971
0 0 0 0 0 0 0 0 0 0 0 0 0 0 0 272 272 237 283 463 408 235 125 90 55 69 59 106 16 10 16 64 98 102 45 154 300 436 299 192 421 631 1063 1081
0 0 0 0 0 0 0 0 0 0 0 0 0 0 0 19 225 197 188 320 428 371 253 117 78 68 85 174 67 81 52 63 121 68 74 29 144 337 552 433 217 601 860 1183
0 0 0 0 0 0 0 0 0 0 0 0 0 0 0 0 3 75 139 145 186 48 55 229 151 91 78 169 82 219 92 61 129 120 66 41 0 110 415 409 473 404 779 1121
0 0 0 0 0 0 0 0 0 0 0 0 0 0 0 0 0 0 107 245 232 186 166 157 220 164 107 188 204 173 142 49 85 112 71 50 3 6 198 314 342 488 710 1010
0 0 0 0 0 0 0 0 0 0 0 0 0 0 0 0 0 0 34 166 295 331 308 241 229 217 169 231 224 186 174 95 48 82 65 66 96 21 16 117 246 662 727 1005
0 0 0 0 0 0 0 0 0 0 0 0 0 0 0 0 0 0 0 20 181 202 326 368 306 201 204 209 243 217 219 209 131 131 114 61 73 305 307 98 73 215 969 1124
0 0 0 0 0 0 0 0 0 0 0 0 0 0 0 0 0 0 164 5 44 99 205 335 278 242 264 209 171 207 252 261 266 230 149 73 18 7 300 342 237 86 51 477
0 0 0 0 0 0 0 0 0 0 0 0 0 0 0 0 0 0 239 321 388 320 250 187 243 198 203 198 211 279 257 207 206 255 230 160 14 0 9 189 373 301 63 27
0 0 0 0 0 0 0 0 0 0 0 0 0 0 0 0 0 0 0 176 465 426 394 243 209 192 220 164 241 178 229 229 233 195 319 241 179 85 28 0 115 337 329 133
0 0 0 0 0 0 0 0 0 0 0 0 0 0 0 0 0 0 0 0 15 388 599 424 247 162 85 100 114 59 57 130 185 227 234 341 305 244 142 27 0 58 191 212
0 0 0 0 0 0 0 0 0 0 0 0 0 0 0 0 0 0 0 0 0 24 133 207 296 253 98 46 46 79 0 68 179 333 365 328 341 339 297 211 88 52 6 72
0 0 0 0 0 0 0 0 0 0 0 0 0 0 0 0 0 0 0 0 0 0 58 67 109 201 88 3 8 136 18 16 257 351 422 413 407 419 469 464 405 255 169 119
0 0 0 0 0 0 0 0 0 0 0 0 0 0 0 0 0 0 0 0 0 0 1 12 25 114 13 74 55 208 106 113 107 610 526 535 536 494 516 558 579 562 453 341
0 0 0 0 0 0 0 0 0 0 0 0 0 0 0 0 0 0 0 0 0 0 0 0 0 15 109 63 117 167 256 224 320 171 399 768 756 743 731 721 742 724 700 636
0 0 0 0 0 0 0 0 0 0 0 0 0 0 0 0 0 0 0 0 0 0 0 0 0 0 132 100 112 104 182 355 327 140 185 362 1017 993 987 987 972 931 897 922
0 0 0 0 0 0 0 0 0 0 0 0 0 0 0 0 0 0 0 0 0 0 0 0 0 0 0 1 28 104 139 155 309 538 226 495 599 1248 1367 1324 1216 1188 1250 1141
0 0 0 0 0 0 0 0 0 0 0 0 0 0 0 0 0 0 0 0 0 0 0 0 0 0 0 0 18 54 88 124 372 519 541 264 419 704 962 991 1300 1196 1259 1104
0 0 0 0 0 0 0 0 0 0 0 0 0 0 0 0 0 0 0 0 0 0 0 0 0 0 0 0 1 65 21 49 65 196 132 211 498 739 635 668 711 1261 1245 1230
0 0 0 0 0 0 0 0 0 0 0 0 0 0 0 0 0 0 0 0 0 0 0 0 0 0 0 0 0 0 0 0 0 119 84 35 53 403 1106 1189 1212 1166 1244 1284
0 0 0 0 0 0 0 0 0 0 0 0 0 0 0 0 0 0 0 0 0 0 0 0 0 0 0 0 0 0 0 0 0 0 49 49 104 252 1074 1368 1468 1245 1257 1271
0 0 0 0 0 0 0 0 0 0 0 0 0 0 0 0 0 0 0 0 0 0 0 0 0 0 0 4 0 0 0 0 0 0 28 29 20 142 330 1375 1574 1378 1377 1395

GFSCGP_con_mucape_066.txt.gz
CAPE
0 0 0 0 0 0 0 0 0 0 0 0 0 0 266 249 577 419 119 71 41 25 42 64 75 14 22 36 46 57 112 287 194 205 344 346 244 322 314 330 391 509 501 487
0 0 0 0 0 0 0 0 0 4 0 0 0 40 157 271 617 500 244 93 39 17 28 38 5 0 4 19 36 61 66 249 232 274 239 243 288 322 367 332 509 641 585 280
0 0 0 0 0 0 0 0 0 1 0 19 174 171 420 607 511 510 364 152 19 45 3 60 29 5 0 3 1 20 38 105 317 188 170 186 239 286 316 331 480 754 657 334
0 0 0 0 0 0 0 0 0 0 0 0 56 0 91 429 490 560 412 294 176 104 31 50 29 18 6 25 7 0 13 42 233 157 123 143 281 350 404 385 542 786 820 755
0 0 0 0 0 0 0 0 0 0 0 0 0 0 0 181 538 500 498 402 276 233 101 53 30 0 30 0 29 0 0 10 100 254 112 130 226 293 228 345 519 683 921 965
0 0 0 0 0 0 0 0 0 0 0 0 0 0 0 146 219 238 382 492 377 274 241 168 55 15 8 8 1 3 10 0 42 228 253 125 164 169 183 217 348 575 849 946
0 0 0 0 0 0 0 0 0 0 0 0 0 0 0 0 0 0 57 231 478 396 303 195 104 77 40 50 46 32 0 0 9 138 329 151 105 155 139 122 159 250 505 833
0 0 0 0 0 0 0 0 0 0 0 0 0 0 0 0 0 0 2 106 333 459 401 215 142 95 79 37 28 43 72 0 0 51 164 181 52 116 182 187 191 141 403 739
0 0 0 0 0 0 0 0 0 0 0 0 0 0 0 0 0 0 0 25 199 326 426 359 172 151 92 84 89 93 195 51 0 40 49 78 3 6 187 350 303 336 405 627
0 0 0 0 0 0 0 0 0 0 0 0 0 0 0 0 0 4 109 14 38 257 280 362 371 238 157 95 89 108 190 145 18 79 51 11 38 0 7 138 286 293 326 528
0 0 0 0 0 0 0 0 0 0 0 0 0 0 0 0 0 69 264 147 0 227 232 182 67 88 182 172 85 79 132 252 92 91 85 52 37 0 0 0 110 210 325 494
0 0 0 0 0 0 0 0 0 0 0 0 0 0 0 0 0 33 391 234 100 141 285 346 313 95 62 147 211 151 126 190 154 174 131 86 61 36 0 0 0 8 150 462
0 0 0 0 0 0 0 0 0 0 0 0 0 0 0 0 0 0 446 506 354 236 141 184 170 326 252 135 159 162 183 159 195 161 229 154 71 0 108 60 2 0 4 40
0 0 0 0 0 0 0 0 0 0 0 0 0 0 0 0 0 0 7 394 596 571 415 372 228 203 254 190 172 139 132 118 115 141 207 218 158 118 16 17 52 13 0 0
0 0 0 0 0 0 0 0 0 0 0 0 0 0 0 0 0 0 0 0 109 365 480 249 347 220 173 129 144 140 94 115 167 186 235 219 196 149 92 46 2 32 0 0
0 0 0 0 0 0 0 0 0 0 0 0 0 0 0 0 0 0 0 0 0 0 29 365 339 263 229 130 97 92 96 161 174 134 149 269 249 197 96 111 78 28 22 0
0 0 0 0 0 0 0 0 0 0 0 0 0 0 0 0 0 0 0 0 0 0 0 60 284 399 266 131 115 100 73 117 88 107 139 174 301 289 277 188 146 148 101 24
0 0 0 0 0 0 0 0 0 0 0 0 0 0 0 0 0 0 0 0 0 0 0 0 0 21 184 195 122 161 104 147 116 62 248 185 245 275 335 310 273 278 269 214
0 0 0 0 0 0 0 0 0 0 0 0 0 0 0 0 0 0 0 0 0 0 0 0 0 0 14 60 106 166 144 247 260 108 156 502 339 435 411 389 461 465 451 438
0 0 0 0 0 0 0 0 0 0 0 0 0 0 0 0 0 0 0 0 0 0 0 0 0 0 0 22 45 88 99 203 196 280 333 107 404 655 671 648 592 562 588 630
0 0 0 0 0 0 0 0 0 0 0 0 0 0 0 0 0 0 0 0 0 0 0 0 0 0 0 0 0 3 38 143 98 214 184 321 79 271 850 840 782 788 825 793
0 0 0 0 0 0 0 0 0 0 0 0 0 0 0 0 0 0 0 0 0 0 0 0 0 0 0 0 0 0 7 10 27 9 77 112 117 126 220 991 1100 942 970 984
0 0 0 0 0 0 0 0 0 0 0 0 0 0 0 0 0 0 0 0 0 0 0 0 0 0 0 0 0 0 0 3 0 0 0 0 36 110 217 349 819 1436 1351 1176
0 0 0 0 0 0 0 0 0 0 0 0 0 0 0 0 0 0 0 0 0 0 0 0 0 0 0 0 0 0 0 7 0 12 0 0 0 1 47 375 570 469 865 1045
0 0 0 0 0 0 0 0 0 0 0 0 0 0 0 0 0 0 0 0 0 0 0 0 0 0 0 0 0 0 0 15 0 0 0 0 3 5 160 222 620 1474 869 770
0 0 0 0 0 0 0 0 0 0 0 0 0 0 0 0 0 0 0 0 0 0 0 0 0 0 0 0 0 0 0 14 0 0 0 0 0 0 5 13 74 676 1383 1372

GFSCGP_con_mucape_069.txt.gz
CAPE
0 0 0 0 0 0 0 0 0 0 0 0 0 10 32 736 785 277 145 78 81 92 128 227 111 237 167 28 124 252 539 804 735 616 550 880 965 884 945 1040 1305 1268 1463 1502
0 0 0 0 0 0 0 0 0 0 0 0 0 0 577 401 828 659 218 77 79 105 123 106 160 184 171 113 189 382 589 865 892 608 741 894 1034 1012 1236 1302 1418 1391 1547 1434
0 0 0 0 0 0 0 0 0 0 0 1 188 190 539 614 705 822 636 176 85 61 89 87 131 129 167 190 263 376 630 888 1042 729 785 867 969 1009 1212 1391 1384 1436 1551 776
0 0 0 0 0 0 0 0 0 0 0 0 0 0 155 629 604 778 845 547 242 148 66 83 98 72 106 205 290 421 573 780 1067 956 846 965 948 967 1049 1334 1239 1543 1730 1374
0 0 0 0 0 0 0 0 0 0 0 0 0 0 0 263 591 710 869 739 349 249 146 59 58 94 34 148 253 347 495 675 1048 1109 1054 979 1153 1008 1243 1328 1807 1754 2206 1834
0 0 0 0 0 0 0 0 0 0 0 0 0 0 0 0 0 33 490 798 604 365 196 141 82 144 137 188 253 269 421 766 890 1056 1016 1094 1178 1221 1119 1212 1502 1491 1757 2564
0 0 0 0 0 0 0 0 0 0 0 0 0 0 0 0 0 0 0 75 804 582 364 196 167 128 259 288 325 329 395 587 755 910 992 1011 1114 1448 1521 1563 1280 1545 1556 1856
0 0 0 0 0 0 0 0 0 0 0 0 0 0 0 0 0 0 30 10 448 753 558 380 254 249 355 365 440 438 429 538 614 776 1214 1353 1136 1014 1057 1390 1089 1234 1312 1544
0 0 0 0 0 0 0 0 0 0 0 0 0 0 0 0 0 0 174 239 269 684 759 572 373 317 370 437 495 508 563 589 566 623 1069 1072 1107 1101 1215 1262 1352 1132 1481 1356
0 0 0 0 0 0 0 0 0 0 0 0 0 0 0 0 0 39 118 225 98 354 799 753 535 349 334 447 491 496 603 675 687 603 743 755 789 989 1106 1288 1489 1385 1495 1673
0 0 0 0 0 0 0 0 0 0 0 0 0 0 0 0 0 40 71 84 295 561 390 703 669 458 364 324 372 418 537 626 627 591 900 789 629 617 814 862 1244 1572 1684 1791
0 0 0 0 0 0 0 0 0 0 0 0 0 0 0 0 0 206 222 141 198 359 365 445 558 334 393 320 299 302 435 489 519 802 1069 816 900 676 578 690 816 1328 1645 1730
0 0 0 0 0 0 0 0 0 0 0 0 0 0 0 0 0 0 297 609 326 160 228 368 429 391 247 323 281 189 252 414 337 518 560 746 749 751 740 812 726 876 1186 1596
0 0 0 0 0 0 0 0 0 0 0 0 0 0 0 0 0 0 0 204 391 409 353 164 201 290 355 231 225 268 259 240 376 415 336 630 578 780 865 1340 1055 798 1085 1121
0 0 0 0 0 0 0 0 0 0 0 0 0 0 0 0 0 0 0 0 26 333 238 248 205 164 212 192 251 211 219 225 301 555 587 620 863 795 500 758 1435 1121 946 1078
0 0 0 0 0 0 0 0 0 0 0 0 0 0 0 0 0 0 0 0 0 0 85 254 223 263 338 182 109 133 146 150 147 213 664 912 1203 1202 1141 1070 1005 1412 1179 1057
0 0 0 0 0 0 0 0 0 0 0 0 0 0 0 0 0 0 0 0 0 0 0 1 282 208 122 58 149 106 87 125 178 239 215 644 1021 1174 1335 1011 1095 1315 1310 1386
0 0 0 0 0 0 0 0 0 0 0 0 0 0 0 0 0 0 0 0 0 0 0 0 0 57 151 136 148 73 108 123 119 614 233 466 830 954 1170 1062 1144 1274 1062 1303
0 0 0 0 0 0 0 0 0 0 0 0 0 0 0 0 0 0 0 0 0 0 0 0 0 0 0 24 30 102 124 112 121 304 532 774 805 880 934 1085 1469 1158 912 977
0 0 0 0 0 0 0 0 0 0 0 0 0 0 0 0 0 0 0 0 0 0 0 0 0 0 0 0 0 10 80 168 161 188 186 362 659 464 1256 1096 1188 1249 1230 980
0 0 0 0 0 0 0 0 0 0 0 0 0 0 0 0 0 0 0 0 0 0 0 0 0 0 0 0 0 0 9 123 181 100 52 46 51 402 365 605 1576 1317 1299 1335
0 0 0 0 0 0 0 0 0 0 0 0 0 0 0 0 0 0 0 0 0 0 0 0 0 0 0 0 0 0 0 0 4 140 85 65 28 65 255 537 424 1635 1825 1864
0 0 0 0 0 0 0 0 0 0 0 0 0 0 0 0 0 0 0 0 0 0 0 0 0 0 0 0 0 0 0 0 0 0 9 2 5 10 40 438 611 681 965 1674
0 0 0 0 0 0 0 0 0 0 0 0 0 0 0 0 0 0 0 0 0 0 0 0 0 0 0 0 0 0 0 0 0 0 9 3 0 4 10 37 214 474 573 976
0 0 0 0 0 0 0 0 0 0 0 0 0 0 0 0 0 0 0 0 0 0 0 0 0 0 0 0 0 0 0 0 0 0 0 18 0 1 9 5 21 412 836 708
0 0 0 0 0 0 0 0 0 0 0 0 1 3 12 25 0 0 0 0 0 0 0 0 0 0 0 0 0 0 0 0 0 0 0 0 2 1 7 6 0 0 0 69

GFSCGP_con_mucape_072.txt.gz
CAPE
0 0 0 0 0 0 0 1 21 0 174 126 9 0 177 726 936 636 70 325 386 186 159 158 480 462 562 249 103 302 473 881 914 954 877 961 1107 1117 1165 1305 1568 1607 1551 1616
0 0 0 0 0 0 0 0 10 0 0 0 0 0 155 218 769 1050 378 255 510 328 221 220 551 581 396 205 0 266 466 1077 990 555 744 911 1068 1094 1235 1356 1683 1297 1625 1578
0 0 0 0 0 0 0 0 17 8 0 0 0 2 397 442 507 837 725 725 617 463 288 405 679 578 287 212 145 346 731 1096 934 595 963 1599 1568 1805 2164 1713 1578 1585 1896 1731
0 0 0 0 0 0 0 0 0 0 0 0 0 132 170 779 678 968 740 658 540 621 541 429 545 554 322 258 290 452 921 1203 1164 1251 1107 1413 1026 810 938 1333 1311 1773 1854 1574
0 0 0 0 0 0 19 0 0 0 0 0 0 5 131 251 723 648 905 896 691 317 237 583 479 578 399 359 397 547 1092 1352 1334 1548 1226 1426 1500 939 1205 1116 2282 1891 2297 1643
0 0 0 0 2 0 10 0 0 0 0 0 0 0 10 43 1 29 824 1197 1023 819 393 455 554 556 499 462 567 628 1098 1594 1625 1838 1997 1629 1401 1400 834 1239 3047 1227 2055 1708
0 0 0 1 7 0 4 0 0 0 0 0 1 0 2 0 0 6 40 134 1260 1062 900 706 661 612 566 451 604 737 1100 1542 1628 1689 1807 1836 1799 1807 1675 2115 795 1433 1551 1230
0 0 0 0 2 1 0 3 0 0 0 0 0 0 0 0 10 350 432 146 151 1247 1071 878 798 718 693 600 694 820 1104 1515 1535 1541 1781 1967 1862 1563 1456 1380 806 1183 1153 1360
10 0 0 0 0 0 0 6 3 0 0 5 0 0 0 0 39 72 300 430 458 1164 1202 990 907 849 806 860 832 1020 1156 1618 1617 1470 1639 1919 1963 1788 1189 1266 1411 1138 1225 1204
0 0 0 0 0 0 0 0 0 0 0 0 0 0 0 0 3 26 39 394 640 785 1117 1233 1000 970 871 935 959 1084 1199 1539 1707 1599 1573 1646 1775 1885 1707 1583 1720 1411 1107 1611
0 0 0 0 0 0 0 0 0 0 0 1 9 4 0 0 0 0 61 425 636 644 1043 866 1158 890 926 1010 1057 1087 1182 1304 1585 1610 1567 1563 1548 1579 1767 1685 1730 1784 1522 1653
0 0 0 0 0 0 0 0 0 1 5 0 16 0 0 0 1 110 133 241 474 661 527 924 669 1183 740 877 983 1060 1177 1185 1331 1439 1634 1627 1673 1531 1350 1610 1563 1624 1719 1709
0 0 1 0 0 0 0 0 0 0 0 19 0 0 0 0 0 166 186 257 224 422 857 432 719 793 640 538 751 825 941 1004 926 1229 1333 1405 1404 1419 1431 1361 1544 1506 1593 1732
0 0 0 0 0 0 0 0 0 0 1 28 6 0 0 0 0 0 288 249 173 220 177 344 516 448 299 447 562 420 494 857 885 1098 1128 1268 1256 1276 1417 1499 1538 1509 1616 1649
2 5 0 0 0 0 0 0 0 0 0 1 1 0 0 0 0 0 0 100 248 129 205 203 154 299 305 226 194 103 120 122 609 927 1199 1205 1312 1370 1402 1542 1787 1723 1648 1622
0 2 0 0 0 0 0 0 0 0 0 0 0 0 0 0 0 0 0 0 0 179 285 128 118 175 186 292 259 261 184 168 239 754 799 1089 1500 1574 1598 1592 1538 1796 1888 1869
0 0 0 0 0 0 0 0 0 0 0 0 0 0 0 0 0 0 0 0 0 0 0 20 216 167 104 125 241 202 204 131 123 199 730 885 1125 1572 1695 1779 1788 1704 1626 2045
0 0 0 0 0 0 0 0 0 0 0 0 0 0 0 0 0 0 0 0 0 0 0 0 0 80 169 221 216 68 61 64 90 225 208 636 710 1050 1545 2168 1931 1868 1812 1854
0 0 0 0 0 0 0 0 0 0 0 0 0 0 0 0 0 0 0 0 0 0 0 0 0 0 0 44 121 95 142 146 98 140 163 112 317 1082 1209 1397 2062 1969 2043 1921
0 0 0 0 0 0 0 0 0 0 0 0 0 0 0 0 0 0 0 0 0 0 0 0 0 0 0 0 0 0 121 88 104 122 123 137 118 175 548 1279 2072 2548 2165 2021
6 9 10 5 7 1 0 0 0 0 0 0 0 0 0 0 0 0 0 0 0 0 0 0 0 0 0 0 0 0 0 0 1 31 28 105 125 72 98 415 1746 1843 2300 2563
2 12 20 15 21 4 0 0 0 0 0 0 0 0 0 0 0 0 0 0 0 0 0 0 0 0 0 0 0 0 0 0 0 4 46 71 33 64 44 36 41 1006 2297 2528
6 1 26 7 18 0 0 0 0 0 0 0 0 0 0 0 0 0 0 0 0 0 0 0 0 0 0 1 2 0 0 0 0 0 6 15 114 65 44 5 38 55 997 1547
0 0 5 0 0 0 0 0 0 0 0 0 0 0 0 0 0 0 0 0 0 0 0 0 0 0 0 0 0 10 9 0 0 0 0 0 2 35 25 6 12 15 29 436
1 1 0 0 0 0 0 0 0 0 0 0 0 0 0 2 3 3 0 5 0 8 0 0 0 0 0 0 0 0 0 0 0 0 0 0 0 0 15 1 0 0 0 53
0 0 5 15 0 0 0 0 0 0 0 0 0 3 10 14 17 22 23 26 23 24 0 0 0 0 0 0 0 0 0 0 0 0 0 0 0 0 0 0 0 0 0 0

GFSCGP_con_mucape_075.txt.gz
CAPE
0 0 0 0 0 0 1 2 72 109 145 187 253 647 742 1062 624 688 171 134 265 139 173 269 130 382 308 248 179 417 544 1267 931 901 715 811 1316 1998 1943 2205 1670 1527 1829 1444
0 0 0 0 0 0 0 4 85 51 157 177 69 31 418 589 1032 1029 331 123 396 208 166 214 143 471 396 341 222 335 583 1299 1036 987 1677 728 1290 1503 1618 2032 1573 1499 1555 1633
0 0 0 0 0 0 0 17 132 55 0 58 30 61 162 117 467 1239 700 475 547 338 172 214 322 455 514 343 141 314 675 1308 1340 1219 1035 1103 1230 1921 1747 1839 1300 1531 1616 1528
0 0 0 0 0 0 3 0 63 44 10 10 5 71 193 204 225 1342 746 716 551 520 286 220 309 518 416 223 1 258 586 1193 1153 1332 1700 2375 1308 1470 766 1678 2034 1592 1752 1614
0 0 0 0 0 0 9 0 6 73 4 51 57 78 46 424 588 1136 826 933 924 688 374 318 497 586 313 184 181 447 1106 1809 2043 1862 2259 1649 2097 1063 1107 1812 2107 2327 2022 1712
0 0 0 0 0 1 25 31 4 9 16 8 40 1 448 323 422 963 877 808 869 713 642 368 526 517 394 213 217 593 1497 2089 1817 1550 1737 1945 1899 2156 2133 1227 1564 1389 1236 1545
0 1 0 0 1 26 73 58 16 18 9 14 8 8 117 34 5 27 498 443 1086 804 806 665 424 626 418 485 192 484 1430 2005 1903 1827 1882 1833 1871 1682 2233 1747 1305 1083 2209 942
0 0 0 0 9 60 69 53 23 4 4 9 60 69 22 27 391 446 421 264 1103 1025 850 697 805 644 581 652 273 441 1296 2192 2056 1999 2279 2687 2424 1598 1226 1593 1605 1325 1704 1041
61 26 4 0 34 102 58 44 16 87 57 53 111 7 0 110 205 283 665 612 183 1179 814 900 641 1000 564 665 643 661 1826 1898 2132 1953 2238 2597 2612 2393 1577 2537 1702 1506 2317 1122
15 10 0 0 0 5 4 25 76 77 65 79 87 9 33 81 95 130 261 398 478 574 688 605 652 777 749 693 765 481 910 1773 2083 1979 2016 2099 2246 2383 2085 1587 1909 1709 2042 1443
0 14 1 0 0 0 0 0 27 95 41 118 103 28 0 36 37 12 141 260 405 516 638 644 465 385 503 489 900 946 1006 1396 1955 1988 1999 2109 2099 2163 2277 1847 1771 1909 1588 1752
0 0 11 0 0 0 0 7 1 43 32 13 88 8 19 8 0 71 532 376 418 359 395 587 405 408 403 387 502 563 1071 1208 1479 1734 2399 1951 2030 2103 1980 2193 2029 2325 2458 1825
0 0 30 0 0 0 0 0 0 14 43 106 67 1 11 4 78 115 242 725 362 362 433 521 320 383 270 256 420 516 622 808 1055 1625 1563 1828 1846 1952 2001 2073 2101 2704 2557 2298
1 1 9 1 6 0 0 0 0 1 13 35 118 62 0 5 11 60 142 269 264 594 304 500 510 325 279 237 366 523 617 624 598 1074 1321 1656 1841 1877 1857 2308 2750 2044 2923 2599
21 1 0 0 0 1 7 0 0 0 0 76 176 109 4 0 0 6 83 89 119 114 148 260 282 466 387 323 279 427 525 524 587 645 1187 1760 1709 2046 1774 2240 2894 2595 2847 2764
35 7 0 0 0 0 0 0 0 0 0 2 120 34 0 0 0 0 0 116 76 68 352 157 154 147 150 221 405 392 244 207 305 352 584 1342 1479 1827 2315 2297 2282 2810 3027 3201
50 66 57 0 0 0 0 0 0 0 0 7 104 7 0 0 0 0 0 0 0 96 92 35 39 49 141 138 176 198 125 110 103 72 160 500 735 1545 1633 2404 2471 2712 2734 3027
20 51 97 67 57 0 0 0 0 0 0 1 0 0 0 0 0 0 0 0 0 0 0 0 0 144 141 94 54 81 74 85 125 135 179 372 357 644 1006 1985 1945 2373 2610 2612
0 9 45 37 109 32 0 0 0 0 0 0 0 0 0 0 0 0 0 0 0 0 0 0 0 0 0 66 175 126 84 82 52 82 73 136 246 471 551 822 1303 2609 2367 2242
0 1 10 7 32 5 34 0 0 0 0 0 0 0 0 0 0 3 0 0 0 0 0 0 0 0 0 0 0 0 42 102 144 166 79 61 77 100 113 206 918 1098 2333 2165
2 4 7 32 34 66 0 0 0 0 0 0 0 0 0 0 0 0 0 0 0 0 0 0 0 0 0 0 0 0 0 0 76 47 90 126 71 59 78 90 83 103 759 2011
43 79 62 40 72 192 0 0 0 0 0 0 0 0 0 0 0 0 0 0 0 0 0 0 0 0 0 0 0 0 0 0 0 0 0 14 20 35 51 61 46 46 79 444
10 25 203 54 123 23 0 0 1 0 0 0 0 0 0 0 0 0 0 0 0 0 0 0 0 0 0 0 0 0 1 0 0 0 0 0 13 8 17 2 32 27 75 101
0 0 0 4 1 0 0 0 0 0 0 0 0 0 0 0 0 0 0 0 0 0 0 0 0 0 0 0 0 0 1 4 4 0 0 0 0 9 26 67 20 24 0 0
42 11 0 1 0 0 0 0 0 0 0 0 0 0 0 0 0 1 2 4 6 2 2 2 0 0 5 11 1 0 0 0 0 0 0 0 0 0 2 1 21 6 0 0
204 125 343 177 29 24 2 1 0 0 0 0 0 0 0 0 2 4 10 18 4 17 10 3 5 1 13 9 10 13 0 0 0 0 0 0 0 0 0 0 0 0 0 0

GFSCGP_con_mucape_078.txt.gz
CAPE
0 0 0 0 0 0 0 0 43 255 120 105 805 321 685 689 591 263 115 186 37 51 118 141 89 44 19 302 570 1045 1960 2061 1724 1406 1410 909 1518 1737 1702 2400 1762 1370 904 2597
0 0 0 0 0 0 0 1 1 11 90 584 262 193 542 747 595 377 347 218 100 87 71 184 121 191 167 357 582 1314 1913 2257 2058 1462 2134 867 2239 2082 1388 1567 2313 1864 1969 2577
0 0 0 0 0 0 0 0 24 135 6 174 206 512 507 913 652 782 519 216 185 142 101 159 117 265 198 254 566 1150 1991 2119 1890 2481 2303 1545 317 650 324 443 1943 2379 2413 2442
0 0 0 0 0 0 0 0 23 59 51 77 90 147 429 541 794 870 318 145 292 388 54 94 308 381 327 159 588 1125 1741 2005 1578 2482 1937 2531 1994 1304 2055 2114 2200 2398 2321 2302
0 0 0 0 0 0 0 0 1 36 48 0 0 39 104 116 945 1113 615 322 435 394 268 91 115 420 447 182 270 897 1292 2287 1660 2181 2558 2283 2063 1655 1101 1447 1016 1877 2682 2302
0 0 0 0 0 2 0 6 4 6 21 0 7 22 466 229 82 409 1127 702 788 601 371 340 132 442 356 187 11 725 1304 2315 2536 1963 2358 2673 1991 492 234 1682 788 2379 2073 2487
0 0 0 0 0 0 0 28 3 0 14 13 0 26 277 119 102 102 785 1232 816 947 696 481 230 573 482 45 117 1045 1755 2266 2099 1880 2078 2325 2248 2169 1074 1190 643 2019 1296 1823
17 0 0 0 0 0 9 41 53 3 0 0 3 50 96 123 219 352 574 704 1182 1005 646 651 489 826 435 171 225 1220 1993 2258 2359 2248 2613 2526 2665 1995 1633 713 1731 1120 326 1303
18 19 1 0 0 0 36 76 67 58 12 27 119 178 190 217 433 760 682 373 272 717 513 354 756 940 456 568 284 1275 2252 2597 2599 2383 2800 2718 2545 2294 2486 2568 3304 1543 635 1724
0 4 11 0 0 0 29 16 65 33 7 68 139 181 239 264 312 402 384 232 118 414 467 295 323 450 340 747 380 1303 2217 2571 2611 2417 2584 2731 2769 2979 2838 2997 3087 2817 951 386
0 2 7 8 0 0 5 20 2 14 59 111 177 106 373 249 123 53 221 143 76 115 263 267 270 315 343 366 327 164 1933 2534 2677 2628 2545 2543 2605 2780 2827 2833 3232 2870 2394 1007
19 23 22 5 0 0 2 5 0 74 71 30 31 6 149 59 25 0 7 127 182 190 200 43 0 27 298 251 185 309 267 866 2215 2439 2574 2634 2798 2771 2920 2873 2868 3315 3148 2959
0 15 29 9 5 0 0 0 0 10 45 287 44 44 36 2 0 62 62 27 127 171 221 218 117 240 117 152 179 237 229 274 558 1264 2499 2592 2534 2820 2833 3131 2910 3163 3237 3145
0 31 29 14 2 0 0 0 0 0 6 16 121 278 29 0 34 96 172 172 67 138 261 231 187 199 216 150 142 222 134 130 214 569 951 1443 2376 2389 2425 2940 2987 2790 3321 3007
0 9 0 2 0 0 0 0 0 0 0 129 341 373 19 3 32 52 79 104 82 105 110 184 304 142 140 56 25 85 168 101 105 192 295 267 831 2389 3128 2904 2707 3013 2910 2960
0 7 7 0 0 0 0 2 6 0 0 40 180 191 7 0 0 28 7 8 17 43 30 97 97 156 201 143 145 184 98 188 299 343 198 29 379 857 1377 2278 2629 3405 3012 2943
9 11 17 10 5 1 1 0 0 0 0 377 320 58 0 0 1 0 0 0 0 0 21 17 41 63 53 102 45 86 135 108 157 40 193 155 146 35 513 1540 2471 3029 2994 3037
29 218 48 47 1 0 0 0 0 0 20 221 201 34 7 0 0 0 0 0 0 0 0 0 0 0 0 3 15 0 74 76 60 69 90 117 162 268 533 748 930 1350 2534 2778
0 3 56 84 0 6 1 0 0 0 30 68 32 1 1 0 0 0 0 0 0 0 0 0 0 0 3 61 57 65 22 34 30 34 62 83 246 215 203 206 525 637 837 1938
0 0 55 68 46 4 39 0 0 0 35 2 0 0 0 0 0 0 0 0 0 0 0 0 0 0 0 0 0 17 53 88 86 10 39 32 55 39 209 201 188 352 528 742
0 0 8 61 94 179 1 0 0 0 6 0 1 0 0 0 0 0 0 0 0 0 0 0 0 0 0 0 0 0 0 0 0 2 56 64 62 42 4 42 85 126 432 487
38 178 212 36 157 318 2 0 0 2 0 0 0 0 0 0 0 0 0 0 0 0 0 0 0 0 0 0 0 0 0 1 0 0 0 16 43 73 67 18 11 33 53 60
60 35 501 160 377 178 3 1 0 0 0 0 0 0 0 0 0 0 0 0 0 0 0 0 0 0 0 0 0 0 12 9 9 0 0 0 0 0 0 2 2 0 6 25
22 0 16 83 68 74 70 1 0 0 0 0 0 0 0 0 0 0 0 0 0 0 0 0 0 0 0 2 1 0 8 16 13 12 11 8 0 0 0 0 0 0 0 0
182 65 13 18 3 3 0 4 0 0 0 0 0 0 0 0 0 0 0 0 0 0 1 0 0 0 0 8 8 1 10 7 0 0 0 0 0 0 0 0 0 0 0 0
85 113 440 473 112 160 114 26 14 0 0 0 0 0 0 0 0 0 0 4 0 1 6 3 1 0 1 7 8 22 21 15 0 0 0 0 0 0 0 0 0 0 0 0

GFSCGP_con_mucape_081.txt.gz
CAPE
0 0 0 0 0 0 0 0 55 132 146 202 220 54 0 289 315 226 310 27 17 33 60 62 24 12 12 144 27 508 300 668 90 404 767 680 601 121 427 499 311 1009 708 1404
0 0 0 0 0 0 0 0 2 180 476 422 208 53 41 85 440 181 37 5 10 33 65 48 33 17 11 63 42 543 629 525 152 136 698 543 425 767 651 784 675 913 502 1460
0 0 0 0 0 0 0 0 0 118 82 277 256 353 163 374 401 135 47 115 13 39 46 45 22 0 27 80 142 584 506 776 383 272 757 543 621 501 339 414 699 1122 1057 1281
0 0 0 0 0 0 0 0 0 97 73 96 304 109 267 654 398 209 90 107 43 69 49 62 15 28 8 77 175 512 747 779 519 1054 675 521 388 430 377 123 700 1269 1389 1140
0 0 0 0 0 0 0 0 1 67 42 48 113 115 242 558 495 312 295 207 88 53 102 89 125 52 71 80 211 291 1025 743 121 691 999 572 339 683 629 934 1031 1144 1107 1321
0 0 0 0 0 0 0 0 0 4 4 21 6 73 281 557 403 546 257 251 247 313 361 93 104 109 75 78 180 255 1111 694 346 463 1056 894 364 311 346 647 548 969 1269 1444
0 0 0 0 0 0 0 0 0 0 30 6 18 28 265 458 591 425 183 24 211 307 284 108 106 200 204 113 178 253 653 1113 1015 654 1043 912 487 266 13 357 565 897 1134 1246
0 0 0 0 0 0 0 0 0 0 0 2 39 244 121 139 317 88 33 169 436 507 364 182 141 256 240 123 211 285 350 1182 1139 976 963 825 887 489 534 505 216 668 657 883
3 0 0 0 0 0 0 0 3 14 0 1 385 290 141 17 8 23 129 263 497 526 214 401 234 266 295 174 108 341 599 920 1279 1015 1194 1136 936 874 573 286 289 651 151 791
0 0 0 0 0 0 0 1 48 5 27 32 481 355 324 316 331 429 317 429 548 438 300 320 236 179 375 205 165 738 1007 1103 1369 1600 1516 1664 1724 1360 1131 1058 922 933 708 755
0 0 4 2 0 0 1 0 7 25 13 1 79 66 308 236 210 277 371 324 395 434 273 279 252 163 366 221 167 387 602 831 1264 1494 1568 1615 1653 1513 1303 1385 1411 1093 734 554
0 2 0 1 1 0 1 22 28 9 21 33 83 22 112 173 150 89 193 304 291 236 344 268 254 89 91 148 143 146 155 446 500 751 1111 1548 1851 1815 1699 1645 1281 1590 851 916
0 8 22 14 9 0 1 37 11 7 32 64 40 30 52 119 131 20 7 175 142 191 257 207 137 104 151 146 63 46 226 159 337 466 559 943 1625 1812 1619 1698 1871 2037 1217 890
0 26 48 12 2 0 0 21 0 18 3 127 46 38 21 60 51 23 1 6 97 164 236 209 156 66 135 218 146 125 91 85 227 238 273 500 731 957 1202 1815 2142 2113 2107 1571
0 6 0 25 3 0 0 0 0 8 12 178 169 72 24 0 1 1 4 71 54 68 181 361 267 129 265 80 89 95 124 28 45 44 58 176 528 521 516 581 1224 2034 2118 2236
0 21 0 0 1 0 0 0 0 15 217 324 328 61 0 0 18 60 91 59 57 54 76 117 275 319 378 151 95 61 110 111 97 24 43 81 121 111 177 128 455 1274 1608 1949
14 19 0 0 1 33 2 0 0 150 295 218 152 30 32 0 0 1 3 8 36 71 49 90 102 131 148 127 85 95 81 47 101 129 70 32 81 43 37 120 199 593 1269 1547
0 13 0 0 0 17 0 0 0 0 128 85 1 1 6 8 0 0 0 0 2 7 19 20 23 44 54 60 32 46 73 73 49 34 53 13 65 100 136 210 240 542 715 968
0 0 0 0 0 0 0 0 0 0 22 207 89 23 0 3 1 0 0 0 0 0 0 0 0 0 13 9 13 41 24 25 51 43 63 47 83 125 80 157 270 223 302 640
0 0 0 5 19 0 0 0 0 0 19 197 102 39 2 0 0 0 0 0 0 0 0 0 0 0 0 0 0 0 1 40 45 47 44 35 99 88 53 96 112 85 98 196
0 0 0 0 29 34 1 0 0 9 15 65 95 14 0 0 0 0 0 0 0 0 0 0 0 0 0 0 0 0 0 0 0 6 12 0 15 47 38 42 42 41 85 93
0 1 20 0 3 14 0 0 0 0 6 20 10 0 0 0 0 0 0 0 0 0 0 0 0 0 0 0 0 0 0 0 0 0 0 0 0 0 13 4 23 27 0 31
0 18 0 57 32 0 0 0 3 0 0 2 18 1 0 0 0 0 0 0 0 0 0 0 0 0 0 0 0 0 0 0 0 0 0 0 0 0 0 0 0 0 1 0
1 0 0 1 118 46 6 7 2 0 0 0 0 0 0 0 0 0 0 0 0 0 0 0 0 0 0 0 0 0 0 0 0 0 0 0 0 0 0 0 0 0 0 0
22 42 1 0 0 0 2 0 0 0 0 0 0 0 0 0 0 0 0 0 0 0 0 0 0 0 0 0 0 0 0 0 0 0 0 0 0 0 0 0 0 0 0 0
2 44 16 22 124 202 86 17 0 0 0 0 0 0 0 0 0 0 0 0 0 0 0 0 0 0 0 0 0 0 0 0 0 0 0 0 0 0 0 0 0 0 0 0

GFSCGP_con_mucape_084.txt.gz
CAPE
0 0 0 0 0 0 15 6 40 163 376 240 281 80 116 222 346 158 37 18 35 46 42 20 181 275 229 173 144 130 174 68 233 428 381 301 256 382 604 368 173 525 936 1152
0 0 0 0 0 0 21 23 41 467 342 221 211 209 128 233 299 252 64 27 49 64 45 22 134 179 166 234 231 214 180 54 0 307 540 526 404 314 444 527 509 529 488 1134
0 0 0 0 0 0 0 45 13 192 409 245 138 94 67 23 277 275 127 77 57 47 38 25 6 39 68 67 292 258 323 105 7 68 636 599 491 455 544 626 715 836 722 1106
0 0 0 0 0 0 0 27 3 194 130 78 188 2 184 16 148 286 107 85 80 58 48 32 40 41 101 60 352 305 389 161 103 345 366 553 501 411 436 436 624 1083 993 977
0 0 0 0 0 0 0 10 0 26 77 174 105 89 77 139 383 220 160 105 90 69 83 53 28 63 69 122 302 259 344 306 328 792 609 472 470 442 464 447 434 1154 1023 1043
0 0 0 0 0 0 0 22 56 95 88 46 79 117 100 385 344 310 319 172 95 78 75 62 52 62 72 134 211 530 324 329 336 638 750 709 453 403 659 626 513 942 1030 1162
0 0 0 0 0 0 0 9 0 41 47 14 12 63 61 337 497 343 362 304 149 104 139 47 55 52 69 137 210 626 438 364 225 200 671 749 637 367 499 637 604 840 921 1061
0 0 0 0 0 0 0 0 0 0 32 4 14 20 59 365 537 487 353 211 136 134 289 165 159 94 105 93 244 310 692 489 399 301 564 718 686 469 182 261 548 537 825 848
0 0 0 0 0 0 0 0 0 15 0 13 178 87 197 440 461 476 455 189 113 175 346 336 205 167 170 120 257 238 701 646 506 611 567 693 704 469 380 529 389 351 779 642
0 0 0 0 0 0 0 0 19 37 0 0 185 77 12 243 546 454 400 125 254 230 345 399 292 247 303 167 178 290 290 790 746 714 825 741 763 830 408 476 473 351 545 743
0 0 0 0 0 0 0 0 29 50 4 0 89 74 78 111 327 251 199 215 318 543 416 377 272 201 262 266 180 280 337 397 510 827 769 1039 1140 923 862 835 828 887 779 690
0 0 0 0 0 0 0 2 58 86 43 86 59 50 343 195 83 126 291 336 354 296 339 401 213 181 188 232 201 259 241 161 204 205 431 646 756 995 1110 1142 1143 1162 1041 682
0 0 2 8 10 0 0 0 19 29 24 27 8 1 147 194 141 89 69 180 289 255 246 179 172 242 165 187 286 236 166 147 144 132 173 247 377 545 652 956 1221 1103 1034 873
0 0 20 50 15 0 0 0 6 15 24 17 4 0 12 41 76 23 2 38 251 140 272 254 149 192 171 88 136 191 104 118 111 84 71 126 260 321 450 703 830 963 1132 1056
1 3 1 26 0 0 0 0 0 0 15 13 0 0 2 18 34 15 4 0 18 71 58 133 256 158 137 113 108 126 150 35 27 50 49 34 101 162 267 397 431 560 851 1102
0 0 0 0 2 0 0 0 8 33 197 24 0 0 0 0 0 0 7 0 10 50 94 100 154 183 131 106 177 90 64 56 12 77 118 52 79 85 58 53 116 136 243 700
0 0 0 0 0 0 2 0 11 169 278 24 28 0 0 0 2 0 0 5 9 30 59 165 118 163 311 238 78 68 76 95 82 108 100 74 54 33 35 69 76 67 52 295
0 0 0 0 0 16 1 0 15 83 168 153 50 1 2 0 6 0 2 3 56 56 64 64 177 168 289 412 219 223 154 109 102 156 211 116 111 111 61 86 103 104 59 227
0 0 0 0 0 0 0 0 0 0 39 72 62 36 29 0 0 0 0 0 9 9 33 33 44 30 43 76 41 30 47 73 108 104 96 58 88 50 37 9 93 90 132 172
0 0 0 0 0 0 0 0 1 0 0 33 1 0 0 0 0 0 0 0 0 0 0 1 0 0 0 0 0 11 12 9 22 36 36 66 128 83 95 96 135 115 144 118
0 0 0 0 0 0 0 0 0 0 0 63 37 9 7 0 0 0 0 0 0 0 0 0 0 0 0 0 0 0 0 0 0 0 4 32 3 31 77 81 74 139 111 86
0 0 0 0 0 0 0 0 0 0 0 36 96 25 13 17 2 7 4 0 0 0 0 0 0 0 0 0 0 0 0 0 0 0 0 0 0 0 0 4 25 34 74 74
0 0 0 0 0 0 0 0 0 0 1 40 54 81 73 54 23 5 0 0 0 0 0 0 0 0 0 0 0 0 0 0 0 0 0 0 0 0 0 0 0 0 0 2
0 0 0 0 0 0 0 0 0 0 5 0 22 29 23 18 0 0 0 0 0 0 0 0 0 0 0 0 0 0 0 0 0 0 0 0 0 0 0 0 0 0 0 0
0 0 0 0 0 0 0 0 0 2 21 20 4 0 0 0 0 0 0 0 0 0 0 0 0 0 0 0 0 0 0 0 0 0 0 0 0 0 0 0 0 0 0 0
0 0 0 0 0 0 0 0 0 0 1 0 0 0 0 0 0 0 0 0 0 0 0 0 0 0 0 0 0 0 0 0 0 0 0 0 0 0 0 0 0 0 0 0

GFSCGP_con_mucape_087.txt.gz
CAPE
0 0 8 28 1 0 4 13 3 167 548 385 205 170 256 266 362 41 11 27 28 23 132 107 201 238 219 231 360 227 11 143 114 377 317 329 390 420 389 441 513 705 880 979
0 0 0 15 2 0 14 32 49 322 419 230 236 158 154 172 367 163 59 34 36 55 62 190 195 198 177 166 293 306 183 328 279 217 244 261 219 299 449 455 352 337 652 705
0 0 0 0 19 18 10 39 27 180 245 125 169 93 128 149 275 262 357 85 41 37 30 140 174 195 171 172 221 277 144 136 295 304 339 388 384 306 221 490 618 521 692 602
0 0 0 0 0 3 9 80 44 331 254 128 134 44 42 65 200 270 266 239 44 30 15 69 166 162 186 175 139 158 117 38 119 263 429 424 361 413 332 453 474 616 891 923
0 0 0 0 0 0 0 84 47 201 197 97 145 7 4 5 64 30 191 202 87 54 43 50 78 153 209 161 184 121 132 64 72 189 334 374 402 358 303 358 319 701 967 867
0 0 0 0 0 0 0 8 63 17 47 59 36 11 3 83 54 170 265 197 108 71 63 57 36 55 126 112 233 222 175 137 103 218 206 255 405 464 431 421 221 592 984 943
0 0 0 0 0 0 0 0 24 59 39 40 26 19 0 86 195 250 322 211 99 91 87 55 39 44 71 75 267 262 223 167 191 515 522 462 469 397 354 482 290 637 835 935
0 0 0 0 0 0 0 0 2 10 79 29 3 1 0 205 439 415 327 217 127 141 67 99 81 49 50 59 249 318 203 170 227 463 487 500 636 494 373 538 507 619 721 787
0 0 0 0 0 0 0 0 0 0 0 0 18 8 65 304 583 494 350 283 217 152 263 109 90 53 94 85 153 410 327 206 202 143 201 500 533 569 399 207 328 458 521 670
0 0 0 0 0 0 0 0 0 0 0 0 75 25 9 145 577 519 361 292 255 225 198 280 141 163 79 80 221 249 558 352 275 281 208 376 519 492 406 270 432 340 249 534
0 0 0 0 0 0 0 0 0 0 0 0 80 52 48 126 447 458 358 297 271 88 159 370 311 285 252 144 237 251 287 423 469 478 482 463 498 520 540 373 288 425 178 356
0 0 0 0 0 0 0 0 0 0 2 9 15 21 83 117 306 323 304 276 128 160 123 226 274 253 303 304 241 280 285 199 157 238 535 636 718 704 774 573 597 735 927 820
0 0 0 7 14 0 0 0 0 0 0 2 0 0 38 128 94 203 203 148 173 165 116 153 233 168 215 274 236 288 276 194 86 107 168 322 377 449 540 596 768 751 900 878
2 0 2 40 44 7 0 0 0 0 0 0 0 0 49 100 164 130 84 51 24 182 196 380 236 239 256 224 205 159 156 146 80 89 82 100 168 185 224 245 393 608 604 817
10 1 3 42 56 14 0 0 0 0 0 0 0 0 18 47 72 50 69 38 70 35 104 197 135 231 231 185 240 185 160 93 78 70 63 32 82 68 53 119 135 255 415 472
0 2 0 0 15 23 24 0 0 12 0 0 0 0 6 3 23 24 64 38 24 53 20 34 193 175 238 180 144 103 97 34 0 38 40 0 14 58 35 39 51 71 112 124
0 0 0 0 0 5 21 0 0 55 77 0 0 0 0 9 46 34 36 15 34 11 24 46 177 162 175 212 190 144 230 67 33 19 42 52 62 47 58 31 32 52 23 40
0 0 0 0 0 0 0 0 0 0 20 14 0 0 0 6 0 19 7 3 3 33 10 108 118 63 164 147 258 166 214 119 73 66 63 42 60 45 76 47 29 45 24 16
0 0 0 0 0 0 0 0 0 0 0 18 7 45 31 26 17 0 5 8 56 97 22 36 80 96 192 378 238 208 162 274 243 136 143 168 102 71 103 76 80 47 33 23
0 0 0 0 0 0 0 0 0 0 0 53 68 85 37 65 28 4 12 30 58 107 117 111 82 67 60 72 65 72 29 5 9 1 41 113 90 115 125 90 8 0 1 43
0 0 0 0 0 0 0 0 0 0 0 89 137 104 71 43 48 2 0 0 0 0 0 0 0 0 0 0 0 0 0 0 0 0 1 20 33 98 159 71 72 34 32 30
0 0 0 0 0 0 0 0 0 0 0 6 88 35 52 51 46 34 7 0 0 0 0 0 0 0 0 0 0 0 0 0 0 0 0 0 0 4 0 14 123 115 68 54
0 0 0 0 0 0 0 0 0 0 0 0 21 106 119 94 66 62 73 28 6 0 0 0 0 0 0 0 0 0 0 0 0 0 0 0 0 0 0 0 0 0 1 6
0 0 0 0 0 0 0 0 0 0 0 0 31 59 112 101 54 66 52 14 16 0 0 0 0 0 0 0 0 0 0 0 0 0 0 0 0 0 0 0 0 0 0 0
0 0 0 0 0 0 0 0 0 0 0 0 0 6 15 29 29 20 11 0 0 0 0 0 0 0 0 0 0 0 0 0 0 0 0 0 0 0 0 0 0 0 0 0
0 0 0 0 0 0 0 0 0 0 0 0 0 0 0 2 1 0 0 0 0 0 0 0 0 0 0 0 0 0 0 0 0 0 0 0 0 0 0 0 0 0 0 0

GFSCGP_con_mucape_090.txt.gz
CAPE
0 0 7 193 72 0 72 18 52 157 281 468 356 80 142 147 171 17 40 73 107 126 135 114 57 173 248 278 281 260 312 264 109 162 184 242 360 344 454 408 489 674 828 798
0 0 42 167 49 0 55 23 170 330 577 201 41 103 114 174 287 34 11 31 65 122 132 136 127 178 205 249 286 285 213 64 182 194 170 197 228 322 409 355 378 459 621 709
0 0 4 166 76 1 0 29 87 145 207 176 94 93 154 114 190 232 167 5 3 9 47 101 113 152 179 192 194 316 51 0 58 238 202 212 203 210 277 416 417 397 559 487
0 0 0 113 92 30 1 46 57 295 216 70 102 14 67 85 111 153 233 97 36 23 35 128 121 140 146 149 147 299 81 160 104 156 218 259 290 342 188 274 423 518 771 623
0 0 0 0 41 25 50 27 64 190 170 110 109 75 0 60 100 132 190 226 57 28 46 146 128 152 164 136 106 209 203 106 194 211 289 246 266 273 303 315 348 457 801 800
0 0 0 0 0 6 73 36 24 40 84 74 75 118 0 27 18 78 161 170 165 52 53 125 153 150 140 128 78 108 190 100 61 178 243 278 268 342 281 309 273 290 860 768
0 0 0 0 0 0 17 11 6 1 9 0 0 58 0 10 35 5 77 200 189 122 39 47 116 78 117 122 153 111 90 84 6 46 125 190 180 326 363 335 236 287 692 836
0 0 0 0 0 0 0 1 0 0 9 13 7 3 0 7 179 229 114 192 159 159 101 46 68 39 81 87 186 160 119 68 32 115 149 122 155 338 319 258 428 300 493 748
0 0 0 0 0 0 0 0 0 0 0 29 8 3 0 39 366 423 311 272 243 175 117 76 87 63 58 34 71 164 187 141 116 134 338 374 360 376 355 278 219 366 488 565
0 0 0 0 0 0 0 0 0 0 0 2 41 7 0 66 353 524 445 369 289 197 164 108 92 78 88 58 59 208 186 175 144 117 305 394 377 401 435 331 204 165 307 358
0 0 0 0 0 0 0 0 0 0 0 0 16 1 7 33 225 523 500 406 298 250 225 170 143 90 74 75 166 233 415 379 156 42 160 149 257 381 394 349 285 217 284 130
0 0 0 0 0 0 0 0 0 0 0 0 2 0 75 51 186 559 485 342 283 215 185 184 214 260 130 102 215 184 218 186 189 117 232 318 395 470 452 435 329 368 338 423
1 0 0 0 0 0 0 0 0 0 0 4 3 0 67 131 286 427 394 277 241 187 133 146 192 362 310 234 220 210 169 150 153 108 103 205 385 498 521 462 411 442 582 606
3 0 2 9 0 0 0 0 0 0 0 0 0 0 68 174 257 259 273 230 159 136 99 115 243 213 254 280 315 251 228 256 213 171 81 80 129 184 210 205 185 199 303 550
1 27 29 20 28 4 0 0 0 0 0 0 0 0 5 75 227 210 229 145 82 52 86 300 382 296 354 221 181 151 166 173 107 111 82 65 44 35 32 31 65 95 79 120
16 29 67 27 19 25 19 0 0 46 0 0 0 0 0 173 217 214 159 164 127 93 55 132 143 126 376 344 325 250 204 153 142 57 14 26 22 54 47 0 38 47 74 91
0 2 12 0 14 22 27 12 0 4 33 0 0 0 0 109 104 63 65 116 97 95 64 38 177 234 303 481 431 110 98 105 79 18 46 13 15 23 29 7 36 62 48 52
0 0 0 0 4 1 0 0 0 0 18 0 0 0 0 46 43 52 76 52 49 82 86 56 37 85 158 206 433 346 191 194 109 43 27 18 20 23 52 46 76 44 51 52
0 0 0 0 0 0 0 0 0 0 0 11 37 30 77 98 86 118 91 33 9 8 31 36 118 67 97 108 201 212 320 384 245 179 82 47 43 31 67 55 45 29 45 34
0 0 0 0 0 0 0 0 0 0 0 10 61 156 138 111 151 84 35 1 7 105 38 81 144 114 136 110 136 141 108 150 195 185 111 100 154 66 28 15 21 14 28 10
0 0 0 0 0 0 0 0 0 0 0 33 68 90 117 146 130 89 75 77 92 119 128 94 78 47 47 64 114 113 112 172 85 9 0 4 117 170 67 68 86 114 25 19
0 0 0 0 0 0 0 0 0 0 0 1 59 62 104 135 97 54 50 29 46 18 5 0 0 0 0 0 0 0 0 0 0 0 0 0 0 8 47 94 170 129 44 17
0 0 0 0 0 0 0 0 0 0 0 0 3 131 152 102 72 53 48 13 5 0 0 0 0 0 0 0 0 0 0 0 0 0 0 0 0 0 0 0 0 0 42 84
0 0 0 0 0 0 0 0 0 0 0 0 0 10 116 126 89 75 57 58 48 27 2 0 0 0 0 0 0 0 0 0 0 0 0 0 0 0 0 0 0 0 0 0
0 0 0 0 0 0 0 0 0 0 0 0 0 0 16 37 84 84 35 25 30 0 0 0 0 0 0 0 0 0 0 0 0 0 0 0 0 0 0 0 0 0 0 0
0 0 0 0 0 0 0 0 0 0 0 0 0 0 0 0 10 25 2 0 0 2 0 0 0 0 0 0 0 0 0 0 0 0 0 0 0 0 0 0 0 0 0 0

GFSCGP_con_mucape_093.txt.gz
CAPE
0 0 0 30 20 16 54 42 59 103 330 303 205 319 214 127 177 178 188 185 175 163 271 271 300 361 461 624 699 795 842 927 694 816 970 1023 1029 1370 1351 1051 1459 1652 1989 1517
0 0 0 58 41 46 17 29 38 411 369 252 167 123 91 275 159 204 217 230 184 264 306 188 247 374 473 688 770 867 928 902 783 870 947 959 1148 1002 1255 1344 1303 1404 1649 2034
0 0 0 60 76 73 34 45 343 250 189 51 19 0 76 175 508 193 204 218 248 265 268 265 265 378 474 649 805 885 963 874 771 768 899 958 972 985 1233 1350 1266 1131 1536 1558
0 0 0 35 97 78 48 22 49 466 251 173 74 0 7 144 314 414 154 138 180 263 275 320 371 443 418 568 705 833 915 733 650 897 965 1220 1326 1643 953 1167 1416 1440 1531 1440
0 0 0 2 89 79 38 0 19 383 181 242 50 13 0 173 270 534 513 193 78 97 209 308 376 507 430 516 580 703 783 683 550 794 1041 1038 1584 1040 991 1036 1504 1717 1966 1763
0 0 0 0 125 153 55 12 10 90 127 17 149 77 0 253 424 404 437 439 197 33 122 296 154 377 465 450 459 524 797 708 844 810 972 1230 1142 1440 1172 1242 1162 1268 1654 1826
0 0 0 0 0 149 80 74 11 1 5 2 12 215 54 192 100 170 202 443 480 98 91 322 299 364 448 402 338 133 708 922 630 747 973 1094 1139 1337 1461 1310 1227 1071 1703 1999
0 0 0 0 0 0 70 57 8 0 2 0 25 10 45 44 40 230 356 343 529 257 123 218 436 306 100 123 337 301 528 853 700 534 786 1056 1113 922 1095 1193 1239 1174 1747 2423
0 0 0 0 0 0 0 0 10 6 2 0 55 107 98 118 240 323 327 281 463 316 222 197 477 469 326 50 306 577 631 774 591 542 659 885 989 1012 1087 1206 1229 1292 1472 1255
0 0 0 0 0 0 0 0 0 22 4 5 101 120 217 286 199 412 298 243 223 278 261 203 291 423 419 130 43 279 219 612 832 549 677 1061 1224 1113 1032 857 779 1009 1197 1377
0 0 0 0 0 0 0 0 0 0 0 3 14 43 177 356 283 385 460 337 290 256 277 185 194 215 240 116 31 268 434 691 510 165 374 643 1067 1040 1072 1113 1159 1135 1077 920
0 0 0 0 0 0 0 0 0 0 0 22 29 27 0 60 222 247 503 484 429 392 322 256 188 194 312 225 202 271 630 751 712 524 234 232 758 805 1146 1338 1153 1267 1120 1041
7 0 0 0 0 0 0 0 0 0 8 57 0 16 10 105 175 364 690 575 493 400 346 292 260 195 384 383 349 182 193 275 164 84 67 49 137 1138 1447 1369 1377 1292 1391 1492
33 15 15 10 0 0 0 0 0 0 0 32 10 44 14 193 273 564 620 489 354 331 329 278 223 230 435 368 453 500 311 207 146 121 116 94 129 243 366 428 526 812 1276 1562
31 32 10 0 0 0 0 21 38 0 0 0 1 21 86 147 349 417 446 392 320 247 234 186 234 251 331 403 274 226 201 181 152 119 110 74 72 189 242 283 229 224 375 652
15 29 3 8 4 0 0 3 156 78 32 23 23 34 0 44 310 320 281 246 174 131 136 195 405 428 624 689 260 315 325 249 181 173 103 78 67 70 34 103 133 123 134 181
5 0 1 7 7 22 21 0 0 0 27 40 39 27 0 47 267 348 305 275 244 179 126 118 266 603 322 538 361 177 203 176 147 121 65 103 47 41 33 51 26 31 11 28
0 3 0 0 28 6 0 0 0 0 3 3 0 0 2 179 266 177 130 134 175 169 109 122 130 274 461 479 521 311 119 156 159 69 5 43 35 11 29 54 6 33 60 29
0 0 0 5 1 0 0 0 0 0 0 5 2 26 53 148 149 126 136 109 59 30 41 82 105 246 246 213 246 312 238 171 100 65 45 43 13 12 5 5 0 24 51 47
0 0 0 0 0 0 0 0 0 0 0 11 24 71 110 140 186 152 144 83 15 16 0 13 61 113 92 151 186 163 174 179 250 162 94 113 93 80 58 62 10 1 3 5
0 0 0 0 0 0 0 0 0 0 0 0 53 73 101 124 114 95 75 36 36 33 13 51 47 76 86 112 78 128 112 169 230 208 154 89 67 47 171 44 12 2 14 57
0 0 0 0 0 0 0 0 0 0 0 0 8 42 73 61 80 61 79 66 86 71 62 66 69 39 29 15 29 64 53 42 40 50 30 11 0 14 103 160 49 33 66 141
18 0 190 0 0 0 0 0 0 0 0 0 0 21 45 57 73 29 58 66 80 54 7 0 0 0 0 0 0 0 0 0 0 0 0 0 0 0 0 1 15 70 106 59
0 0 7 1 0 0 0 0 0 0 0 0 0 0 0 81 92 69 60 34 0 0 0 0 0 0 0 0 0 0 0 0 0 0 0 0 0 0 0 0 0 0 0 0
0 0 0 0 0 0 0 0 0 0 0 0 0 0 1 17 57 74 54 46 45 22 18 0 0 0 0 0 0 0 0 0 0 0 0 0 0 0 0 0 0 0 0 0
0 0 0 9 0 2 0 0 0 0 0 0 0 0 0 0 6 7 73 114 63 43 28 19 0 0 0 0 0 0 0 0 0 0 0 0 0 0 0 0 0 0 0 0

GFSCGP_con_mucape_096.txt.gz
CAPE
0 0 93 2 8 2 77 58 494 614 573 130 145 108 188 168 159 119 112 148 153 173 210 279 259 343 440 390 683 966 1114 1480 1688 1564 1094 1086 1165 1339 1122 1327 1880 1873 1880 1774
0 0 24 28 0 7 69 344 373 546 712 356 122 182 227 260 184 300 93 112 143 188 253 333 389 408 530 751 631 878 1232 1744 1548 1374 1396 1023 1060 1198 1273 1339 1774 1741 1746 1990
0 0 9 0 0 3 8 230 133 540 322 209 197 101 60 66 171 248 188 156 210 288 357 430 478 477 555 874 1119 1148 1382 1612 1608 1215 1343 1524 1847 1560 2104 1663 1681 1604 1699 1780
0 0 0 0 1 1 1 16 247 709 335 155 62 23 0 0 99 290 272 339 205 399 473 555 539 620 610 766 1161 1298 1502 1709 1630 1610 1177 1217 2102 1444 2096 1343 1370 1577 1674 1482
0 0 0 0 3 48 2 2 39 209 283 213 178 87 14 1 9 496 719 373 232 272 357 524 652 671 697 703 1023 1259 1562 1735 1277 1638 1260 1050 738 1819 745 1209 2003 1759 1913 1745
0 0 0 0 0 17 2 21 5 164 256 263 135 43 0 51 70 124 692 705 486 335 359 449 610 722 876 735 921 1104 1579 1812 1548 1487 1570 1464 1072 833 1943 1885 1461 1486 1564 1877
0 0 0 0 0 0 71 15 0 13 106 94 244 103 21 7 304 239 647 722 701 426 372 455 645 749 983 936 958 1040 1496 1707 1513 1410 1294 1440 1301 1127 1007 1291 1941 1174 1977 1634
0 0 0 0 0 0 67 7 21 0 119 67 16 157 137 371 357 407 727 682 877 824 432 376 637 421 676 1044 963 666 1276 1643 1580 1426 1582 1607 1609 682 1141 1062 913 2129 1632 1141
0 0 0 0 0 0 0 16 1 31 34 83 68 47 317 327 489 729 855 685 771 1059 741 488 710 900 1027 793 778 507 501 945 1487 1338 1439 1492 1664 1492 888 1009 1060 2793 1919 1541
4 0 0 0 0 0 0 0 45 3 93 48 119 102 44 573 647 619 935 907 822 1024 1069 731 739 893 632 336 296 279 797 953 1117 1063 1207 1213 750 736 686 1092 1261 1378 1420 1930
13 0 1 0 0 0 0 0 0 37 47 82 87 124 625 712 884 740 611 563 762 1048 1007 785 899 1079 1012 438 175 176 266 377 1085 1069 1198 1078 926 705 734 729 901 944 1372 1775
3 13 50 0 0 0 0 0 0 0 43 38 85 325 480 791 923 778 416 366 312 388 412 435 802 869 820 847 321 129 173 200 411 1188 1079 738 906 826 729 781 845 1190 1085 1793
28 5 78 18 0 0 0 0 0 4 12 68 87 154 599 738 830 663 616 543 419 371 323 321 372 570 810 501 234 211 358 665 796 454 591 507 463 620 818 987 938 1176 1422 1289
8 64 114 83 5 11 0 0 0 0 7 24 74 288 728 763 703 444 391 468 600 558 497 438 332 347 473 655 809 712 551 477 405 158 80 123 140 246 538 766 1111 1213 1455 1602
54 127 133 55 14 3 5 0 0 0 3 46 79 81 527 881 862 605 677 686 627 551 484 430 371 320 314 375 1034 1005 758 653 735 312 119 167 204 253 370 769 875 991 1129 1246
104 67 91 76 44 23 100 120 37 6 0 18 47 74 157 804 828 654 563 527 455 384 347 304 282 306 292 349 454 437 711 521 750 325 246 141 288 173 153 264 439 521 578 650
19 141 59 106 43 104 90 58 62 83 99 138 57 406 361 539 490 499 455 388 320 226 167 145 170 279 467 306 382 546 447 251 228 196 118 76 56 81 83 33 46 102 220 268
67 369 192 113 90 90 90 13 22 55 60 90 158 197 313 405 425 438 444 421 325 252 177 135 174 253 481 561 525 327 268 502 337 192 96 111 143 64 21 5 17 39 51 147
205 263 170 164 170 94 12 0 0 5 57 55 197 243 378 429 270 354 299 207 165 132 113 139 143 277 311 433 452 406 352 489 411 226 132 20 21 9 54 32 48 47 52 42
1 82 102 5 121 127 37 0 0 0 49 45 163 252 247 235 604 431 95 94 64 33 13 4 96 172 166 196 276 302 335 247 194 346 246 63 33 34 5 2 5 7 21 40
64 51 87 87 23 10 0 0 0 38 63 15 182 283 252 358 172 113 115 109 27 12 0 0 14 30 170 210 202 152 85 243 108 196 125 99 84 89 74 78 94 38 0 0
37 45 45 22 25 1 0 0 6 18 0 13 149 263 237 85 29 46 113 70 22 31 10 12 14 30 47 21 76 142 168 89 120 211 221 181 145 79 39 23 146 104 23 0
289 21 183 2 58 43 26 1 0 0 0 0 69 155 204 88 53 32 53 47 48 52 63 64 78 36 41 20 8 15 6 9 10 26 41 44 7 19 3 3 43 230 135 59
93 16 113 21 13 13 24 0 0 0 0 0 5 146 176 129 67 45 29 62 66 77 105 88 6 0 0 0 0 0 0 0 0 0 0 0 0 0 0 0 0 0 3 15
0 1 7 11 1 54 42 23 0 0 0 0 1 75 158 173 119 92 62 45 40 4 0 0 0 0 0 0 0 0 0 0 0 0 0 0 0 0 0 0 0 0 0 0
0 0 0 0 0 0 0 0 10 0 0 0 0 3 52 131 159 133 122 77 34 44 7 0 2 4 1 0 0 0 0 0 0 0 0 0 0 0 0 0 0 0 0 0

GFSCGP_con_mucape_099.txt.gz
CAPE
0 0 3 51 50 30 47 2 122 574 97 29 102 0 107 108 32 181 115 105 118 61 71 102 120 142 212 413 523 597 1772 1325 1365 1397 1047 1701 1554 1510 1316 2029 1688 1800 1774 1880
0 0 0 89 50 22 106 113 0 85 167 4 78 38 110 73 0 81 224 122 128 117 99 134 135 161 149 329 588 836 1519 1850 1918 1425 1944 1991 1463 1802 1727 2003 1690 1764 1671 1954
0 0 0 36 43 0 31 219 0 0 210 46 49 74 149 122 60 69 257 254 117 136 158 142 165 132 250 455 508 803 1135 1837 1592 1458 2128 1704 2050 2209 1598 2018 1771 1758 1691 1758
0 0 0 83 32 0 22 124 27 0 402 546 92 50 173 50 17 91 354 125 112 102 93 166 193 224 235 753 853 1084 1152 1684 1673 1215 2304 1235 1897 1806 1383 1365 1772 2257 1674 1562
0 0 0 0 0 17 6 2 370 242 247 282 196 93 145 101 35 0 413 192 77 163 174 252 233 308 248 647 900 1153 1387 1559 1605 1546 2000 1338 1329 1884 1302 1391 1977 1536 2064 1658
0 0 0 0 0 20 39 0 22 338 385 141 105 87 125 42 26 0 76 161 244 197 234 477 203 437 378 611 1213 1125 1671 1906 1579 1690 1570 1368 1194 1254 1998 1163 1806 1542 1893 1614
0 0 0 0 0 5 53 5 64 100 168 164 59 75 36 88 14 70 124 399 310 112 213 225 313 296 798 911 1258 1564 1858 1973 1757 1649 1368 1124 1324 1377 1346 1736 769 713 887 1294
0 0 0 0 1 0 12 42 99 106 86 101 146 130 58 39 32 53 235 493 771 540 164 251 572 449 862 1122 916 1272 1843 2158 1762 1552 1520 1375 1229 950 801 1222 2211 936 884 852
5 0 0 0 0 1 0 77 79 20 60 24 53 314 311 129 113 302 507 512 724 747 372 422 516 879 1309 1109 1349 1439 1949 2232 1793 1473 1566 1645 1527 1424 1481 1387 1473 1377 1790 1855
46 39 5 0 0 0 0 20 113 85 101 71 84 134 150 456 526 572 616 930 979 872 941 578 1064 1036 720 460 1545 904 812 1402 1684 1575 1438 1579 1477 1275 1012 1073 1234 1390 976 1395
40 38 24 0 0 0 0 0 34 93 88 89 158 265 336 747 916 983 1055 1125 994 1071 1217 1545 1300 1235 1446 1203 1054 824 1346 1387 1534 1582 1540 1907 1391 1623 1426 965 836 1057 1145 1466
14 43 19 5 0 0 0 0 0 26 105 69 31 336 458 844 1087 1264 1266 1283 1511 1681 1604 1380 1208 1501 1153 1047 383 418 207 308 286 960 1253 1418 961 1163 1397 914 907 916 1273 1352
62 31 66 42 20 0 0 0 0 4 19 78 93 437 644 1216 1002 1092 990 781 970 916 1112 1221 1243 1427 1614 1044 608 548 325 211 188 222 1176 898 1072 1158 1414 1544 1059 1013 1029 1427
14 55 40 125 49 15 0 0 0 4 30 7 47 739 966 1179 1129 988 817 555 398 469 513 503 716 1077 1177 1228 1117 785 530 374 560 694 233 296 265 341 589 682 790 1098 1691 1345
47 104 114 55 59 54 9 0 2 4 33 81 76 263 827 1164 1104 1029 749 512 443 437 358 321 296 499 793 1078 1149 936 663 650 823 655 672 573 209 244 335 365 843 988 1758 1285
210 223 156 128 15 39 47 42 20 2 0 14 40 295 33 1002 1299 1082 884 815 748 598 489 406 348 323 273 257 1217 1549 1348 825 976 1013 895 670 664 841 776 713 672 761 903 1076
124 155 251 101 92 63 103 116 72 55 68 65 212 468 341 852 1145 1198 931 718 643 513 410 363 310 358 298 350 371 574 693 1105 1022 771 564 573 436 364 424 392 308 249 294 835
89 44 22 278 176 125 108 61 99 172 163 141 331 374 505 660 874 989 904 873 697 357 283 209 169 207 214 305 478 449 396 392 290 272 243 205 133 119 146 113 18 39 58 350
37 59 381 135 6 80 119 83 100 120 189 163 334 351 529 697 924 867 814 782 585 325 247 155 149 206 280 377 450 588 512 474 420 390 233 187 185 172 119 7 94 79 333 293
26 96 318 286 30 326 11 1 5 6 318 131 190 439 655 687 896 884 578 510 451 262 95 76 130 338 253 315 462 567 447 324 352 293 247 166 123 99 18 20 29 10 5 82
171 207 197 256 88 28 51 0 1 53 190 164 246 310 547 813 842 576 548 338 221 173 39 0 73 84 215 314 283 339 404 424 388 83 332 380 243 58 22 11 10 13 46 50
373 358 295 280 131 187 3 0 46 235 99 152 300 425 528 401 378 439 391 218 178 68 0 0 25 145 281 223 185 209 123 85 279 274 196 158 118 139 106 49 32 35 159 65
342 228 466 296 570 237 111 304 157 111 103 73 154 253 385 294 349 386 349 170 91 35 27 15 22 11 26 73 17 187 266 67 71 59 177 125 112 160 221 111 57 16 9 135
103 391 229 249 174 28 9 7 13 17 6 0 40 134 209 221 311 390 322 212 114 62 68 46 65 59 40 193 205 67 34 54 29 0 8 11 4 30 1 3 0 6 0 0
57 294 90 205 237 129 67 25 12 0 0 0 0 51 147 234 274 381 358 301 206 98 60 63 123 196 83 25 38 0 0 0 0 0 0 0 0 0 0 0 0 0 0 0
50 20 19 59 83 142 36 60 6 0 0 0 0 0 107 257 330 332 378 357 279 192 48 8 7 9 0 0 0 0 0 0 0 0 0 0 0 0 0 0 0 0 0 0

GFSCGP_con_mucape_102.txt.gz
CAPE
0 0 0 13 92 150 43 249 344 37 115 66 63 73 49 141 171 138 59 70 89 71 36 55 113 171 192 396 895 1119 1114 2020 1418 1911 1033 1534 1531 1566 1907 1369 2841 2991 2621 2338
0 0 0 2 142 385 74 29 90 9 56 55 43 23 23 90 69 54 107 18 110 69 58 81 89 135 82 479 945 1926 2298 2454 2332 2243 2325 1811 1076 2048 2022 2554 2857 2499 2095 2783
0 0 0 0 38 35 148 130 9 8 1 2 40 67 188 117 84 48 46 30 133 97 49 107 121 63 210 754 1163 1229 1273 2718 2517 2196 1068 1813 494 1972 1072 2279 2583 2446 2094 2564
0 0 0 0 4 82 268 84 6 0 0 0 108 0 115 0 0 4 26 50 125 88 136 174 103 82 83 489 909 1993 2007 2403 1885 954 1354 1982 1797 392 1505 1750 733 1066 2771 2305
0 0 0 0 13 145 6 152 102 30 0 1 45 83 4 127 19 2 9 50 108 107 133 70 105 61 269 345 523 1240 2295 2660 2486 2608 1966 2239 1924 1849 1545 1328 838 1096 2247 2595
0 0 0 0 3 9 13 132 106 17 0 36 137 159 130 125 86 62 12 56 143 122 89 55 125 87 637 562 825 1396 2339 2706 2903 2598 2507 2227 1800 1500 1547 345 1169 1210 1969 2367
0 0 0 0 0 1 89 81 128 101 89 132 117 107 204 117 80 56 15 96 124 206 161 162 122 177 442 808 1021 1519 2267 2429 2515 2170 2080 1947 2089 1538 1932 2622 909 1554 583 609
0 0 0 0 0 1 88 152 14 0 107 205 124 112 258 92 8 0 64 108 139 140 221 219 202 71 702 1189 1497 1431 2165 2553 2381 2018 2433 2631 3015 1877 1867 2532 1527 322 410 147
19 0 0 0 0 0 58 10 27 17 13 121 122 148 246 9 1 7 59 117 42 30 73 195 157 272 219 367 968 1180 2069 2018 2402 2043 2557 2432 2059 2214 1924 1906 2727 2048 581 147
5 1 0 0 0 0 5 23 7 114 54 81 104 101 144 131 104 110 141 108 0 58 122 91 97 104 59 1 195 1212 2327 2014 2067 1515 2071 2095 2137 2528 2145 2366 1699 1395 639 189
0 11 12 10 0 0 0 0 0 20 198 27 137 170 286 435 254 333 501 484 314 742 436 166 111 538 36 0 1032 1444 1667 1754 2024 1489 1061 1951 1603 1861 2013 2154 2105 1760 691 294
8 32 21 12 1 0 0 1 2 23 33 32 37 224 185 227 599 611 1103 865 1584 936 565 186 100 16 835 911 1521 1051 743 847 1117 1015 1341 1430 828 1094 1555 740 436 1471 1720 2078
0 0 0 17 9 0 0 0 0 0 0 53 53 321 249 26 1181 1565 1769 1842 1523 2145 1424 908 1029 1447 1831 1572 1215 1109 656 577 456 750 672 687 1440 1186 1511 1499 378 337 1418 2221
0 0 0 34 73 38 1 0 0 0 1 0 1 457 908 1018 1479 1069 1268 1461 1129 1338 1373 1611 1550 1661 1435 1669 1283 837 700 408 340 224 318 522 565 624 467 584 820 1154 1222 1093
0 20 53 22 1 17 6 0 0 1 0 29 141 610 479 702 1213 1047 736 733 840 850 865 970 917 993 1460 1645 1496 1406 1081 797 349 389 447 419 419 67 121 286 244 635 416 722
52 122 145 53 14 21 15 12 0 0 1 22 102 740 495 592 531 746 590 471 519 497 472 481 547 552 795 974 1386 1201 1062 948 931 925 677 717 790 664 560 315 275 172 170 445
179 254 192 300 231 125 49 122 94 11 0 14 818 671 199 4 56 1131 798 691 730 529 421 381 360 350 361 563 960 1474 1475 1365 1355 1392 1235 985 707 1026 626 512 429 371 202 161
129 252 48 177 57 112 75 39 38 173 61 868 730 359 424 478 1196 1153 1037 832 616 528 379 340 352 278 308 307 300 590 1075 804 697 655 687 492 577 359 239 212 119 71 154 110
66 207 151 87 16 2 137 57 69 224 284 247 347 361 660 894 1099 1104 1006 875 527 465 313 222 175 210 285 294 341 431 551 662 481 468 366 286 207 124 34 49 198 131 127 22
193 345 321 140 146 91 98 12 0 24 43 106 39 455 606 685 803 1050 680 558 451 279 429 198 153 221 244 343 371 341 442 537 563 543 395 461 257 135 151 147 29 11 135 368
99 156 19 0 26 12 8 6 25 27 90 59 285 511 854 1074 1042 799 487 395 350 301 104 54 220 343 326 263 474 549 458 381 224 471 501 473 340 288 150 106 56 9 0 170
394 280 308 485 176 160 23 18 48 468 117 292 499 688 672 578 938 748 403 274 184 83 21 0 58 93 155 461 301 255 231 291 274 342 521 322 219 472 363 269 36 41 26 29
240 407 502 421 547 446 296 655 456 301 214 164 296 277 511 405 561 617 370 320 115 23 8 0 3 143 138 152 179 128 117 183 99 49 371 225 271 108 163 99 113 56 29 49
68 231 259 261 568 158 17 63 53 34 11 9 64 134 194 332 379 519 458 279 211 94 0 1 0 0 0 29 79 40 68 232 221 130 107 99 26 55 51 174 60 96 115 65
205 269 1 107 238 82 18 0 6 1 0 0 0 31 167 261 371 517 573 582 320 196 95 28 20 29 45 39 6 73 102 47 50 43 40 11 0 0 0 0 0 0 0 0
11 33 46 62 432 805 97 103 31 1 0 0 0 0 64 152 239 410 686 552 276 259 179 195 151 48 46 58 53 23 0 0 0 0 0 0 0 0 0 0 0 0 0 0

GFSCGP_con_mucape_105.txt.gz
CAPE
0 0 0 0 5 40 161 225 32 11 3 93 135 128 101 96 118 99 74 57 32 26 15 45 13 7 0 10 62 721 409 558 454 314 826 679 433 781 1031 1217 1722 1370 1540 1779
0 0 0 0 100 184 101 47 34 0 0 6 44 108 50 59 67 96 49 71 38 35 20 45 16 16 2 104 138 657 680 442 868 761 1001 846 564 1092 1059 1244 1587 1656 1141 1424
0 0 0 0 194 144 179 143 41 16 0 0 15 14 63 64 75 75 56 32 69 26 24 30 17 13 11 233 638 786 1069 984 982 702 732 527 573 889 920 1092 1079 1266 1646 1482
0 0 0 0 80 150 188 157 82 42 0 0 11 3 66 3 45 51 43 15 72 22 40 36 50 66 71 134 401 713 1030 923 927 999 562 603 343 373 603 598 602 920 1268 1484
0 0 0 0 0 249 282 137 48 15 0 0 0 0 0 2 0 0 30 26 52 39 26 45 38 54 98 329 244 373 642 859 897 507 699 649 446 379 695 629 485 600 865 1316
0 0 0 0 25 249 211 105 46 51 12 0 0 0 56 0 1 0 0 12 32 83 85 38 94 76 204 298 766 488 709 713 1092 669 649 554 582 594 587 487 500 758 680 821
0 0 0 0 79 311 221 140 58 6 0 0 0 0 0 79 82 2 0 9 37 70 81 85 72 65 134 201 665 1042 925 976 1187 836 571 459 877 614 469 124 350 777 658 602
0 0 0 0 0 171 268 118 31 0 6 0 79 77 40 89 45 62 4 10 53 48 73 76 25 64 167 243 536 690 1189 1269 959 1361 1067 948 922 868 887 896 557 302 314 327
0 2 5 0 0 0 24 58 96 52 0 23 32 2 82 197 107 25 20 28 36 42 73 91 130 84 343 521 914 1339 1285 1260 1383 955 1176 681 1065 893 874 992 778 639 465 297
0 0 0 4 0 0 9 16 0 81 9 1 100 7 147 81 58 31 0 8 44 44 62 86 177 149 263 340 884 1249 1567 1505 1391 1130 1358 1177 981 1149 1082 939 509 563 390 177
10 0 0 18 9 0 0 3 18 44 1 35 67 72 64 71 50 87 54 21 1 0 10 56 129 107 95 131 438 389 994 1169 1443 1368 1065 970 959 941 980 872 812 590 426 184
0 0 0 10 15 0 0 0 3 0 0 16 4 370 496 340 163 78 73 74 26 9 36 106 101 78 151 42 106 42 78 831 1039 1111 767 577 734 719 766 546 515 491 488 438
0 0 16 1 3 6 0 0 0 0 0 0 8 222 385 297 444 175 521 326 153 49 66 99 144 64 62 34 30 310 372 906 765 852 670 355 339 128 643 383 237 207 647 863
1 1 43 21 28 15 13 0 0 0 0 0 0 368 247 188 106 1165 1137 978 1102 468 173 167 129 108 45 116 580 598 675 693 566 549 274 199 306 325 478 511 353 334 338 322
0 1 35 44 45 14 4 3 14 0 0 0 490 496 236 319 627 871 501 628 718 555 583 341 249 351 123 300 639 604 527 359 226 175 159 151 119 35 35 39 34 62 72 123
14 20 241 115 109 105 57 81 89 41 0 792 1094 782 625 764 695 380 207 255 321 844 803 681 554 495 404 828 503 633 700 556 407 367 335 396 246 106 111 151 58 27 23 3
115 150 113 178 155 121 193 32 94 212 257 304 695 522 632 436 205 48 257 245 440 405 394 715 387 674 907 942 987 1020 726 658 598 595 622 518 414 301 449 374 254 121 6 36
119 170 80 94 150 237 63 51 93 236 384 479 257 74 37 2 0 0 449 616 612 429 356 288 311 356 613 847 1045 1121 1005 823 848 968 771 525 404 562 206 100 41 10 43 33
107 176 188 61 36 64 106 36 23 36 70 271 525 513 431 324 683 708 839 673 417 369 295 300 337 386 348 355 489 944 1285 1111 900 844 779 453 346 242 160 111 86 33 26 36
393 421 239 34 43 24 34 64 17 5 74 138 238 278 498 612 432 543 761 622 335 280 212 170 167 288 386 362 444 606 671 624 592 647 596 494 363 245 145 87 32 13 4 25
146 64 153 134 100 23 29 19 27 104 111 41 249 117 83 47 295 443 574 448 423 280 82 117 216 238 256 348 636 371 526 492 420 631 539 459 343 255 145 120 65 32 18 0
293 26 119 30 26 0 35 4 8 76 88 112 497 235 387 171 446 630 456 430 246 99 20 148 188 241 239 216 252 377 390 382 386 193 429 393 448 384 270 202 203 47 9 1
319 261 307 69 1 1 57 198 274 135 17 73 57 399 371 438 423 432 315 197 103 8 0 45 59 68 83 122 86 128 86 85 70 131 247 347 253 112 65 101 67 84 92 87
338 262 275 233 148 236 273 74 70 59 13 0 7 36 316 552 469 335 262 134 174 35 0 0 0 30 70 62 0 38 16 39 13 48 42 38 20 47 69 68 21 24 47 117
241 98 4 438 272 68 49 18 0 1 0 0 0 0 103 289 591 499 302 145 103 36 15 0 0 0 0 0 2 19 32 34 24 19 33 21 15 19 14 7 12 0 1 2
26 84 0 212 331 126 48 31 12 0 0 0 0 0 13 26 533 316 170 83 50 26 7 4 0 0 0 0 0 0 0 0 0 5 1 0 0 0 0 0 0 0 0 0

GFSCGP_con_mucape_108.txt.gz
CAPE
0 0 0 0 0 46 177 77 66 43 4 16 0 47 82 114 74 42 31 61 24 28 21 50 160 65 99 70 134 49 171 499 348 565 544 292 538 950 950 1285 1370 1035 1330 1570
0 0 0 0 24 80 104 59 45 51 7 0 0 25 64 80 61 33 45 38 29 58 38 41 33 56 78 102 148 138 118 292 276 519 627 606 640 889 720 887 1318 1439 1011 1235
0 0 0 1 72 220 86 154 36 19 13 1 0 0 23 93 90 59 45 45 57 34 28 3 21 28 23 150 306 201 167 269 648 553 438 466 681 783 719 1018 985 1052 1290 1287
0 0 0 9 58 347 256 192 85 23 1 0 6 0 0 53 24 35 69 26 46 19 32 16 17 28 74 110 237 216 223 459 552 386 370 324 464 433 520 706 635 734 800 1182
0 0 0 0 0 342 255 161 51 6 0 2 10 0 0 2 9 20 25 57 36 28 18 22 53 26 84 176 237 321 339 505 596 361 339 320 270 288 505 445 434 563 678 992
0 0 0 0 149 416 194 119 53 9 6 0 1 0 0 0 1 15 31 53 53 73 24 53 42 31 57 127 265 336 310 352 507 381 395 477 273 310 482 407 515 382 511 739
0 0 28 674 442 319 201 116 24 48 0 0 9 0 0 0 10 30 40 38 64 108 130 68 51 76 50 62 169 292 249 283 480 355 510 408 494 444 397 369 299 533 524 527
0 0 0 641 470 424 211 112 8 4 0 64 54 0 48 22 36 27 9 78 72 124 126 85 18 86 94 270 196 263 220 216 709 579 329 303 620 485 396 135 133 536 537 459
0 0 0 6 488 349 255 91 58 38 15 21 0 19 6 0 57 57 27 23 58 101 127 120 65 90 161 280 527 445 352 360 762 505 335 437 460 529 583 586 633 386 232 270
0 0 0 1 15 307 290 158 78 80 37 0 6 0 0 0 5 36 28 31 60 51 104 142 128 217 218 308 468 1026 554 596 667 814 667 718 753 558 651 749 575 548 382 153
5 0 0 0 0 0 0 0 10 3 53 60 0 0 0 0 17 86 51 43 64 30 54 174 203 333 386 484 600 565 854 839 876 701 856 490 943 854 794 622 312 361 258 211
9 0 5 7 16 0 0 0 18 2 0 51 37 20 65 18 0 33 45 25 30 22 64 189 197 262 154 190 190 119 352 691 973 965 913 888 774 715 760 672 573 530 295 264
0 0 18 58 30 20 1 0 20 31 0 0 3 42 93 75 17 2 5 34 38 57 94 157 131 103 99 88 38 50 212 275 614 765 619 402 283 259 560 469 406 458 384 424
6 0 40 56 19 2 0 0 10 20 0 0 0 23 115 123 349 355 212 164 206 98 100 130 136 116 96 142 60 43 213 285 458 505 481 375 224 164 335 361 226 220 377 319
11 24 8 37 33 99 80 39 42 38 0 0 0 28 73 232 846 596 592 635 489 139 82 131 132 112 145 126 421 170 418 404 465 382 300 315 288 248 213 219 199 128 88 133
29 23 129 117 41 110 55 57 136 111 143 692 424 284 324 675 842 544 581 682 577 576 337 157 131 155 100 154 117 316 416 409 437 238 186 142 131 102 108 99 71 21 41 42
176 91 37 110 7 59 72 21 147 241 260 314 412 273 759 899 841 517 456 662 618 615 503 280 262 233 363 203 183 27 176 348 292 331 280 312 211 196 207 253 221 147 69 74
85 20 47 9 1 99 29 28 136 230 315 479 466 640 738 446 247 291 484 472 733 953 870 600 482 363 312 210 440 206 132 332 331 305 354 433 418 437 332 239 158 68 98 125
14 12 12 0 13 54 58 36 52 81 82 220 339 347 321 327 431 613 705 622 528 284 306 491 612 746 679 530 616 714 556 476 646 634 641 511 495 414 303 209 137 30 106 99
93 42 3 0 1 16 14 40 20 17 33 64 222 387 361 592 332 818 666 301 203 163 70 101 162 251 641 577 817 988 985 871 887 889 755 671 585 576 316 194 132 67 91 111
1 0 0 16 0 0 0 25 23 26 13 207 175 234 315 179 392 540 208 203 233 146 114 116 163 524 380 297 407 445 616 736 743 857 845 674 490 503 493 233 143 125 113 108
69 19 12 0 0 0 0 4 0 9 208 227 95 76 75 65 40 52 121 152 87 41 68 203 236 201 274 398 378 388 452 464 415 473 432 714 432 508 304 282 140 97 100 41
132 91 0 59 92 110 100 129 17 80 653 257 632 425 114 0 17 97 156 70 28 16 133 168 204 186 275 216 316 436 314 308 348 316 220 274 431 515 476 309 114 156 127 122
138 107 228 76 69 164 102 122 72 34 47 7 166 523 543 342 266 214 143 82 69 3 2 48 116 133 95 94 59 64 89 89 70 71 107 163 206 160 116 159 146 58 50 52
1 0 66 99 98 205 64 53 51 47 11 0 17 268 396 402 283 167 108 113 40 4 0 0 0 0 11 21 12 26 27 36 47 28 25 54 70 30 9 9 0 0 0 0
4 0 91 91 110 8 0 0 0 0 0 0 0 17 468 474 356 257 213 127 58 4 0 0 0 0 0 0 0 0 0 0 0 3 3 3 5 7 1 0 0 0 0 0

GFSCGP_con_mucape_114.txt.gz
CAPE
0 0 0 0 0 0 60 111 37 37 51 20 1 0 74 30 66 56 67 54 97 143 135 107 113 135 46 98 189 268 397 527 309 383 314 440 492 567 349 652 883 815 882 1047
0 0 0 0 0 0 155 122 74 23 30 1 0 0 9 35 48 45 50 45 61 64 124 113 98 91 39 131 181 190 257 316 315 272 322 373 404 527 545 800 917 914 919 1028
0 0 0 0 10 114 186 75 70 47 23 1 0 0 0 42 33 52 41 18 33 26 60 97 105 36 34 89 84 62 206 256 243 243 235 363 507 535 550 702 861 997 993 948
0 0 0 0 0 7 151 178 108 71 13 1 0 1 0 6 30 54 73 6 36 21 55 94 114 56 29 6 20 33 153 191 237 219 205 374 430 457 425 511 599 755 919 950
0 0 0 0 0 13 11 372 206 75 7 7 12 0 0 10 0 8 25 10 11 43 33 101 133 105 49 34 0 0 72 127 167 236 205 240 296 348 385 408 495 641 702 616
0 0 0 0 77 76 432 332 148 80 23 6 12 2 0 0 2 0 9 10 27 17 44 99 127 129 94 57 5 0 33 131 178 203 191 205 217 233 283 342 311 415 438 548
0 0 385 538 471 467 512 326 101 76 10 10 9 0 0 28 0 0 11 21 5 27 34 51 82 87 71 91 103 29 44 117 206 224 213 204 183 201 232 246 280 324 312 366
0 0 581 712 576 521 496 284 137 45 0 13 40 0 1 0 5 0 25 38 18 17 24 16 30 79 68 99 141 122 49 110 248 247 195 173 196 204 194 177 223 265 262 302
0 0 51 561 765 559 476 309 178 156 128 94 57 10 4 0 0 0 25 25 36 32 13 8 36 76 79 116 139 165 133 78 176 252 217 183 258 251 161 168 310 204 158 328
0 0 0 2 704 703 645 478 241 207 61 61 31 18 0 0 0 0 21 32 29 28 21 30 58 47 71 111 151 153 155 110 114 190 165 173 292 257 282 329 315 181 234 284
3 6 1 7 145 578 411 418 280 83 135 63 12 28 0 0 0 36 30 54 41 11 35 33 34 35 59 92 122 171 178 144 124 165 169 219 337 205 398 335 413 413 325 232
16 17 51 36 26 34 354 386 287 184 1 42 49 3 76 11 21 52 37 53 33 32 16 35 45 70 64 132 118 139 177 182 165 210 213 344 278 297 402 433 456 300 225 195
2 14 49 45 19 97 105 225 89 2 0 1 2 2 153 30 17 61 87 84 47 31 25 39 66 72 117 166 229 233 213 219 276 241 354 464 339 533 503 563 399 289 229 233
0 8 9 16 52 122 157 298 139 0 0 0 0 0 100 161 92 138 149 120 112 58 50 99 136 144 122 159 255 272 243 299 343 363 367 376 490 444 305 81 75 97 151 190
11 4 16 39 206 159 137 247 241 3 24 0 9 171 394 361 426 113 133 183 186 99 96 120 168 163 103 159 241 283 329 319 333 372 406 353 195 200 172 146 70 98 115 121
99 40 165 122 77 105 12 106 204 338 305 110 263 413 953 1117 660 511 208 164 199 154 119 117 89 155 179 236 234 212 121 74 145 286 320 193 148 109 155 186 146 96 116 117
176 305 106 3 41 29 8 7 138 199 246 728 342 335 1004 947 923 467 513 225 131 200 158 167 156 178 139 161 168 114 93 124 113 100 126 135 157 125 126 131 131 110 87 73
175 203 130 49 16 4 0 1 3 63 118 501 446 854 860 1074 870 706 590 368 250 206 143 153 158 181 164 172 255 207 131 90 88 98 108 108 125 95 99 138 126 98 81 54
55 155 64 7 16 1 104 55 1 10 90 382 584 642 1365 917 367 227 291 293 336 388 374 236 153 230 252 201 177 137 153 117 102 88 123 132 117 102 118 125 96 151 146 143
92 75 33 3 0 0 35 0 0 9 88 407 416 798 1092 372 210 326 146 131 82 63 113 219 289 220 263 235 135 57 108 146 71 138 181 211 172 140 101 108 133 148 147 130
29 7 3 1 0 0 0 50 8 12 54 512 691 853 754 352 264 273 135 40 50 40 132 215 223 335 226 281 332 144 134 81 68 40 10 24 145 190 158 146 127 85 153 160
0 0 0 0 0 0 0 11 45 64 240 598 697 719 407 306 319 208 78 32 37 96 145 141 218 213 148 220 380 351 220 172 251 211 93 33 18 18 163 219 264 168 86 143
30 0 7 0 0 11 8 32 55 391 390 348 581 547 262 311 140 80 22 49 80 55 38 60 76 136 142 167 165 304 332 368 216 118 95 61 18 153 258 318 244 164 185 209
0 0 35 0 13 100 143 408 503 578 296 251 304 210 216 139 46 8 0 18 31 20 23 17 6 19 143 59 75 98 165 306 246 233 206 151 171 215 286 291 222 303 197 186
22 16 35 2 70 62 85 67 232 344 458 459 316 93 92 130 46 5 0 0 0 0 0 0 0 10 1 4 8 7 10 5 0 0 11 155 108 137 269 209 182 154 140 106
24 37 30 7 29 23 53 100 256 330 429 431 323 483 356 357 95 21 0 0 0 0 0 0 0 0 0 0 0 0 0 0 0 0 0 0 0 7 12 18 7 2 1 19

GFSCGP_con_mucape_117.txt.gz
CAPE
0 0 0 0 0 0 0 71 139 148 113 61 0 0 0 36 87 86 94 82 141 187 193 251 340 322 308 406 487 593 751 968 1075 1204 1267 1284 2044 1494 1473 1142 2027 1670 2110 2208
0 0 0 0 0 0 0 43 226 98 92 46 31 0 5 6 39 71 62 20 117 151 158 214 315 275 336 404 494 664 839 1120 1219 1112 1217 1252 1474 1429 1394 1905 2154 2118 1980 2258
0 0 0 0 0 0 23 0 168 151 97 33 34 0 0 14 20 80 80 60 29 84 175 231 288 255 337 354 470 654 1032 1219 1187 1080 1090 1364 1439 1921 1596 1851 1921 2081 1986 2167
0 0 0 0 0 0 0 94 161 226 151 101 48 56 0 8 34 36 65 129 42 19 149 238 277 260 297 324 406 585 905 1131 1076 1073 1213 1640 1277 1163 1971 2472 2393 1978 2070 2087
0 0 0 0 0 0 0 309 332 277 149 116 87 123 20 0 8 7 7 29 106 7 38 156 266 284 276 257 305 408 769 938 958 1124 1241 1015 1821 1173 1535 1564 1869 1836 1666 1895
0 0 0 0 19 0 357 343 254 198 211 200 110 92 56 25 0 6 10 2 32 38 11 86 200 266 261 214 236 237 533 928 1000 1178 1148 1342 1568 1539 1266 1641 1360 1666 1454 1369
0 0 9 159 235 350 468 441 186 190 285 106 213 143 90 29 0 8 0 0 39 23 0 56 183 264 253 194 232 248 343 711 854 997 1015 1122 1260 1356 1420 1615 2241 1532 2137 1657
0 0 131 282 203 339 459 104 0 4 137 191 229 177 124 22 4 0 1 0 116 16 0 17 172 207 236 205 283 248 267 525 833 874 1015 1096 1167 910 975 1327 1499 1222 1161 1208
0 0 0 458 553 575 607 455 129 354 274 305 377 259 140 93 15 9 0 14 82 9 0 18 134 98 310 262 330 302 314 464 804 812 1025 1075 1112 1059 991 1195 1125 1074 1233 1109
0 0 0 26 613 530 712 425 440 492 141 100 284 285 281 220 106 20 33 60 81 56 10 35 117 124 216 302 413 431 441 507 605 813 960 959 1000 1260 1215 1214 1318 1281 1014 1056
0 0 1 0 154 267 497 534 432 418 447 194 158 81 176 199 186 142 52 81 66 75 17 35 47 58 150 315 386 572 673 701 622 773 905 968 928 978 1240 1283 1446 1496 1173 1067
0 0 7 7 0 7 291 446 435 423 171 410 352 40 382 143 139 244 227 141 86 82 16 39 48 44 124 252 370 507 686 717 741 752 1038 1037 1054 1110 1162 1354 1327 1137 1183 967
0 0 0 39 37 70 116 355 267 234 251 319 157 2 317 309 141 271 327 296 201 146 99 110 66 49 123 277 362 518 655 775 798 816 1000 1066 1010 1140 1270 1337 1237 1036 1049 891
0 0 0 23 92 129 426 396 507 131 32 134 47 16 32 509 592 295 311 266 211 172 202 327 180 40 79 493 548 512 663 427 876 886 989 1093 1202 1285 1341 1313 788 591 664 751
0 4 0 20 181 228 201 286 572 383 392 0 12 374 701 713 729 668 349 291 270 242 253 320 457 366 158 157 538 845 430 411 853 965 1074 1254 1566 1197 1236 761 731 410 420 453
34 99 159 271 263 131 258 74 495 714 756 735 577 682 633 737 1096 684 420 360 344 363 330 350 351 247 143 133 244 276 601 374 512 1057 1217 1294 974 595 781 595 615 483 306 191
212 379 337 218 202 125 85 72 54 530 673 713 782 745 654 783 830 721 565 454 473 378 386 394 299 130 96 51 76 105 193 274 365 613 659 517 244 430 208 189 305 360 141 73
192 355 449 352 277 65 57 116 194 280 350 687 847 643 819 905 653 577 527 386 338 244 228 240 273 172 117 165 166 115 95 140 124 64 94 134 164 67 93 112 134 133 100 76
2 266 319 336 273 66 217 164 110 101 189 462 840 766 960 874 605 466 572 434 317 283 226 202 177 191 175 164 442 308 297 228 222 107 178 96 81 77 89 52 46 102 126 70
1 2 276 114 126 38 156 98 47 23 217 328 1023 837 947 726 443 271 246 191 271 357 266 262 247 199 173 160 158 242 210 238 194 128 101 97 107 124 127 98 84 87 71 78
60 86 187 198 210 33 3 43 52 195 222 601 1095 824 1156 834 678 292 94 47 85 111 146 282 347 309 264 210 175 206 160 141 175 139 128 70 58 100 105 99 83 106 98 78
155 286 362 5 165 16 0 3 242 103 384 808 1123 791 638 262 179 98 63 102 166 148 132 177 234 232 264 291 298 313 225 182 207 137 89 39 24 29 30 75 77 56 82 89
310 73 441 174 134 0 0 11 15 49 752 716 954 608 253 211 119 52 76 118 103 64 129 179 169 222 351 264 346 344 293 272 215 142 81 86 87 12 50 17 66 93 101 162
2 0 257 52 84 56 39 54 187 480 613 815 852 667 449 243 133 136 107 100 62 39 14 29 25 44 11 137 126 211 290 303 264 202 134 58 52 41 0 42 83 112 150 172
30 19 194 107 95 207 243 286 424 460 747 550 562 602 509 285 156 75 75 50 2 0 0 4 4 6 15 13 15 14 26 13 33 104 92 57 62 46 53 80 131 154 179 191
3 230 245 4 450 535 487 135 356 978 1080 676 503 543 557 353 129 16 1 0 0 0 0 0 0 0 0 0 0 1 1 0 0 0 1 0 38 96 104 79 110 123 140 96

GFSCGP_con_mucape_120.txt.gz
CAPE
0 0 0 0 0 0 0 0 5 488 452 480 451 324 163 93 152 597 422 141 123 158 337 538 557 401 329 424 638 997 1109 1447 1477 1528 1380 1292 1229 1499 1423 1288 2034 1989 2299 2526
0 0 0 0 0 0 0 0 21 392 348 291 239 233 56 272 70 313 535 200 169 132 284 474 588 528 355 399 674 1009 1183 1492 1810 1687 1719 1245 1124 1316 1237 1339 1732 1780 2245 2276
0 0 0 0 0 0 0 0 10 74 329 228 167 222 171 127 137 141 327 372 103 150 181 413 568 608 434 462 546 875 1279 1422 1528 1391 1488 1543 2056 1556 1628 1742 1648 1720 1952 2082
0 0 0 0 0 0 0 0 0 280 165 155 178 58 294 223 339 174 75 255 49 39 155 248 440 605 528 519 609 691 1139 1471 1483 1473 1821 1779 1196 907 1808 1688 1476 1627 1714 1792
0 0 0 0 0 0 0 0 0 242 201 162 192 156 66 210 345 243 166 267 57 51 76 187 327 520 534 544 628 716 1167 1682 1564 1888 1661 1012 940 850 1035 1075 1497 1603 2086 1929
0 0 0 0 0 0 0 0 179 345 190 105 82 211 128 389 179 120 59 123 169 257 106 182 297 439 552 567 609 674 1108 1601 1265 1837 1357 1344 961 950 1036 1114 1160 1408 1152 1365
0 0 0 0 0 0 0 10 76 90 124 44 308 178 199 188 196 115 68 134 257 324 214 165 329 358 548 602 620 686 980 1352 1302 1638 1426 1015 919 1036 987 1012 829 1158 1036 1152
0 0 0 0 0 5 8 17 40 65 68 125 415 196 271 301 190 132 202 184 297 259 301 184 262 408 536 661 668 699 814 1107 1210 1293 1048 1416 1295 1515 949 879 1102 797 937 934
0 0 0 1 27 56 65 135 30 73 93 129 143 338 380 313 198 152 109 26 17 51 182 311 239 482 626 732 745 789 827 959 937 977 1250 1489 1935 1672 1091 1252 1649 1279 2433 2043
0 0 0 6 187 216 350 320 170 80 142 200 155 286 236 241 308 224 175 65 22 33 149 347 278 528 710 753 787 865 844 835 834 819 1071 1227 1310 1596 1544 1560 1883 1316 1399 1698
0 0 14 2 102 83 264 396 347 260 376 222 283 292 256 277 363 384 252 179 89 200 146 304 342 589 702 755 756 987 906 788 838 868 1019 1088 1099 1172 1436 1378 1653 1855 2179 1889
0 1 36 56 30 0 7 173 220 329 241 441 304 141 466 476 444 423 359 195 132 239 186 103 409 662 715 753 761 1077 1055 963 998 917 1154 1331 1325 1329 1117 1435 1449 1817 2054 1982
0 0 16 46 74 56 72 161 274 210 269 61 287 221 361 664 532 526 518 503 241 274 292 179 269 677 580 372 880 947 1147 1219 1190 1280 1303 1410 1380 1433 1196 1452 1493 1760 1781 1786
0 0 0 13 35 14 187 285 453 396 294 173 207 207 57 808 880 753 610 604 483 400 393 214 104 228 361 254 360 1018 1170 1225 1372 1347 1451 1513 1445 1311 1279 1551 1690 1702 1707 1689
0 0 0 0 0 92 110 231 384 487 363 317 183 228 321 904 906 1227 767 702 597 602 550 453 151 65 143 193 566 899 1186 1344 1383 1343 1396 1549 1637 1616 1690 1582 1716 1619 1444 1238
32 45 28 34 54 142 210 191 194 521 665 756 750 658 1182 971 938 1376 849 730 585 594 483 697 513 250 125 153 354 607 1111 1492 1260 924 869 1407 1850 1919 1847 1428 1690 1449 1036 943
53 155 214 177 143 238 286 231 293 341 523 602 647 820 1029 1186 925 1010 1112 890 786 719 731 506 677 602 560 159 177 299 867 1137 1099 579 645 1313 1655 1392 1815 1598 1449 1010 755 1037
40 102 140 237 222 254 307 424 291 231 312 468 455 845 1115 890 1003 711 877 770 553 599 736 780 739 762 154 109 253 245 263 643 925 784 421 886 518 799 1114 271 252 215 288 287
0 86 146 292 279 189 267 393 425 384 224 89 202 1126 1047 877 954 601 451 268 307 224 167 207 230 201 284 161 111 98 94 86 93 190 237 289 243 380 173 93 99 142 165 191
4 199 272 176 255 206 583 578 366 280 369 335 603 1438 1332 1247 1265 472 151 143 258 447 233 134 175 183 123 259 406 313 176 191 290 205 299 363 384 284 120 74 47 61 32 83
136 198 161 154 321 175 278 338 330 413 625 1057 1383 1645 1490 1234 762 141 43 59 139 199 247 290 258 194 176 158 277 496 547 406 299 199 150 107 80 48 99 92 56 43 50 55
121 239 257 286 295 238 149 236 455 588 1001 1280 1649 1606 1448 613 529 266 172 220 360 188 192 216 206 258 304 227 205 276 343 290 158 218 136 103 43 42 39 25 47 50 56 47
268 186 348 252 395 584 408 336 376 412 1236 1473 1511 1302 1215 649 498 378 161 324 187 144 162 239 192 296 359 315 269 269 291 302 265 284 192 83 84 83 22 32 18 22 51 25
209 285 258 392 541 509 539 415 371 943 1305 1641 1099 1282 706 460 275 190 153 167 208 183 78 67 76 109 196 204 293 405 332 348 311 271 152 161 186 119 22 4 48 46 22 51
297 334 147 64 307 601 714 962 1052 1170 1594 1487 1120 700 583 394 363 463 452 420 177 78 85 53 35 11 8 32 40 100 276 315 338 306 278 186 122 104 81 0 0 38 66 77
256 220 56 94 94 827 795 871 1194 1439 1329 1276 1107 812 488 411 299 166 52 0 0 0 0 0 0 0 1 1 1 1 0 0 1 12 10 41 165 113 122 63 97 44 62 62

GFSCGP_con_mucape_123.txt.gz
CAPE
0 0 0 0 0 5 0 36 24 285 718 735 560 451 734 229 109 309 316 298 84 127 243 243 216 148 101 252 511 707 980 1592 1828 1386 1172 1662 1300 1936 1718 1943 1865 1855 1732 2104
0 0 0 0 1 0 0 1 24 256 541 551 300 389 466 663 157 102 169 422 102 95 155 343 250 142 136 264 557 780 1141 1708 2041 1417 2817 2327 2046 2075 1427 2167 1703 1719 1861 2140
0 0 0 0 0 0 0 6 27 53 445 419 257 195 357 404 707 206 242 396 235 97 108 288 259 265 252 336 598 990 1276 1766 1842 2216 1495 2146 2677 2355 1218 1550 1500 1653 1874 2043
0 0 0 0 0 0 0 0 0 4 92 78 332 43 362 492 427 584 256 552 462 135 125 144 269 373 249 498 473 912 1293 1695 1754 1966 2080 1789 1392 1276 1133 1450 1797 1573 1663 1805
0 0 0 0 0 0 0 0 0 1 44 90 106 194 27 302 619 456 311 278 585 190 160 208 177 363 370 523 654 602 1542 2270 1971 2217 2463 1569 1755 1628 1908 1963 2254 1763 1799 1834
0 0 0 0 0 0 0 0 0 18 84 92 37 76 81 252 542 559 384 420 293 191 153 161 285 393 574 475 786 713 1538 2397 1984 1705 1470 2296 2502 1729 1435 1423 1839 1580 1296 1524
0 0 0 0 0 0 0 0 17 60 65 29 71 90 60 30 388 217 404 500 322 508 146 97 220 320 744 652 803 745 1142 1783 1461 1852 1461 1538 1700 1537 1544 1793 1220 962 1519 1184
0 0 0 0 0 1 0 0 31 49 80 234 106 99 169 71 172 96 152 336 414 356 166 116 247 343 1116 923 771 871 1057 1519 1348 1530 1555 2123 1443 1275 1116 1631 1072 935 982 870
4 0 0 0 0 0 12 7 4 45 43 53 212 172 168 48 79 161 160 252 98 213 277 232 219 244 867 871 867 1081 1171 1308 1176 1320 1537 1795 1619 1345 979 2341 1596 1425 1482 1115
4 0 0 0 0 0 3 96 41 31 49 89 104 97 291 122 3 81 220 299 341 302 567 416 221 258 452 673 1054 973 1143 1270 1139 973 1121 1246 1278 1488 1425 2530 1908 1334 2473 1947
2 2 14 2 3 22 48 23 20 63 130 83 191 374 35 66 99 439 267 227 179 107 137 316 146 334 562 812 926 1182 1196 1274 1164 1008 1739 1715 1427 1389 1490 1533 1872 2009 2138 1916
7 0 26 30 5 22 80 55 96 114 191 21 53 179 143 266 12 515 358 203 309 249 231 417 446 368 644 1038 1013 1160 1395 1188 1120 1410 2235 1911 1593 1416 1238 1451 1228 2154 2407 2445
3 0 0 9 4 50 12 2 19 78 123 244 324 340 262 600 110 258 585 901 413 413 358 328 463 703 873 1295 1373 1097 1319 1503 1092 1604 1087 1500 1340 1508 1469 1402 1413 1656 2125 1895
0 0 0 0 0 3 5 27 47 61 150 99 164 202 121 65 672 325 424 805 527 636 498 287 269 323 1378 1338 1970 1862 1559 1444 1467 1267 1179 1798 1209 1230 1323 1637 2179 1561 1508 1872
0 0 0 0 0 0 0 31 1 62 192 130 69 80 260 0 487 973 810 864 818 517 451 297 240 119 466 971 1294 1306 2019 2119 1740 1651 1540 1993 2549 1958 1993 1680 2230 2234 1771 1512
1 3 0 0 2 0 2 13 7 17 75 98 193 117 945 1449 1534 1574 1089 947 849 812 722 677 613 357 182 573 888 920 877 1954 2074 1907 1865 2537 3025 1952 1664 1858 1842 1919 1668 1484
26 39 79 90 56 40 57 37 40 105 64 115 162 384 949 1380 1467 1082 1211 1263 794 859 745 654 1080 259 277 203 647 1018 1041 1122 1620 1705 1633 1524 1574 1784 1845 1620 2395 2157 2027 1845
1 49 49 29 39 80 79 1 29 70 68 7 29 278 1315 1484 902 888 772 800 561 550 784 374 587 866 372 193 245 379 346 488 894 1434 1364 1496 1508 1556 1634 1413 1475 1724 1628 1059
1 7 37 135 194 156 79 108 146 415 215 69 99 132 1698 1481 922 891 542 286 165 113 104 98 401 543 333 179 163 89 94 146 284 723 840 958 480 564 520 747 644 496 673 602
0 9 4 59 110 56 167 0 8 53 442 427 354 286 835 1521 1408 785 189 132 83 89 66 69 141 291 301 332 248 106 73 58 10 73 185 308 527 552 513 552 688 514 332 110
91 27 51 115 116 231 275 336 392 382 640 811 632 474 1713 1547 1080 421 187 101 117 122 89 167 201 163 287 310 321 336 234 166 134 165 153 100 86 50 60 87 72 62 43 3
109 127 194 230 237 296 346 353 217 905 764 586 1813 1883 1615 1246 941 490 351 241 143 104 115 183 207 178 165 198 330 287 174 197 163 134 135 129 70 46 19 54 31 25 13 15
101 239 282 267 302 600 571 325 642 646 974 1340 1932 1774 1554 1145 993 736 466 313 127 130 151 199 215 257 296 194 397 226 304 313 319 191 130 107 44 69 82 70 66 64 12 12
160 200 51 266 440 366 460 566 455 851 1450 1934 1918 1628 1251 1242 967 727 541 356 151 127 103 139 142 200 221 313 206 235 321 292 318 245 161 140 142 99 113 38 22 0 8 8
152 211 93 81 26 311 591 842 1166 1471 1509 1600 1701 1272 1153 1010 842 721 541 276 91 84 62 36 32 49 91 199 312 298 363 309 279 296 182 149 158 119 148 118 1 13 7 21
247 81 73 106 112 957 878 1162 1413 1539 1351 1222 1230 1120 1033 934 748 588 249 52 66 55 45 41 32 21 13 15 6 5 6 6 10 22 44 56 78 75 77 109 84 39 14 22